Darstellungsparameter: Aktuell verwendete Einstellungen:
Skalierung der Graphiken ... ?
xyx+y,   Skalierungsfaktor:      Skalierung: Modus: x, Faktor: 1
Darstellungszeitraum ... ?
Vom - - bis: - -   Zeitraum: 29.04.2019 - 18.05.2019
Min/Max/Avg-Anzeige ... ?
Zeige MMA aktuell
Zeige MMA Monat
Zeige MMA alles
Zeige --A aktuell
Zeige --A Monat
Zeige --A alles
Keine MMA-Anzeige
MMA:
Keine MMA-Graphiken
MMA-Basis: 29.04.2019 - 18.05.2019
Quicknavigation für Darstellung... ?
Tage:      1T, 2T, 3T, 5T -1T -2T -3T -5T +1T +2T +3T +5T
Wochen: 1W, 2W, 3W -1W -2W -3W +1W +2W +3W
Monate: 1M, 3M, 6M -1M -3M -6M +1M +3M +6M
Jahre:    1J, 3J, 5J, 10J -1J -3J -5J -10J +1J +3J +5J +10J
Nutze für die Darstellung ... ?
Originaldaten oder Mittelwerte auf ...
Stundenbasis Tagesbasis Wochenbasis
Monatsbasis Jahresbasis      Datenbasis: Original-Daten
Darstellen als:
Statistik (Auto) Statistik J:M      Darstellung:
Zur Graphik,    zurück zur Übersicht aller Sensoren.
 
Tabellarische Datenbersicht: ?
 
Sensor: Nr:Datum:Temp:Feuchte:Taupunkt:
Aussen-T/F 1 29-04-2019 00:00:00 4.7 C 93 % 3.67 C
2 29-04-2019 00:05:00 4.7 C 93 % 3.67 C
3 29-04-2019 00:10:00 4.7 C 94 % 3.82 C
4 29-04-2019 00:15:00 4.6 C 93 % 3.57 C
5 29-04-2019 00:20:00 4.5 C 93 % 3.47 C
6 29-04-2019 00:25:00 4.4 C 93 % 3.37 C
7 29-04-2019 00:30:00 4.3 C 94 % 3.42 C
8 29-04-2019 00:35:00 4.3 C 94 % 3.42 C
9 29-04-2019 00:40:00 4.2 C 94 % 3.32 C
10 29-04-2019 00:45:00 4.2 C 94 % 3.32 C
11 29-04-2019 00:50:00 4.2 C 94 % 3.32 C
12 29-04-2019 00:55:00 4.2 C 94 % 3.32 C
13 29-04-2019 01:00:00 4.3 C 94 % 3.42 C
14 29-04-2019 01:05:00 4.4 C 94 % 3.52 C
15 29-04-2019 01:10:00 4.3 C 94 % 3.42 C
16 29-04-2019 01:15:00 4.3 C 94 % 3.42 C
17 29-04-2019 01:20:00 4.3 C 94 % 3.42 C
18 29-04-2019 01:25:00 4.2 C 94 % 3.32 C
19 29-04-2019 01:30:00 4 C 94 % 3.12 C
20 29-04-2019 01:35:00 3.9 C 94 % 3.02 C
21 29-04-2019 01:40:00 3.8 C 94 % 2.93 C
22 29-04-2019 01:45:00 3.7 C 94 % 2.83 C
23 29-04-2019 01:50:00 3.6 C 94 % 2.73 C
24 29-04-2019 01:55:00 3.6 C 94 % 2.73 C
25 29-04-2019 02:00:00 3.7 C 95 % 2.98 C
Sensor: Nr:Datum:Temp:Feuchte:Taupunkt:
Aussen-T/F 26 29-04-2019 02:05:00 3.6 C 95 % 2.88 C
27 29-04-2019 02:10:00 3.6 C 95 % 2.88 C
28 29-04-2019 02:15:00 3.4 C 94 % 2.53 C
29 29-04-2019 02:20:00 3.3 C 94 % 2.43 C
30 29-04-2019 02:25:00 3.3 C 94 % 2.43 C
31 29-04-2019 02:30:00 3.3 C 95 % 2.58 C
32 29-04-2019 02:35:00 3.3 C 95 % 2.58 C
33 29-04-2019 02:40:00 3.3 C 95 % 2.58 C
34 29-04-2019 02:45:00 3.4 C 95 % 2.68 C
35 29-04-2019 02:50:00 3.4 C 95 % 2.68 C
36 29-04-2019 02:55:00 3.5 C 95 % 2.78 C
37 29-04-2019 03:00:00 3.5 C 95 % 2.78 C
38 29-04-2019 03:05:00 3.5 C 95 % 2.78 C
39 29-04-2019 03:10:00 3.6 C 95 % 2.88 C
40 29-04-2019 03:15:00 3.6 C 95 % 2.88 C
41 29-04-2019 03:20:00 3.7 C 95 % 2.98 C
42 29-04-2019 03:25:00 3.7 C 95 % 2.98 C
43 29-04-2019 03:30:00 3.7 C 95 % 2.98 C
44 29-04-2019 03:35:00 3.8 C 95 % 3.07 C
45 29-04-2019 03:40:00 3.8 C 95 % 3.07 C
46 29-04-2019 03:45:00 3.8 C 95 % 3.07 C
47 29-04-2019 03:50:00 3.7 C 95 % 2.98 C
48 29-04-2019 03:55:00 3.7 C 95 % 2.98 C
49 29-04-2019 04:00:00 3.7 C 95 % 2.98 C
50 29-04-2019 04:05:00 3.6 C 95 % 2.88 C
Sensor: Nr:Datum:Temp:Feuchte:Taupunkt:
Aussen-T/F 51 29-04-2019 04:10:00 3.6 C 95 % 2.88 C
52 29-04-2019 04:15:00 3.6 C 95 % 2.88 C
53 29-04-2019 04:20:00 3.6 C 95 % 2.88 C
54 29-04-2019 04:25:00 3.6 C 96 % 3.02 C
55 29-04-2019 04:30:00 3.6 C 96 % 3.02 C
56 29-04-2019 04:35:00 3.5 C 96 % 2.92 C
57 29-04-2019 04:40:00 3.4 C 96 % 2.82 C
58 29-04-2019 04:45:00 3.4 C 96 % 2.82 C
59 29-04-2019 04:50:00 3.4 C 96 % 2.82 C
60 29-04-2019 04:55:00 3.5 C 96 % 2.92 C
61 29-04-2019 05:00:00 3.5 C 96 % 2.92 C
62 29-04-2019 05:05:00 3.5 C 96 % 2.92 C
63 29-04-2019 05:10:00 3.4 C 96 % 2.82 C
64 29-04-2019 05:15:00 3.4 C 96 % 2.82 C
65 29-04-2019 05:20:00 3.4 C 96 % 2.82 C
66 29-04-2019 05:25:00 3.4 C 96 % 2.82 C
67 29-04-2019 05:30:00 3.3 C 96 % 2.72 C
68 29-04-2019 05:35:00 3.3 C 96 % 2.72 C
69 29-04-2019 05:40:00 3.3 C 96 % 2.72 C
70 29-04-2019 05:45:00 3.3 C 96 % 2.72 C
71 29-04-2019 05:50:00 3.3 C 96 % 2.72 C
72 29-04-2019 05:55:00 3.2 C 96 % 2.63 C
73 29-04-2019 06:00:00 3.2 C 96 % 2.63 C
74 29-04-2019 06:05:00 3.2 C 96 % 2.63 C
75 29-04-2019 06:10:00 3.2 C 96 % 2.63 C
Sensor: Nr:Datum:Temp:Feuchte:Taupunkt:
Aussen-T/F 76 29-04-2019 06:15:00 3.2 C 96 % 2.63 C
77 29-04-2019 06:20:00 3.2 C 96 % 2.63 C
78 29-04-2019 06:25:00 3.2 C 96 % 2.63 C
79 29-04-2019 06:30:00 3.1 C 96 % 2.53 C
80 29-04-2019 06:35:00 3.1 C 96 % 2.53 C
81 29-04-2019 06:40:00 3.1 C 96 % 2.53 C
82 29-04-2019 06:45:00 3.1 C 96 % 2.53 C
83 29-04-2019 06:50:00 3.1 C 96 % 2.53 C
84 29-04-2019 06:55:00 3.1 C 96 % 2.53 C
85 29-04-2019 07:00:00 3.1 C 96 % 2.53 C
86 29-04-2019 07:05:00 3.1 C 96 % 2.53 C
87 29-04-2019 07:10:00 3.1 C 96 % 2.53 C
88 29-04-2019 07:15:00 3.1 C 96 % 2.53 C
89 29-04-2019 07:20:00 3.2 C 96 % 2.63 C
90 29-04-2019 07:25:00 3.2 C 96 % 2.63 C
91 29-04-2019 07:30:00 3.2 C 96 % 2.63 C
92 29-04-2019 07:35:00 3.3 C 96 % 2.72 C
93 29-04-2019 07:40:00 3.3 C 96 % 2.72 C
94 29-04-2019 07:45:00 3.3 C 96 % 2.72 C
95 29-04-2019 07:50:00 3.4 C 96 % 2.82 C
96 29-04-2019 07:55:00 3.4 C 96 % 2.82 C
97 29-04-2019 08:00:00 3.5 C 96 % 2.92 C
98 29-04-2019 08:05:00 3.6 C 96 % 3.02 C
99 29-04-2019 08:10:00 3.6 C 96 % 3.02 C
100 29-04-2019 08:15:00 3.7 C 96 % 3.12 C
Sensor: Nr:Datum:Temp:Feuchte:Taupunkt:
Aussen-T/F 101 29-04-2019 08:20:00 3.7 C 96 % 3.12 C
102 29-04-2019 08:25:00 3.8 C 97 % 3.37 C
103 29-04-2019 08:30:00 3.9 C 97 % 3.47 C
104 29-04-2019 08:35:00 3.9 C 96 % 3.32 C
105 29-04-2019 08:40:00 4 C 96 % 3.42 C
106 29-04-2019 08:45:00 4.1 C 97 % 3.67 C
107 29-04-2019 08:50:00 4.2 C 97 % 3.77 C
108 29-04-2019 08:55:00 4.3 C 97 % 3.87 C
109 29-04-2019 09:00:00 4.4 C 97 % 3.97 C
110 29-04-2019 09:05:00 4.5 C 97 % 4.07 C
111 29-04-2019 09:10:00 4.6 C 97 % 4.17 C
112 29-04-2019 09:15:00 4.7 C 97 % 4.27 C
113 29-04-2019 09:20:00 4.8 C 97 % 4.37 C
114 29-04-2019 09:25:00 5 C 97 % 4.56 C
115 29-04-2019 09:30:00 5.1 C 97 % 4.66 C
116 29-04-2019 09:35:00 5.2 C 97 % 4.76 C
117 29-04-2019 09:40:00 5.3 C 97 % 4.86 C
118 29-04-2019 09:45:00 5.4 C 97 % 4.96 C
119 29-04-2019 09:50:00 5.5 C 97 % 5.06 C
120 29-04-2019 09:55:00 5.4 C 97 % 4.96 C
121 29-04-2019 10:00:00 5.7 C 96 % 5.11 C
122 29-04-2019 10:05:00 5.8 C 96 % 5.21 C
123 29-04-2019 10:10:00 5.9 C 96 % 5.31 C
124 29-04-2019 10:15:00 6.2 C 96 % 5.61 C
125 29-04-2019 10:20:00 6.3 C 96 % 5.71 C
Sensor: Nr:Datum:Temp:Feuchte:Taupunkt:
Aussen-T/F 126 29-04-2019 10:25:00 6.5 C 96 % 5.91 C
127 29-04-2019 10:30:00 6.6 C 95 % 5.86 C
128 29-04-2019 10:35:00 6.8 C 95 % 6.06 C
129 29-04-2019 10:40:00 6.9 C 95 % 6.16 C
130 29-04-2019 10:45:00 7.1 C 94 % 6.2 C
131 29-04-2019 10:50:00 7.2 C 94 % 6.3 C
132 29-04-2019 10:55:00 7.2 C 93 % 6.15 C
133 29-04-2019 11:00:00 7.4 C 93 % 6.34 C
134 29-04-2019 11:05:00 7.6 C 93 % 6.54 C
135 29-04-2019 11:10:00 7.8 C 93 % 6.74 C
136 29-04-2019 11:15:00 8 C 92 % 6.78 C
137 29-04-2019 11:20:00 8.2 C 92 % 6.98 C
138 29-04-2019 11:25:00 8.4 C 92 % 7.18 C
139 29-04-2019 11:30:00 8.8 C 92 % 7.57 C
140 29-04-2019 11:35:00 9.1 C 91 % 7.71 C
141 29-04-2019 11:40:00 9.4 C 90 % 7.85 C
142 29-04-2019 11:45:00 9.7 C 88 % 7.81 C
143 29-04-2019 11:50:00 9.9 C 87 % 7.84 C
144 29-04-2019 11:55:00 10.1 C 86 % 7.87 C
145 29-04-2019 12:00:00 10.4 C 85 % 7.99 C
146 29-04-2019 12:05:00 10.7 C 84 % 8.11 C
147 29-04-2019 12:10:00 11.1 C 83 % 8.33 C
148 29-04-2019 12:15:00 11.3 C 80 % 7.98 C
149 29-04-2019 12:20:00 11.5 C 78 % 7.8 C
150 29-04-2019 12:25:00 11.8 C 79 % 8.28 C
Sensor: Nr:Datum:Temp:Feuchte:Taupunkt:
Aussen-T/F 151 29-04-2019 12:30:00 12.1 C 75 % 7.81 C
152 29-04-2019 12:35:00 12.3 C 76 % 8.2 C
153 29-04-2019 12:40:00 12.6 C 72 % 7.69 C
154 29-04-2019 12:45:00 12.8 C 73 % 8.09 C
155 29-04-2019 12:50:00 13.2 C 71 % 8.06 C
156 29-04-2019 12:55:00 13.3 C 69 % 7.74 C
157 29-04-2019 13:00:00 13.5 C 67 % 7.5 C
158 29-04-2019 13:05:00 13.7 C 65 % 7.25 C
159 29-04-2019 13:10:00 13.8 C 63 % 6.89 C
160 29-04-2019 13:15:00 13.9 C 63 % 6.98 C
161 29-04-2019 13:20:00 14 C 64 % 7.31 C
162 29-04-2019 13:25:00 14 C 64 % 7.31 C
163 29-04-2019 13:30:00 14 C 64 % 7.31 C
164 29-04-2019 13:35:00 14 C 64 % 7.31 C
165 29-04-2019 13:40:00 14 C 62 % 6.84 C
166 29-04-2019 13:45:00 14.2 C 63 % 7.27 C
167 29-04-2019 13:50:00 14.3 C 61 % 6.89 C
168 29-04-2019 13:55:00 14.3 C 60 % 6.65 C
169 29-04-2019 14:00:00 14.3 C 59 % 6.41 C
170 29-04-2019 14:05:00 14.4 C 60 % 6.74 C
171 29-04-2019 14:10:00 14.4 C 60 % 6.74 C
172 29-04-2019 14:15:00 14.7 C 57 % 6.28 C
173 29-04-2019 14:20:00 14.7 C 56 % 6.02 C
174 29-04-2019 14:25:00 14.8 C 59 % 6.87 C
175 29-04-2019 14:30:00 14.8 C 57 % 6.37 C
Sensor: Nr:Datum:Temp:Feuchte:Taupunkt:
Aussen-T/F 176 29-04-2019 14:35:00 14.9 C 56 % 6.21 C
177 29-04-2019 14:40:00 15.2 C 56 % 6.49 C
178 29-04-2019 14:45:00 15.3 C 55 % 6.32 C
179 29-04-2019 14:50:00 15.3 C 55 % 6.32 C
180 29-04-2019 14:55:00 15.2 C 55 % 6.23 C
181 29-04-2019 15:00:00 15.2 C 56 % 6.49 C
182 29-04-2019 15:05:00 15.3 C 57 % 6.84 C
183 29-04-2019 15:10:00 15.3 C 55 % 6.32 C
184 29-04-2019 15:15:00 15.3 C 57 % 6.84 C
185 29-04-2019 15:20:00 15.2 C 57 % 6.75 C
186 29-04-2019 15:25:00 15.3 C 57 % 6.84 C
187 29-04-2019 15:30:00 15.3 C 55 % 6.32 C
188 29-04-2019 15:35:00 15.3 C 56 % 6.58 C
189 29-04-2019 15:40:00 15.2 C 56 % 6.49 C
190 29-04-2019 15:45:00 15.3 C 58 % 7.09 C
191 29-04-2019 15:50:00 15.4 C 56 % 6.68 C
192 29-04-2019 15:55:00 15.4 C 56 % 6.68 C
193 29-04-2019 16:00:00 15.3 C 54 % 6.06 C
194 29-04-2019 16:05:00 15.3 C 54 % 6.06 C
195 29-04-2019 16:10:00 15.3 C 55 % 6.32 C
196 29-04-2019 16:15:00 15.3 C 55 % 6.32 C
197 29-04-2019 16:20:00 15.3 C 56 % 6.58 C
198 29-04-2019 16:25:00 15.3 C 55 % 6.32 C
199 29-04-2019 16:30:00 15.3 C 55 % 6.32 C
200 29-04-2019 16:35:00 15.3 C 54 % 6.06 C
Sensor: Nr:Datum:Temp:Feuchte:Taupunkt:
Aussen-T/F 201 29-04-2019 16:40:00 15.3 C 55 % 6.32 C
202 29-04-2019 16:45:00 15.3 C 58 % 7.09 C
203 29-04-2019 16:50:00 15.4 C 56 % 6.68 C
204 29-04-2019 16:55:00 15.4 C 57 % 6.93 C
205 29-04-2019 17:00:00 15.4 C 56 % 6.68 C
206 29-04-2019 17:05:00 15.4 C 57 % 6.93 C
207 29-04-2019 17:10:00 15.4 C 56 % 6.68 C
208 29-04-2019 17:15:00 15.4 C 55 % 6.42 C
209 29-04-2019 17:20:00 15.4 C 54 % 6.15 C
210 29-04-2019 17:25:00 15.4 C 55 % 6.42 C
211 29-04-2019 17:30:00 15.3 C 57 % 6.84 C
212 29-04-2019 17:35:00 15.3 C 56 % 6.58 C
213 29-04-2019 17:40:00 15.3 C 56 % 6.58 C
214 29-04-2019 17:45:00 15.2 C 56 % 6.49 C
215 29-04-2019 17:50:00 15.2 C 55 % 6.23 C
216 29-04-2019 17:55:00 15.1 C 56 % 6.4 C
217 29-04-2019 18:00:00 14.9 C 57 % 6.47 C
218 29-04-2019 18:05:00 14.7 C 58 % 6.53 C
219 29-04-2019 18:10:00 14.4 C 60 % 6.74 C
220 29-04-2019 18:15:00 14.2 C 63 % 7.27 C
221 29-04-2019 18:20:00 13.9 C 63 % 6.98 C
222 29-04-2019 18:25:00 13.7 C 65 % 7.25 C
223 29-04-2019 18:30:00 13.6 C 69 % 8.03 C
224 29-04-2019 18:35:00 13.4 C 72 % 8.46 C
225 29-04-2019 18:40:00 13.3 C 77 % 9.36 C
Sensor: Nr:Datum:Temp:Feuchte:Taupunkt:
Aussen-T/F 226 29-04-2019 18:45:00 13.1 C 77 % 9.16 C
227 29-04-2019 18:50:00 12.7 C 80 % 9.34 C
228 29-04-2019 18:55:00 12.4 C 83 % 9.6 C
229 29-04-2019 19:00:00 12.2 C 84 % 9.58 C
230 29-04-2019 19:05:00 11.9 C 86 % 9.64 C
231 29-04-2019 19:10:00 11.7 C 86 % 9.44 C
232 29-04-2019 19:15:00 11.4 C 87 % 9.32 C
233 29-04-2019 19:20:00 11.2 C 88 % 9.29 C
234 29-04-2019 19:25:00 11 C 88 % 9.09 C
235 29-04-2019 19:30:00 10.9 C 89 % 9.16 C
236 29-04-2019 19:35:00 10.7 C 89 % 8.96 C
237 29-04-2019 19:40:00 10.6 C 90 % 9.03 C
238 29-04-2019 19:45:00 10.5 C 90 % 8.93 C
239 29-04-2019 19:50:00 10.4 C 90 % 8.83 C
240 29-04-2019 19:55:00 10.4 C 90 % 8.83 C
241 29-04-2019 20:00:00 10.3 C 91 % 8.9 C
242 29-04-2019 20:05:00 10.3 C 91 % 8.9 C
243 29-04-2019 20:10:00 10.3 C 91 % 8.9 C
244 29-04-2019 20:15:00 10.3 C 91 % 8.9 C
245 29-04-2019 20:20:00 10.2 C 91 % 8.8 C
246 29-04-2019 20:25:00 10.3 C 92 % 9.06 C
247 29-04-2019 20:30:00 10.3 C 92 % 9.06 C
248 29-04-2019 20:35:00 10.2 C 92 % 8.96 C
249 29-04-2019 20:40:00 10.2 C 92 % 8.96 C
250 29-04-2019 20:45:00 10.2 C 92 % 8.96 C
Sensor: Nr:Datum:Temp:Feuchte:Taupunkt:
Aussen-T/F 251 29-04-2019 20:50:00 10.2 C 92 % 8.96 C
252 29-04-2019 20:55:00 10.2 C 92 % 8.96 C
253 29-04-2019 21:00:00 10.2 C 92 % 8.96 C
254 29-04-2019 21:05:00 10.1 C 93 % 9.02 C
255 29-04-2019 21:10:00 10.1 C 93 % 9.02 C
256 29-04-2019 21:15:00 10.1 C 93 % 9.02 C
257 29-04-2019 21:20:00 10.1 C 93 % 9.02 C
258 29-04-2019 21:25:00 10.1 C 92 % 8.86 C
259 29-04-2019 21:30:00 10.1 C 92 % 8.86 C
260 29-04-2019 21:35:00 10.1 C 92 % 8.86 C
261 29-04-2019 21:40:00 10.1 C 92 % 8.86 C
262 29-04-2019 21:45:00 10.2 C 92 % 8.96 C
263 29-04-2019 21:50:00 10.2 C 92 % 8.96 C
264 29-04-2019 21:55:00 10.2 C 92 % 8.96 C
265 29-04-2019 22:00:00 10.2 C 92 % 8.96 C
266 29-04-2019 22:05:00 10.2 C 92 % 8.96 C
267 29-04-2019 22:10:00 10.2 C 92 % 8.96 C
268 29-04-2019 22:15:00 10.3 C 92 % 9.06 C
269 29-04-2019 22:20:00 10.3 C 92 % 9.06 C
270 29-04-2019 22:25:00 10.2 C 92 % 8.96 C
271 29-04-2019 22:30:00 10.2 C 92 % 8.96 C
272 29-04-2019 22:35:00 10.3 C 92 % 9.06 C
273 29-04-2019 22:40:00 10.3 C 92 % 9.06 C
274 29-04-2019 22:45:00 10.3 C 91 % 8.9 C
275 29-04-2019 22:50:00 10.3 C 91 % 8.9 C
Sensor: Nr:Datum:Temp:Feuchte:Taupunkt:
Aussen-T/F 276 29-04-2019 22:55:00 10.3 C 91 % 8.9 C
277 29-04-2019 23:00:00 10.4 C 90 % 8.83 C
278 29-04-2019 23:05:00 10.5 C 90 % 8.93 C
279 29-04-2019 23:10:00 10.6 C 90 % 9.03 C
280 29-04-2019 23:15:00 10.6 C 89 % 8.86 C
281 29-04-2019 23:20:00 10.7 C 90 % 9.13 C
282 29-04-2019 23:25:00 10.7 C 89 % 8.96 C
283 29-04-2019 23:30:00 10.7 C 89 % 8.96 C
284 29-04-2019 23:35:00 10.7 C 89 % 8.96 C
285 29-04-2019 23:40:00 10.8 C 90 % 9.23 C
286 29-04-2019 23:45:00 10.8 C 90 % 9.23 C
287 29-04-2019 23:50:00 10.7 C 90 % 9.13 C
288 29-04-2019 23:55:00 10.7 C 89 % 8.96 C
289 30-04-2019 00:00:00 10.8 C 89 % 9.06 C
290 30-04-2019 00:05:00 10.8 C 89 % 9.06 C
291 30-04-2019 00:10:00 10.8 C 89 % 9.06 C
292 30-04-2019 00:15:00 10.8 C 88 % 8.89 C
293 30-04-2019 00:20:00 10.9 C 87 % 8.82 C
294 30-04-2019 00:25:00 11 C 87 % 8.92 C
295 30-04-2019 00:30:00 11.1 C 87 % 9.02 C
296 30-04-2019 00:35:00 11.1 C 87 % 9.02 C
297 30-04-2019 00:40:00 11.1 C 87 % 9.02 C
298 30-04-2019 00:45:00 11.1 C 86 % 8.85 C
299 30-04-2019 00:50:00 11.1 C 86 % 8.85 C
300 30-04-2019 00:55:00 11.2 C 86 % 8.95 C
Sensor: Nr:Datum:Temp:Feuchte:Taupunkt:
Aussen-T/F 301 30-04-2019 01:00:00 11.2 C 86 % 8.95 C
302 30-04-2019 01:05:00 11.2 C 86 % 8.95 C
303 30-04-2019 01:10:00 11.2 C 86 % 8.95 C
304 30-04-2019 01:15:00 11.2 C 86 % 8.95 C
305 30-04-2019 01:20:00 11.2 C 86 % 8.95 C
306 30-04-2019 01:25:00 11.2 C 86 % 8.95 C
307 30-04-2019 01:30:00 11.2 C 86 % 8.95 C
308 30-04-2019 01:35:00 11.2 C 86 % 8.95 C
309 30-04-2019 01:40:00 11.1 C 86 % 8.85 C
310 30-04-2019 01:45:00 11.1 C 87 % 9.02 C
311 30-04-2019 01:50:00 11.1 C 87 % 9.02 C
312 30-04-2019 01:55:00 11.1 C 87 % 9.02 C
313 30-04-2019 02:00:00 11 C 87 % 8.92 C
314 30-04-2019 02:05:00 11 C 87 % 8.92 C
315 30-04-2019 02:10:00 10.9 C 88 % 8.99 C
316 30-04-2019 02:15:00 10.9 C 88 % 8.99 C
317 30-04-2019 02:20:00 10.9 C 88 % 8.99 C
318 30-04-2019 02:25:00 10.9 C 88 % 8.99 C
319 30-04-2019 02:30:00 10.8 C 88 % 8.89 C
320 30-04-2019 02:35:00 10.8 C 88 % 8.89 C
321 30-04-2019 02:40:00 10.8 C 88 % 8.89 C
322 30-04-2019 02:45:00 10.8 C 89 % 9.06 C
323 30-04-2019 02:50:00 10.7 C 89 % 8.96 C
324 30-04-2019 02:55:00 10.7 C 89 % 8.96 C
325 30-04-2019 03:00:00 10.7 C 89 % 8.96 C
Sensor: Nr:Datum:Temp:Feuchte:Taupunkt:
Aussen-T/F 326 30-04-2019 03:05:00 10.7 C 89 % 8.96 C
327 30-04-2019 03:10:00 10.7 C 89 % 8.96 C
328 30-04-2019 03:15:00 10.6 C 89 % 8.86 C
329 30-04-2019 03:20:00 10.6 C 89 % 8.86 C
330 30-04-2019 03:25:00 10.6 C 89 % 8.86 C
331 30-04-2019 03:30:00 10.6 C 89 % 8.86 C
332 30-04-2019 03:35:00 10.6 C 89 % 8.86 C
333 30-04-2019 03:40:00 10.6 C 89 % 8.86 C
334 30-04-2019 03:45:00 10.5 C 89 % 8.77 C
335 30-04-2019 03:50:00 10.5 C 89 % 8.77 C
336 30-04-2019 03:55:00 10.4 C 89 % 8.67 C
337 30-04-2019 04:00:00 10.4 C 89 % 8.67 C
338 30-04-2019 04:05:00 10.4 C 89 % 8.67 C
339 30-04-2019 04:10:00 10.4 C 89 % 8.67 C
340 30-04-2019 04:15:00 10.3 C 89 % 8.57 C
341 30-04-2019 04:20:00 10.3 C 89 % 8.57 C
342 30-04-2019 04:25:00 10.3 C 89 % 8.57 C
343 30-04-2019 04:30:00 10.3 C 88 % 8.4 C
344 30-04-2019 04:35:00 10.3 C 89 % 8.57 C
345 30-04-2019 04:40:00 10.3 C 89 % 8.57 C
346 30-04-2019 04:45:00 10.3 C 89 % 8.57 C
347 30-04-2019 04:50:00 10.2 C 89 % 8.47 C
348 30-04-2019 04:55:00 10.2 C 89 % 8.47 C
349 30-04-2019 05:00:00 10.2 C 89 % 8.47 C
350 30-04-2019 05:05:00 10.2 C 88 % 8.3 C
Sensor: Nr:Datum:Temp:Feuchte:Taupunkt:
Aussen-T/F 351 30-04-2019 05:10:00 10.2 C 88 % 8.3 C
352 30-04-2019 05:15:00 10.2 C 88 % 8.3 C
353 30-04-2019 05:20:00 10.2 C 88 % 8.3 C
354 30-04-2019 05:25:00 10.2 C 88 % 8.3 C
355 30-04-2019 05:30:00 10.2 C 88 % 8.3 C
356 30-04-2019 05:35:00 10.2 C 88 % 8.3 C
357 30-04-2019 05:40:00 10.2 C 88 % 8.3 C
358 30-04-2019 05:45:00 10.2 C 88 % 8.3 C
359 30-04-2019 05:50:00 10.1 C 88 % 8.21 C
360 30-04-2019 05:55:00 10.1 C 88 % 8.21 C
361 30-04-2019 06:00:00 10.1 C 88 % 8.21 C
362 30-04-2019 06:05:00 10.1 C 88 % 8.21 C
363 30-04-2019 06:10:00 10.1 C 88 % 8.21 C
364 30-04-2019 06:15:00 10.1 C 88 % 8.21 C
365 30-04-2019 06:20:00 10.1 C 89 % 8.37 C
366 30-04-2019 06:25:00 10.1 C 89 % 8.37 C
367 30-04-2019 06:30:00 10.1 C 89 % 8.37 C
368 30-04-2019 06:35:00 10 C 89 % 8.27 C
369 30-04-2019 06:40:00 10 C 89 % 8.27 C
370 30-04-2019 06:45:00 10 C 89 % 8.27 C
371 30-04-2019 06:50:00 10 C 90 % 8.44 C
372 30-04-2019 06:55:00 10 C 90 % 8.44 C
373 30-04-2019 07:00:00 10 C 90 % 8.44 C
374 30-04-2019 07:05:00 9.9 C 90 % 8.34 C
375 30-04-2019 07:10:00 9.9 C 90 % 8.34 C
Sensor: Nr:Datum:Temp:Feuchte:Taupunkt:
Aussen-T/F 376 30-04-2019 07:15:00 9.9 C 89 % 8.17 C
377 30-04-2019 07:20:00 10 C 89 % 8.27 C
378 30-04-2019 07:25:00 10 C 89 % 8.27 C
379 30-04-2019 07:30:00 10.1 C 89 % 8.37 C
380 30-04-2019 07:35:00 10.1 C 89 % 8.37 C
381 30-04-2019 07:40:00 10.2 C 88 % 8.3 C
382 30-04-2019 07:45:00 10.2 C 88 % 8.3 C
383 30-04-2019 07:50:00 10.3 C 87 % 8.23 C
384 30-04-2019 07:55:00 10.3 C 87 % 8.23 C
385 30-04-2019 08:00:00 10.4 C 87 % 8.33 C
386 30-04-2019 08:05:00 10.4 C 87 % 8.33 C
387 30-04-2019 08:10:00 10.5 C 86 % 8.26 C
388 30-04-2019 08:15:00 10.6 C 86 % 8.36 C
389 30-04-2019 08:20:00 10.6 C 86 % 8.36 C
390 30-04-2019 08:25:00 10.7 C 86 % 8.46 C
391 30-04-2019 08:30:00 10.7 C 85 % 8.28 C
392 30-04-2019 08:35:00 10.8 C 83 % 8.03 C
393 30-04-2019 08:40:00 10.9 C 82 % 7.95 C
394 30-04-2019 08:45:00 11 C 80 % 7.69 C
395 30-04-2019 08:50:00 11 C 80 % 7.69 C
396 30-04-2019 08:55:00 11.1 C 79 % 7.6 C
397 30-04-2019 09:00:00 11 C 78 % 7.32 C
398 30-04-2019 09:05:00 11.1 C 76 % 7.04 C
399 30-04-2019 09:10:00 11.2 C 78 % 7.51 C
400 30-04-2019 09:15:00 11.3 C 77 % 7.42 C
Sensor: Nr:Datum:Temp:Feuchte:Taupunkt:
Aussen-T/F 401 30-04-2019 09:20:00 11.4 C 77 % 7.52 C
402 30-04-2019 09:25:00 11.5 C 77 % 7.61 C
403 30-04-2019 09:30:00 11.6 C 77 % 7.71 C
404 30-04-2019 09:35:00 11.7 C 77 % 7.81 C
405 30-04-2019 09:40:00 11.7 C 76 % 7.62 C
406 30-04-2019 09:45:00 11.8 C 77 % 7.9 C
407 30-04-2019 09:50:00 11.9 C 76 % 7.81 C
408 30-04-2019 09:55:00 12 C 76 % 7.91 C
409 30-04-2019 10:00:00 12.1 C 76 % 8 C
410 30-04-2019 10:05:00 12.2 C 73 % 7.51 C
411 30-04-2019 10:10:00 12.3 C 73 % 7.61 C
412 30-04-2019 10:15:00 12.4 C 71 % 7.3 C
413 30-04-2019 10:20:00 12.5 C 70 % 7.18 C
414 30-04-2019 10:25:00 12.6 C 69 % 7.07 C
415 30-04-2019 10:30:00 12.6 C 69 % 7.07 C
416 30-04-2019 10:35:00 12.7 C 69 % 7.17 C
417 30-04-2019 10:40:00 12.8 C 67 % 6.83 C
418 30-04-2019 10:45:00 12.9 C 69 % 7.36 C
419 30-04-2019 10:50:00 13.1 C 68 % 7.34 C
420 30-04-2019 10:55:00 13.2 C 67 % 7.21 C
421 30-04-2019 11:00:00 13.3 C 64 % 6.64 C
422 30-04-2019 11:05:00 13.3 C 64 % 6.64 C
423 30-04-2019 11:10:00 13.5 C 64 % 6.83 C
424 30-04-2019 11:15:00 13.6 C 63 % 6.7 C
425 30-04-2019 11:20:00 13.6 C 63 % 6.7 C
Sensor: Nr:Datum:Temp:Feuchte:Taupunkt:
Aussen-T/F 426 30-04-2019 11:25:00 13.6 C 62 % 6.47 C
427 30-04-2019 11:30:00 13.6 C 63 % 6.7 C
428 30-04-2019 11:35:00 13.7 C 62 % 6.56 C
429 30-04-2019 11:40:00 13.7 C 63 % 6.79 C
430 30-04-2019 11:45:00 13.8 C 62 % 6.65 C
431 30-04-2019 11:50:00 13.8 C 62 % 6.65 C
432 30-04-2019 11:55:00 13.8 C 61 % 6.42 C
433 30-04-2019 12:00:00 13.9 C 62 % 6.75 C
434 30-04-2019 12:05:00 14.2 C 60 % 6.56 C
435 30-04-2019 12:10:00 14.3 C 59 % 6.41 C
436 30-04-2019 12:15:00 14.3 C 61 % 6.89 C
437 30-04-2019 12:20:00 14.3 C 61 % 6.89 C
438 30-04-2019 12:25:00 14.4 C 58 % 6.25 C
439 30-04-2019 12:30:00 14.4 C 58 % 6.25 C
440 30-04-2019 12:35:00 14.6 C 57 % 6.19 C
441 30-04-2019 12:40:00 14.8 C 56 % 6.12 C
442 30-04-2019 12:45:00 14.8 C 57 % 6.37 C
443 30-04-2019 12:50:00 14.9 C 55 % 5.95 C
444 30-04-2019 12:55:00 15.1 C 56 % 6.4 C
445 30-04-2019 13:00:00 15.2 C 52 % 5.42 C
446 30-04-2019 13:05:00 15.3 C 53 % 5.79 C
447 30-04-2019 13:10:00 15.4 C 55 % 6.42 C
448 30-04-2019 13:15:00 15.6 C 57 % 7.12 C
449 30-04-2019 13:20:00 15.6 C 54 % 6.34 C
450 30-04-2019 13:25:00 15.6 C 54 % 6.34 C
Sensor: Nr:Datum:Temp:Feuchte:Taupunkt:
Aussen-T/F 451 30-04-2019 13:30:00 15.6 C 54 % 6.34 C
452 30-04-2019 13:35:00 15.7 C 53 % 6.16 C
453 30-04-2019 13:40:00 15.8 C 51 % 5.69 C
454 30-04-2019 13:45:00 15.9 C 53 % 6.34 C
455 30-04-2019 13:50:00 16 C 53 % 6.44 C
456 30-04-2019 13:55:00 16.2 C 50 % 5.78 C
457 30-04-2019 14:00:00 16.3 C 52 % 6.44 C
458 30-04-2019 14:05:00 16.3 C 49 % 5.58 C
459 30-04-2019 14:10:00 16.4 C 48 % 5.37 C
460 30-04-2019 14:15:00 16.5 C 50 % 6.05 C
461 30-04-2019 14:20:00 16.7 C 49 % 5.95 C
462 30-04-2019 14:25:00 16.8 C 49 % 6.04 C
463 30-04-2019 14:30:00 16.9 C 49 % 6.13 C
464 30-04-2019 14:35:00 17.2 C 47 % 5.8 C
465 30-04-2019 14:40:00 17.2 C 47 % 5.8 C
466 30-04-2019 14:45:00 17.2 C 48 % 6.11 C
467 30-04-2019 14:50:00 17.3 C 47 % 5.89 C
468 30-04-2019 14:55:00 17.6 C 47 % 6.17 C
469 30-04-2019 15:00:00 17.7 C 49 % 6.86 C
470 30-04-2019 15:05:00 17.8 C 46 % 6.04 C
471 30-04-2019 15:10:00 18.1 C 48 % 6.93 C
472 30-04-2019 15:15:00 18.3 C 45 % 6.17 C
473 30-04-2019 15:20:00 18.4 C 47 % 6.9 C
474 30-04-2019 15:25:00 18.5 C 44 % 6.03 C
475 30-04-2019 15:30:00 18.6 C 45 % 6.45 C
Sensor: Nr:Datum:Temp:Feuchte:Taupunkt:
Aussen-T/F 476 30-04-2019 15:35:00 18.8 C 45 % 6.63 C
477 30-04-2019 15:40:00 19.1 C 44 % 6.57 C
478 30-04-2019 15:45:00 19.2 C 45 % 6.99 C
479 30-04-2019 15:50:00 19.3 C 43 % 6.42 C
480 30-04-2019 15:55:00 19.3 C 43 % 6.42 C
481 30-04-2019 16:00:00 19.4 C 42 % 6.17 C
482 30-04-2019 16:05:00 19.6 C 42 % 6.35 C
483 30-04-2019 16:10:00 19.7 C 42 % 6.44 C
484 30-04-2019 16:15:00 19.8 C 41 % 6.18 C
485 30-04-2019 16:20:00 19.9 C 42 % 6.62 C
486 30-04-2019 16:25:00 20.2 C 41 % 6.54 C
487 30-04-2019 16:30:00 20.3 C 40 % 6.27 C
488 30-04-2019 16:35:00 20.2 C 39 % 5.82 C
489 30-04-2019 16:40:00 20.2 C 39 % 5.82 C
490 30-04-2019 16:45:00 20.2 C 41 % 6.54 C
491 30-04-2019 16:50:00 20.4 C 41 % 6.72 C
492 30-04-2019 16:55:00 20.4 C 40 % 6.36 C
493 30-04-2019 17:00:00 20.4 C 42 % 7.07 C
494 30-04-2019 17:05:00 20.5 C 40 % 6.45 C
495 30-04-2019 17:10:00 20.4 C 42 % 7.07 C
496 30-04-2019 17:15:00 20.4 C 42 % 7.07 C
497 30-04-2019 17:20:00 20.6 C 42 % 7.25 C
498 30-04-2019 17:25:00 20.7 C 42 % 7.34 C
499 30-04-2019 17:30:00 20.5 C 42 % 7.16 C
500 30-04-2019 17:35:00 20.5 C 40 % 6.45 C
Sensor: Nr:Datum:Temp:Feuchte:Taupunkt:
Aussen-T/F 501 30-04-2019 17:40:00 20.4 C 41 % 6.72 C
502 30-04-2019 17:45:00 20.4 C 41 % 6.72 C
503 30-04-2019 17:50:00 20.4 C 41 % 6.72 C
504 30-04-2019 17:55:00 20.4 C 43 % 7.41 C
505 30-04-2019 18:00:00 20.5 C 41 % 6.81 C
506 30-04-2019 18:05:00 20.3 C 44 % 7.66 C
507 30-04-2019 18:10:00 20.3 C 43 % 7.32 C
508 30-04-2019 18:15:00 20.3 C 42 % 6.98 C
509 30-04-2019 18:20:00 20.3 C 43 % 7.32 C
510 30-04-2019 18:25:00 20.4 C 41 % 6.72 C
511 30-04-2019 18:30:00 20.2 C 43 % 7.23 C
512 30-04-2019 18:35:00 20.2 C 43 % 7.23 C
513 30-04-2019 18:40:00 20.2 C 42 % 6.89 C
514 30-04-2019 18:45:00 20.1 C 44 % 7.48 C
515 30-04-2019 18:50:00 20.2 C 43 % 7.23 C
516 30-04-2019 18:55:00 19.9 C 45 % 7.63 C
517 30-04-2019 19:00:00 19.7 C 46 % 7.77 C
518 30-04-2019 19:05:00 19.5 C 46 % 7.58 C
519 30-04-2019 19:10:00 19.5 C 46 % 7.58 C
520 30-04-2019 19:15:00 19.4 C 47 % 7.81 C
521 30-04-2019 19:20:00 19.3 C 48 % 8.03 C
522 30-04-2019 19:25:00 19.2 C 49 % 8.24 C
523 30-04-2019 19:30:00 19.1 C 49 % 8.15 C
524 30-04-2019 19:35:00 18.8 C 49 % 7.87 C
525 30-04-2019 19:40:00 18.5 C 50 % 7.89 C
Sensor: Nr:Datum:Temp:Feuchte:Taupunkt:
Aussen-T/F 526 30-04-2019 19:45:00 18.2 C 51 % 7.91 C
527 30-04-2019 19:50:00 17.9 C 52 % 7.91 C
528 30-04-2019 19:55:00 17.8 C 53 % 8.1 C
529 30-04-2019 20:00:00 17.7 C 53 % 8.01 C
530 30-04-2019 20:05:00 17.4 C 54 % 8.01 C
531 30-04-2019 20:10:00 17.3 C 55 % 8.18 C
532 30-04-2019 20:15:00 17.2 C 56 % 8.35 C
533 30-04-2019 20:20:00 17.2 C 56 % 8.35 C
534 30-04-2019 20:25:00 17.1 C 58 % 8.78 C
535 30-04-2019 20:30:00 16.9 C 57 % 8.34 C
536 30-04-2019 20:35:00 16.8 C 58 % 8.5 C
537 30-04-2019 20:40:00 16.6 C 58 % 8.31 C
538 30-04-2019 20:45:00 16.6 C 59 % 8.56 C
539 30-04-2019 20:50:00 16.4 C 59 % 8.38 C
540 30-04-2019 20:55:00 16.3 C 60 % 8.53 C
541 30-04-2019 21:00:00 16.2 C 61 % 8.68 C
542 30-04-2019 21:05:00 16.2 C 63 % 9.16 C
543 30-04-2019 21:10:00 16 C 62 % 8.73 C
544 30-04-2019 21:15:00 15.8 C 64 % 9.01 C
545 30-04-2019 21:20:00 15.7 C 63 % 8.68 C
546 30-04-2019 21:25:00 15.5 C 65 % 8.96 C
547 30-04-2019 21:30:00 15.3 C 64 % 8.54 C
548 30-04-2019 21:35:00 15.3 C 66 % 8.99 C
549 30-04-2019 21:40:00 15.2 C 66 % 8.9 C
550 30-04-2019 21:45:00 15 C 67 % 8.93 C
Sensor: Nr:Datum:Temp:Feuchte:Taupunkt:
Aussen-T/F 551 30-04-2019 21:50:00 14.9 C 68 % 9.05 C
552 30-04-2019 21:55:00 14.7 C 69 % 9.08 C
553 30-04-2019 22:00:00 14.5 C 70 % 9.1 C
554 30-04-2019 22:05:00 14.4 C 70 % 9 C
555 30-04-2019 22:10:00 14.4 C 69 % 8.79 C
556 30-04-2019 22:15:00 14.5 C 69 % 8.89 C
557 30-04-2019 22:20:00 14.5 C 69 % 8.89 C
558 30-04-2019 22:25:00 14.4 C 71 % 9.21 C
559 30-04-2019 22:30:00 14.3 C 71 % 9.12 C
560 30-04-2019 22:35:00 14.2 C 71 % 9.02 C
561 30-04-2019 22:40:00 14.1 C 72 % 9.13 C
562 30-04-2019 22:45:00 13.9 C 72 % 8.94 C
563 30-04-2019 22:50:00 13.8 C 73 % 9.05 C
564 30-04-2019 22:55:00 13.7 C 73 % 8.95 C
565 30-04-2019 23:00:00 13.6 C 74 % 9.06 C
566 30-04-2019 23:05:00 13.5 C 74 % 8.96 C
567 30-04-2019 23:10:00 13.3 C 75 % 8.97 C
568 30-04-2019 23:15:00 13.1 C 76 % 8.97 C
569 30-04-2019 23:20:00 12.8 C 78 % 9.06 C
570 30-04-2019 23:25:00 12.7 C 78 % 8.97 C
571 30-04-2019 23:30:00 12.6 C 79 % 9.06 C
572 30-04-2019 23:35:00 12.4 C 79 % 8.86 C
573 30-04-2019 23:40:00 12.2 C 80 % 8.86 C
574 30-04-2019 23:45:00 12.1 C 80 % 8.76 C
575 30-04-2019 23:50:00 11.9 C 81 % 8.75 C
Sensor: Nr:Datum:Temp:Feuchte:Taupunkt:
Aussen-T/F 576 30-04-2019 23:55:00 11.7 C 81 % 8.55 C
577 01-05-2019 00:00:00 11.6 C 82 % 8.64 C
578 01-05-2019 00:05:00 11.4 C 82 % 8.44 C
579 01-05-2019 00:10:00 11.3 C 83 % 8.52 C
580 01-05-2019 00:15:00 11.3 C 83 % 8.52 C
581 01-05-2019 00:20:00 11.3 C 84 % 8.7 C
582 01-05-2019 00:25:00 11.2 C 83 % 8.42 C
583 01-05-2019 00:30:00 11.2 C 84 % 8.6 C
584 01-05-2019 00:35:00 11.3 C 83 % 8.52 C
585 01-05-2019 00:40:00 11.3 C 83 % 8.52 C
586 01-05-2019 00:45:00 11.2 C 83 % 8.42 C
587 01-05-2019 00:50:00 11.1 C 83 % 8.33 C
588 01-05-2019 00:55:00 10.9 C 84 % 8.31 C
589 01-05-2019 01:00:00 10.7 C 84 % 8.11 C
590 01-05-2019 01:05:00 10.6 C 85 % 8.19 C
591 01-05-2019 01:10:00 10.6 C 85 % 8.19 C
592 01-05-2019 01:15:00 10.6 C 85 % 8.19 C
593 01-05-2019 01:20:00 10.6 C 85 % 8.19 C
594 01-05-2019 01:25:00 10.6 C 85 % 8.19 C
595 01-05-2019 01:30:00 10.3 C 85 % 7.89 C
596 01-05-2019 01:35:00 10.2 C 86 % 7.97 C
597 01-05-2019 01:40:00 10.2 C 86 % 7.97 C
598 01-05-2019 01:45:00 10.1 C 86 % 7.87 C
599 01-05-2019 01:50:00 10 C 87 % 7.94 C
600 01-05-2019 01:55:00 9.9 C 87 % 7.84 C
Sensor: Nr:Datum:Temp:Feuchte:Taupunkt:
Aussen-T/F 601 01-05-2019 02:00:00 9.8 C 87 % 7.74 C
602 01-05-2019 02:05:00 9.7 C 87 % 7.64 C
603 01-05-2019 02:10:00 9.6 C 87 % 7.55 C
604 01-05-2019 02:15:00 9.5 C 87 % 7.45 C
605 01-05-2019 02:20:00 9.4 C 88 % 7.52 C
606 01-05-2019 02:25:00 9.3 C 88 % 7.42 C
607 01-05-2019 02:30:00 9.2 C 88 % 7.32 C
608 01-05-2019 02:35:00 9.1 C 89 % 7.39 C
609 01-05-2019 02:40:00 9 C 89 % 7.29 C
610 01-05-2019 02:45:00 8.9 C 89 % 7.19 C
611 01-05-2019 02:50:00 8.9 C 90 % 7.35 C
612 01-05-2019 02:55:00 8.8 C 90 % 7.25 C
613 01-05-2019 03:00:00 8.8 C 90 % 7.25 C
614 01-05-2019 03:05:00 8.7 C 90 % 7.15 C
615 01-05-2019 03:10:00 8.6 C 90 % 7.06 C
616 01-05-2019 03:15:00 8.5 C 90 % 6.96 C
617 01-05-2019 03:20:00 8.5 C 91 % 7.12 C
618 01-05-2019 03:25:00 8.4 C 91 % 7.02 C
619 01-05-2019 03:30:00 8.4 C 91 % 7.02 C
620 01-05-2019 03:35:00 8.4 C 91 % 7.02 C
621 01-05-2019 03:40:00 8.3 C 91 % 6.92 C
622 01-05-2019 03:45:00 8.3 C 91 % 6.92 C
623 01-05-2019 03:50:00 8.3 C 92 % 7.08 C
624 01-05-2019 03:55:00 8.3 C 92 % 7.08 C
625 01-05-2019 04:00:00 8.3 C 92 % 7.08 C
Sensor: Nr:Datum:Temp:Feuchte:Taupunkt:
Aussen-T/F 626 01-05-2019 04:05:00 8.3 C 92 % 7.08 C
627 01-05-2019 04:10:00 8.3 C 92 % 7.08 C
628 01-05-2019 04:15:00 8.3 C 92 % 7.08 C
629 01-05-2019 04:20:00 8.3 C 92 % 7.08 C
630 01-05-2019 04:25:00 8.2 C 92 % 6.98 C
631 01-05-2019 04:30:00 8.1 C 92 % 6.88 C
632 01-05-2019 04:35:00 8 C 92 % 6.78 C
633 01-05-2019 04:40:00 7.9 C 92 % 6.68 C
634 01-05-2019 04:45:00 7.8 C 91 % 6.43 C
635 01-05-2019 04:50:00 7.7 C 91 % 6.33 C
636 01-05-2019 04:55:00 7.7 C 91 % 6.33 C
637 01-05-2019 05:00:00 7.6 C 92 % 6.39 C
638 01-05-2019 05:05:00 7.4 C 92 % 6.19 C
639 01-05-2019 05:10:00 7.3 C 92 % 6.09 C
640 01-05-2019 05:15:00 7.2 C 92 % 5.99 C
641 01-05-2019 05:20:00 7.1 C 92 % 5.89 C
642 01-05-2019 05:25:00 6.9 C 92 % 5.69 C
643 01-05-2019 05:30:00 6.8 C 92 % 5.59 C
644 01-05-2019 05:35:00 6.7 C 92 % 5.49 C
645 01-05-2019 05:40:00 6.7 C 92 % 5.49 C
646 01-05-2019 05:45:00 6.6 C 93 % 5.55 C
647 01-05-2019 05:50:00 6.6 C 93 % 5.55 C
648 01-05-2019 05:55:00 6.6 C 93 % 5.55 C
649 01-05-2019 06:00:00 6.4 C 93 % 5.35 C
650 01-05-2019 06:05:00 6.3 C 93 % 5.25 C
Sensor: Nr:Datum:Temp:Feuchte:Taupunkt:
Aussen-T/F 651 01-05-2019 06:10:00 6.3 C 93 % 5.25 C
652 01-05-2019 06:15:00 6.3 C 93 % 5.25 C
653 01-05-2019 06:20:00 6.3 C 94 % 5.41 C
654 01-05-2019 06:25:00 6.2 C 93 % 5.15 C
655 01-05-2019 06:30:00 6.2 C 94 % 5.31 C
656 01-05-2019 06:35:00 6.3 C 94 % 5.41 C
657 01-05-2019 06:40:00 6.3 C 94 % 5.41 C
658 01-05-2019 06:45:00 6.3 C 94 % 5.41 C
659 01-05-2019 06:50:00 6.2 C 94 % 5.31 C
660 01-05-2019 06:55:00 6.2 C 94 % 5.31 C
661 01-05-2019 07:00:00 6.3 C 94 % 5.41 C
662 01-05-2019 07:05:00 6.3 C 95 % 5.56 C
663 01-05-2019 07:10:00 6.4 C 95 % 5.66 C
664 01-05-2019 07:15:00 6.6 C 95 % 5.86 C
665 01-05-2019 07:20:00 6.7 C 95 % 5.96 C
666 01-05-2019 07:25:00 6.8 C 95 % 6.06 C
667 01-05-2019 07:30:00 6.8 C 95 % 6.06 C
668 01-05-2019 07:35:00 6.9 C 95 % 6.16 C
669 01-05-2019 07:40:00 7.1 C 95 % 6.35 C
670 01-05-2019 07:45:00 7.1 C 95 % 6.35 C
671 01-05-2019 07:50:00 7.2 C 95 % 6.45 C
672 01-05-2019 07:55:00 7.3 C 95 % 6.55 C
673 01-05-2019 08:00:00 7.3 C 95 % 6.55 C
674 01-05-2019 08:05:00 7.5 C 95 % 6.75 C
675 01-05-2019 08:10:00 7.5 C 95 % 6.75 C
Sensor: Nr:Datum:Temp:Feuchte:Taupunkt:
Aussen-T/F 676 01-05-2019 08:15:00 7.6 C 95 % 6.85 C
677 01-05-2019 08:20:00 7.7 C 95 % 6.95 C
678 01-05-2019 08:25:00 7.9 C 95 % 7.15 C
679 01-05-2019 08:30:00 8.1 C 95 % 7.35 C
680 01-05-2019 08:35:00 8.1 C 95 % 7.35 C
681 01-05-2019 08:40:00 8.2 C 95 % 7.45 C
682 01-05-2019 08:45:00 8.2 C 95 % 7.45 C
683 01-05-2019 08:50:00 8.3 C 94 % 7.39 C
684 01-05-2019 08:55:00 8.4 C 94 % 7.49 C
685 01-05-2019 09:00:00 8.4 C 94 % 7.49 C
686 01-05-2019 09:05:00 8.6 C 94 % 7.69 C
687 01-05-2019 09:10:00 8.6 C 94 % 7.69 C
688 01-05-2019 09:15:00 8.7 C 93 % 7.63 C
689 01-05-2019 09:20:00 8.7 C 93 % 7.63 C
690 01-05-2019 09:25:00 8.8 C 93 % 7.73 C
691 01-05-2019 09:30:00 8.9 C 93 % 7.83 C
692 01-05-2019 09:35:00 9.1 C 93 % 8.03 C
693 01-05-2019 09:40:00 9.1 C 92 % 7.87 C
694 01-05-2019 09:45:00 9.2 C 92 % 7.97 C
695 01-05-2019 09:50:00 9.2 C 92 % 7.97 C
696 01-05-2019 09:55:00 9.4 C 92 % 8.17 C
697 01-05-2019 10:00:00 9.6 C 92 % 8.37 C
698 01-05-2019 10:05:00 9.7 C 92 % 8.46 C
699 01-05-2019 10:10:00 9.9 C 92 % 8.66 C
700 01-05-2019 10:15:00 10.1 C 90 % 8.54 C
Sensor: Nr:Datum:Temp:Feuchte:Taupunkt:
Aussen-T/F 701 01-05-2019 10:20:00 10 C 89 % 8.27 C
702 01-05-2019 10:25:00 10 C 90 % 8.44 C
703 01-05-2019 10:30:00 10.1 C 90 % 8.54 C
704 01-05-2019 10:35:00 10.3 C 89 % 8.57 C
705 01-05-2019 10:40:00 10.4 C 89 % 8.67 C
706 01-05-2019 10:45:00 10.4 C 88 % 8.5 C
707 01-05-2019 10:50:00 10.4 C 88 % 8.5 C
708 01-05-2019 10:55:00 10.5 C 88 % 8.6 C
709 01-05-2019 11:00:00 10.5 C 88 % 8.6 C
710 01-05-2019 11:05:00 10.6 C 88 % 8.7 C
711 01-05-2019 11:10:00 10.7 C 88 % 8.8 C
712 01-05-2019 11:15:00 10.8 C 87 % 8.73 C
713 01-05-2019 11:20:00 10.9 C 87 % 8.82 C
714 01-05-2019 11:25:00 11.2 C 87 % 9.12 C
715 01-05-2019 11:30:00 11.4 C 87 % 9.32 C
716 01-05-2019 11:35:00 11.7 C 86 % 9.44 C
717 01-05-2019 11:40:00 11.9 C 86 % 9.64 C
718 01-05-2019 11:45:00 12.2 C 85 % 9.76 C
719 01-05-2019 11:50:00 12.4 C 84 % 9.78 C
720 01-05-2019 11:55:00 12.6 C 82 % 9.61 C
721 01-05-2019 12:00:00 12.7 C 83 % 9.89 C
722 01-05-2019 12:05:00 12.9 C 82 % 9.9 C
723 01-05-2019 12:10:00 13.2 C 82 % 10.2 C
724 01-05-2019 12:15:00 13.3 C 81 % 10.11 C
725 01-05-2019 12:20:00 13.6 C 80 % 10.22 C
Sensor: Nr:Datum:Temp:Feuchte:Taupunkt:
Aussen-T/F 726 01-05-2019 12:25:00 13.7 C 79 % 10.13 C
727 01-05-2019 12:30:00 13.9 C 79 % 10.32 C
728 01-05-2019 12:35:00 14.2 C 78 % 10.42 C
729 01-05-2019 12:40:00 14.3 C 77 % 10.33 C
730 01-05-2019 12:45:00 14.5 C 77 % 10.52 C
731 01-05-2019 12:50:00 14.6 C 76 % 10.42 C
732 01-05-2019 12:55:00 14.8 C 75 % 10.42 C
733 01-05-2019 13:00:00 15 C 75 % 10.61 C
734 01-05-2019 13:05:00 15.3 C 73 % 10.49 C
735 01-05-2019 13:10:00 15.5 C 72 % 10.48 C
736 01-05-2019 13:15:00 15.7 C 71 % 10.46 C
737 01-05-2019 13:20:00 15.8 C 70 % 10.34 C
738 01-05-2019 13:25:00 15.9 C 67 % 9.79 C
739 01-05-2019 13:30:00 16.2 C 66 % 9.85 C
740 01-05-2019 13:35:00 16.3 C 62 % 9.01 C
741 01-05-2019 13:40:00 16.5 C 62 % 9.2 C
742 01-05-2019 13:45:00 16.6 C 58 % 8.31 C
743 01-05-2019 13:50:00 16.8 C 61 % 9.24 C
744 01-05-2019 13:55:00 16.8 C 60 % 9 C
745 01-05-2019 14:00:00 16.9 C 60 % 9.09 C
746 01-05-2019 14:05:00 17.1 C 59 % 9.03 C
747 01-05-2019 14:10:00 17.2 C 58 % 8.87 C
748 01-05-2019 14:15:00 17.3 C 56 % 8.45 C
749 01-05-2019 14:20:00 17.4 C 58 % 9.06 C
750 01-05-2019 14:25:00 17.6 C 56 % 8.73 C
Sensor: Nr:Datum:Temp:Feuchte:Taupunkt:
Aussen-T/F 751 01-05-2019 14:30:00 17.8 C 53 % 8.1 C
752 01-05-2019 14:35:00 17.9 C 52 % 7.91 C
753 01-05-2019 14:40:00 18.1 C 51 % 7.81 C
754 01-05-2019 14:45:00 18.3 C 51 % 8 C
755 01-05-2019 14:50:00 18.3 C 53 % 8.56 C
756 01-05-2019 14:55:00 18.4 C 54 % 8.93 C
757 01-05-2019 15:00:00 18.5 C 50 % 7.89 C
758 01-05-2019 15:05:00 18.6 C 51 % 8.27 C
759 01-05-2019 15:10:00 18.7 C 53 % 8.93 C
760 01-05-2019 15:15:00 18.9 C 49 % 7.96 C
761 01-05-2019 15:20:00 18.9 C 50 % 8.26 C
762 01-05-2019 15:25:00 19.1 C 49 % 8.15 C
763 01-05-2019 15:30:00 19.4 C 49 % 8.42 C
764 01-05-2019 15:35:00 19.6 C 46 % 7.67 C
765 01-05-2019 15:40:00 19.8 C 49 % 8.79 C
766 01-05-2019 15:45:00 20.1 C 46 % 8.13 C
767 01-05-2019 15:50:00 20.2 C 46 % 8.22 C
768 01-05-2019 15:55:00 20.4 C 47 % 8.72 C
769 01-05-2019 16:00:00 20.6 C 44 % 7.93 C
770 01-05-2019 16:05:00 20.8 C 46 % 8.77 C
771 01-05-2019 16:10:00 21.1 C 43 % 8.04 C
772 01-05-2019 16:15:00 21 C 45 % 8.62 C
773 01-05-2019 16:20:00 21.3 C 43 % 8.22 C
774 01-05-2019 16:25:00 21.3 C 43 % 8.22 C
775 01-05-2019 16:30:00 21.6 C 43 % 8.49 C
Sensor: Nr:Datum:Temp:Feuchte:Taupunkt:
Aussen-T/F 776 01-05-2019 16:35:00 21.7 C 43 % 8.58 C
777 01-05-2019 16:40:00 21.8 C 43 % 8.67 C
778 01-05-2019 16:45:00 21.6 C 44 % 8.83 C
779 01-05-2019 16:50:00 21.4 C 45 % 8.99 C
780 01-05-2019 16:55:00 21.6 C 44 % 8.83 C
781 01-05-2019 17:00:00 21.7 C 45 % 9.26 C
782 01-05-2019 17:05:00 21.7 C 43 % 8.58 C
783 01-05-2019 17:10:00 21.7 C 45 % 9.26 C
784 01-05-2019 17:15:00 21.7 C 42 % 8.24 C
785 01-05-2019 17:20:00 21.5 C 44 % 8.74 C
786 01-05-2019 17:25:00 21.6 C 43 % 8.49 C
787 01-05-2019 17:30:00 21.5 C 43 % 8.4 C
788 01-05-2019 17:35:00 21.3 C 45 % 8.89 C
789 01-05-2019 17:40:00 21.3 C 45 % 8.89 C
790 01-05-2019 17:45:00 21.3 C 46 % 9.22 C
791 01-05-2019 17:50:00 21.3 C 45 % 8.89 C
792 01-05-2019 17:55:00 21.2 C 45 % 8.8 C
793 01-05-2019 18:00:00 20.9 C 49 % 9.79 C
794 01-05-2019 18:05:00 20.8 C 51 % 10.3 C
795 01-05-2019 18:10:00 20.8 C 50 % 10 C
796 01-05-2019 18:15:00 20.8 C 52 % 10.59 C
797 01-05-2019 18:20:00 20.7 C 51 % 10.21 C
798 01-05-2019 18:25:00 20.6 C 52 % 10.41 C
799 01-05-2019 18:30:00 20.4 C 52 % 10.22 C
800 01-05-2019 18:35:00 20.2 C 54 % 10.6 C
Sensor: Nr:Datum:Temp:Feuchte:Taupunkt:
Aussen-T/F 801 01-05-2019 18:40:00 20 C 54 % 10.42 C
802 01-05-2019 18:45:00 19.7 C 54 % 10.14 C
803 01-05-2019 18:50:00 19.6 C 56 % 10.59 C
804 01-05-2019 18:55:00 19.4 C 55 % 10.13 C
805 01-05-2019 19:00:00 19.4 C 56 % 10.4 C
806 01-05-2019 19:05:00 19.2 C 56 % 10.22 C
807 01-05-2019 19:10:00 19 C 57 % 10.3 C
808 01-05-2019 19:15:00 18.8 C 57 % 10.11 C
809 01-05-2019 19:20:00 18.6 C 58 % 10.18 C
810 01-05-2019 19:25:00 18.3 C 58 % 9.9 C
811 01-05-2019 19:30:00 18 C 58 % 9.62 C
812 01-05-2019 19:35:00 17.7 C 59 % 9.59 C
813 01-05-2019 19:40:00 17.6 C 60 % 9.75 C
814 01-05-2019 19:45:00 17.5 C 60 % 9.66 C
815 01-05-2019 19:50:00 17.3 C 59 % 9.22 C
816 01-05-2019 19:55:00 17.2 C 61 % 9.62 C
817 01-05-2019 20:00:00 17.1 C 59 % 9.03 C
818 01-05-2019 20:05:00 16.9 C 60 % 9.09 C
819 01-05-2019 20:10:00 16.7 C 63 % 9.63 C
820 01-05-2019 20:15:00 16.4 C 62 % 9.11 C
821 01-05-2019 20:20:00 16.2 C 62 % 8.92 C
822 01-05-2019 20:25:00 15.8 C 63 % 8.78 C
823 01-05-2019 20:30:00 15.5 C 64 % 8.73 C
824 01-05-2019 20:35:00 15.2 C 64 % 8.44 C
825 01-05-2019 20:40:00 14.9 C 65 % 8.39 C
Sensor: Nr:Datum:Temp:Feuchte:Taupunkt:
Aussen-T/F 826 01-05-2019 20:45:00 14.7 C 66 % 8.42 C
827 01-05-2019 20:50:00 14.3 C 65 % 7.82 C
828 01-05-2019 20:55:00 14.2 C 67 % 8.17 C
829 01-05-2019 21:00:00 13.9 C 69 % 8.31 C
830 01-05-2019 21:05:00 13.6 C 71 % 8.45 C
831 01-05-2019 21:10:00 13.4 C 73 % 8.66 C
832 01-05-2019 21:15:00 13.3 C 73 % 8.57 C
833 01-05-2019 21:20:00 13.3 C 74 % 8.77 C
834 01-05-2019 21:25:00 13.4 C 74 % 8.87 C
835 01-05-2019 21:30:00 13.6 C 74 % 9.06 C
836 01-05-2019 21:35:00 13.6 C 74 % 9.06 C
837 01-05-2019 21:40:00 13.5 C 74 % 8.96 C
838 01-05-2019 21:45:00 13.6 C 74 % 9.06 C
839 01-05-2019 21:50:00 13.6 C 74 % 9.06 C
840 01-05-2019 21:55:00 13.6 C 75 % 9.26 C
841 01-05-2019 22:00:00 13.6 C 75 % 9.26 C
842 01-05-2019 22:05:00 13.4 C 75 % 9.06 C
843 01-05-2019 22:10:00 13.4 C 75 % 9.06 C
844 01-05-2019 22:15:00 13.4 C 75 % 9.06 C
845 01-05-2019 22:20:00 13.3 C 76 % 9.16 C
846 01-05-2019 22:25:00 13.1 C 77 % 9.16 C
847 01-05-2019 22:30:00 12.8 C 78 % 9.06 C
848 01-05-2019 22:35:00 12.5 C 79 % 8.96 C
849 01-05-2019 22:40:00 12.3 C 80 % 8.95 C
850 01-05-2019 22:45:00 12 C 81 % 8.84 C
Sensor: Nr:Datum:Temp:Feuchte:Taupunkt:
Aussen-T/F 851 01-05-2019 22:50:00 11.8 C 82 % 8.83 C
852 01-05-2019 22:55:00 11.6 C 82 % 8.64 C
853 01-05-2019 23:00:00 11.4 C 83 % 8.62 C
854 01-05-2019 23:05:00 11.3 C 84 % 8.7 C
855 01-05-2019 23:10:00 11.2 C 84 % 8.6 C
856 01-05-2019 23:15:00 11.1 C 85 % 8.68 C
857 01-05-2019 23:20:00 10.9 C 85 % 8.48 C
858 01-05-2019 23:25:00 10.8 C 85 % 8.38 C
859 01-05-2019 23:30:00 10.7 C 86 % 8.46 C
860 01-05-2019 23:35:00 10.6 C 86 % 8.36 C
861 01-05-2019 23:40:00 10.6 C 86 % 8.36 C
862 01-05-2019 23:45:00 10.4 C 87 % 8.33 C
863 01-05-2019 23:50:00 10.4 C 87 % 8.33 C
864 01-05-2019 23:55:00 10.3 C 87 % 8.23 C
865 02-05-2019 00:00:00 10.3 C 87 % 8.23 C
866 02-05-2019 00:05:00 10.2 C 87 % 8.14 C
867 02-05-2019 00:10:00 10.2 C 88 % 8.3 C
868 02-05-2019 00:15:00 10.2 C 88 % 8.3 C
869 02-05-2019 00:20:00 10.1 C 88 % 8.21 C
870 02-05-2019 00:25:00 10 C 88 % 8.11 C
871 02-05-2019 00:30:00 9.9 C 89 % 8.17 C
872 02-05-2019 00:35:00 9.9 C 89 % 8.17 C
873 02-05-2019 00:40:00 9.8 C 89 % 8.08 C
874 02-05-2019 00:45:00 9.8 C 89 % 8.08 C
875 02-05-2019 00:50:00 9.7 C 89 % 7.98 C
Sensor: Nr:Datum:Temp:Feuchte:Taupunkt:
Aussen-T/F 876 02-05-2019 00:55:00 9.7 C 89 % 7.98 C
877 02-05-2019 01:00:00 9.6 C 89 % 7.88 C
878 02-05-2019 01:05:00 9.5 C 89 % 7.78 C
879 02-05-2019 01:10:00 9.3 C 90 % 7.75 C
880 02-05-2019 01:15:00 9.2 C 89 % 7.48 C
881 02-05-2019 01:20:00 9.1 C 90 % 7.55 C
882 02-05-2019 01:25:00 8.9 C 90 % 7.35 C
883 02-05-2019 01:30:00 8.8 C 90 % 7.25 C
884 02-05-2019 01:35:00 8.7 C 91 % 7.32 C
885 02-05-2019 01:40:00 8.7 C 91 % 7.32 C
886 02-05-2019 01:45:00 8.6 C 92 % 7.38 C
887 02-05-2019 01:50:00 8.6 C 92 % 7.38 C
888 02-05-2019 01:55:00 8.6 C 92 % 7.38 C
889 02-05-2019 02:00:00 8.4 C 92 % 7.18 C
890 02-05-2019 02:05:00 8.4 C 92 % 7.18 C
891 02-05-2019 02:10:00 8.3 C 92 % 7.08 C
892 02-05-2019 02:15:00 8.3 C 92 % 7.08 C
893 02-05-2019 02:20:00 8.3 C 93 % 7.24 C
894 02-05-2019 02:25:00 8.2 C 93 % 7.14 C
895 02-05-2019 02:30:00 8.2 C 93 % 7.14 C
896 02-05-2019 02:35:00 8.2 C 93 % 7.14 C
897 02-05-2019 02:40:00 8.2 C 93 % 7.14 C
898 02-05-2019 02:45:00 8.1 C 93 % 7.04 C
899 02-05-2019 02:50:00 8.1 C 93 % 7.04 C
900 02-05-2019 02:55:00 8.1 C 94 % 7.19 C
Sensor: Nr:Datum:Temp:Feuchte:Taupunkt:
Aussen-T/F 901 02-05-2019 03:00:00 8 C 93 % 6.94 C
902 02-05-2019 03:05:00 7.9 C 94 % 7 C
903 02-05-2019 03:10:00 7.9 C 93 % 6.84 C
904 02-05-2019 03:15:00 7.9 C 93 % 6.84 C
905 02-05-2019 03:20:00 7.9 C 94 % 7 C
906 02-05-2019 03:25:00 7.8 C 94 % 6.9 C
907 02-05-2019 03:30:00 7.8 C 94 % 6.9 C
908 02-05-2019 03:35:00 7.7 C 94 % 6.8 C
909 02-05-2019 03:40:00 7.6 C 93 % 6.54 C
910 02-05-2019 03:45:00 7.5 C 93 % 6.44 C
911 02-05-2019 03:50:00 7.4 C 94 % 6.5 C
912 02-05-2019 03:55:00 7.4 C 94 % 6.5 C
913 02-05-2019 04:00:00 7.3 C 94 % 6.4 C
914 02-05-2019 04:05:00 7.3 C 94 % 6.4 C
915 02-05-2019 04:10:00 7.2 C 94 % 6.3 C
916 02-05-2019 04:15:00 7.2 C 94 % 6.3 C
917 02-05-2019 04:20:00 7.1 C 94 % 6.2 C
918 02-05-2019 04:25:00 7.1 C 94 % 6.2 C
919 02-05-2019 04:30:00 7 C 94 % 6.1 C
920 02-05-2019 04:35:00 6.9 C 94 % 6 C
921 02-05-2019 04:40:00 6.9 C 94 % 6 C
922 02-05-2019 04:45:00 6.8 C 94 % 5.9 C
923 02-05-2019 04:50:00 6.8 C 94 % 5.9 C
924 02-05-2019 04:55:00 6.7 C 94 % 5.8 C
925 02-05-2019 05:00:00 6.6 C 94 % 5.71 C
Sensor: Nr:Datum:Temp:Feuchte:Taupunkt:
Aussen-T/F 926 02-05-2019 05:05:00 6.6 C 94 % 5.71 C
927 02-05-2019 05:10:00 6.6 C 94 % 5.71 C
928 02-05-2019 05:15:00 6.4 C 94 % 5.51 C
929 02-05-2019 05:20:00 6.4 C 94 % 5.51 C
930 02-05-2019 05:25:00 6.3 C 94 % 5.41 C
931 02-05-2019 05:30:00 6.3 C 94 % 5.41 C
932 02-05-2019 05:35:00 6.2 C 94 % 5.31 C
933 02-05-2019 05:40:00 6.2 C 95 % 5.46 C
934 02-05-2019 05:45:00 6.1 C 95 % 5.36 C
935 02-05-2019 05:50:00 6.1 C 94 % 5.21 C
936 02-05-2019 05:55:00 6.1 C 95 % 5.36 C
937 02-05-2019 06:00:00 6.1 C 95 % 5.36 C
938 02-05-2019 06:05:00 6 C 95 % 5.26 C
939 02-05-2019 06:10:00 5.9 C 95 % 5.16 C
940 02-05-2019 06:15:00 5.9 C 95 % 5.16 C
941 02-05-2019 06:20:00 5.8 C 95 % 5.06 C
942 02-05-2019 06:25:00 5.8 C 95 % 5.06 C
943 02-05-2019 06:30:00 5.8 C 95 % 5.06 C
944 02-05-2019 06:35:00 5.8 C 95 % 5.06 C
945 02-05-2019 06:40:00 5.8 C 95 % 5.06 C
946 02-05-2019 06:45:00 5.9 C 95 % 5.16 C
947 02-05-2019 06:50:00 5.9 C 95 % 5.16 C
948 02-05-2019 06:55:00 6 C 95 % 5.26 C
949 02-05-2019 07:00:00 6.1 C 96 % 5.51 C
950 02-05-2019 07:05:00 6.2 C 96 % 5.61 C
Sensor: Nr:Datum:Temp:Feuchte:Taupunkt:
Aussen-T/F 951 02-05-2019 07:10:00 6.4 C 96 % 5.81 C
952 02-05-2019 07:15:00 6.6 C 96 % 6.01 C
953 02-05-2019 07:20:00 6.7 C 96 % 6.11 C
954 02-05-2019 07:25:00 6.8 C 96 % 6.21 C
955 02-05-2019 07:30:00 6.9 C 96 % 6.31 C
956 02-05-2019 07:35:00 7.1 C 96 % 6.51 C
957 02-05-2019 07:40:00 7.1 C 96 % 6.51 C
958 02-05-2019 07:45:00 7.2 C 96 % 6.61 C
959 02-05-2019 07:50:00 7.4 C 96 % 6.8 C
960 02-05-2019 07:55:00 7.6 C 96 % 7 C
961 02-05-2019 08:00:00 7.7 C 96 % 7.1 C
962 02-05-2019 08:05:00 7.8 C 96 % 7.2 C
963 02-05-2019 08:10:00 7.9 C 96 % 7.3 C
964 02-05-2019 08:15:00 8.1 C 96 % 7.5 C
965 02-05-2019 08:20:00 8.3 C 96 % 7.7 C
966 02-05-2019 08:25:00 8.4 C 96 % 7.8 C
967 02-05-2019 08:30:00 8.6 C 96 % 8 C
968 02-05-2019 08:35:00 8.6 C 96 % 8 C
969 02-05-2019 08:40:00 8.7 C 96 % 8.1 C
970 02-05-2019 08:45:00 8.6 C 95 % 7.85 C
971 02-05-2019 08:50:00 8.6 C 95 % 7.85 C
972 02-05-2019 08:55:00 8.6 C 95 % 7.85 C
973 02-05-2019 09:00:00 8.7 C 95 % 7.94 C
974 02-05-2019 09:05:00 8.7 C 94 % 7.79 C
975 02-05-2019 09:10:00 8.8 C 95 % 8.04 C
Sensor: Nr:Datum:Temp:Feuchte:Taupunkt:
Aussen-T/F 976 02-05-2019 09:15:00 8.9 C 94 % 7.99 C
977 02-05-2019 09:20:00 8.9 C 93 % 7.83 C
978 02-05-2019 09:25:00 9 C 93 % 7.93 C
979 02-05-2019 09:30:00 9.1 C 92 % 7.87 C
980 02-05-2019 09:35:00 9.2 C 92 % 7.97 C
981 02-05-2019 09:40:00 9.2 C 91 % 7.81 C
982 02-05-2019 09:45:00 9.3 C 90 % 7.75 C
983 02-05-2019 09:50:00 9.4 C 90 % 7.85 C
984 02-05-2019 09:55:00 9.7 C 89 % 7.98 C
985 02-05-2019 10:00:00 9.9 C 88 % 8.01 C
986 02-05-2019 10:05:00 10.2 C 87 % 8.14 C
987 02-05-2019 10:10:00 10.3 C 85 % 7.89 C
988 02-05-2019 10:15:00 10.4 C 85 % 7.99 C
989 02-05-2019 10:20:00 10.6 C 83 % 7.84 C
990 02-05-2019 10:25:00 10.6 C 82 % 7.66 C
991 02-05-2019 10:30:00 10.8 C 81 % 7.67 C
992 02-05-2019 10:35:00 10.9 C 80 % 7.59 C
993 02-05-2019 10:40:00 11 C 82 % 8.05 C
994 02-05-2019 10:45:00 11.2 C 80 % 7.88 C
995 02-05-2019 10:50:00 11.3 C 79 % 7.8 C
996 02-05-2019 10:55:00 11.5 C 79 % 7.99 C
997 02-05-2019 11:00:00 11.7 C 78 % 8 C
998 02-05-2019 11:05:00 11.8 C 79 % 8.28 C
999 02-05-2019 11:10:00 11.9 C 77 % 8 C
1000 02-05-2019 11:15:00 12.1 C 78 % 8.38 C
Sensor: Nr:Datum:Temp:Feuchte:Taupunkt:
Aussen-T/F 1001 02-05-2019 11:20:00 12.2 C 77 % 8.29 C
1002 02-05-2019 11:25:00 12.2 C 77 % 8.29 C
1003 02-05-2019 11:30:00 12.3 C 75 % 8 C
1004 02-05-2019 11:35:00 12.3 C 76 % 8.2 C
1005 02-05-2019 11:40:00 12.3 C 76 % 8.2 C
1006 02-05-2019 11:45:00 12.4 C 75 % 8.1 C
1007 02-05-2019 11:50:00 12.3 C 75 % 8 C
1008 02-05-2019 11:55:00 12.4 C 76 % 8.29 C
1009 02-05-2019 12:00:00 12.4 C 75 % 8.1 C
1010 02-05-2019 12:05:00 12.5 C 74 % 8 C
1011 02-05-2019 12:10:00 12.5 C 75 % 8.19 C
1012 02-05-2019 12:15:00 12.7 C 76 % 8.58 C
1013 02-05-2019 12:20:00 12.8 C 74 % 8.29 C
1014 02-05-2019 12:25:00 12.9 C 74 % 8.38 C
1015 02-05-2019 12:30:00 12.9 C 74 % 8.38 C
1016 02-05-2019 12:35:00 13 C 75 % 8.68 C
1017 02-05-2019 12:40:00 13.2 C 74 % 8.67 C
1018 02-05-2019 12:45:00 13.3 C 73 % 8.57 C
1019 02-05-2019 12:50:00 13.4 C 72 % 8.46 C
1020 02-05-2019 12:55:00 13.5 C 72 % 8.56 C
1021 02-05-2019 13:00:00 13.5 C 71 % 8.35 C
1022 02-05-2019 13:05:00 13.6 C 71 % 8.45 C
1023 02-05-2019 13:10:00 13.7 C 72 % 8.75 C
1024 02-05-2019 13:15:00 13.9 C 70 % 8.53 C
1025 02-05-2019 13:20:00 14.1 C 70 % 8.72 C
Sensor: Nr:Datum:Temp:Feuchte:Taupunkt:
Aussen-T/F 1026 02-05-2019 13:25:00 14.2 C 69 % 8.6 C
1027 02-05-2019 13:30:00 14.3 C 69 % 8.7 C
1028 02-05-2019 13:35:00 14.3 C 68 % 8.48 C
1029 02-05-2019 13:40:00 14.3 C 69 % 8.7 C
1030 02-05-2019 13:45:00 14.5 C 68 % 8.67 C
1031 02-05-2019 13:50:00 14.6 C 68 % 8.77 C
1032 02-05-2019 13:55:00 14.8 C 69 % 9.17 C
1033 02-05-2019 14:00:00 14.9 C 68 % 9.05 C
1034 02-05-2019 14:05:00 15.2 C 67 % 9.12 C
1035 02-05-2019 14:10:00 15.3 C 66 % 8.99 C
1036 02-05-2019 14:15:00 15.4 C 65 % 8.86 C
1037 02-05-2019 14:20:00 15.6 C 65 % 9.05 C
1038 02-05-2019 14:25:00 15.7 C 65 % 9.15 C
1039 02-05-2019 14:30:00 15.8 C 65 % 9.24 C
1040 02-05-2019 14:35:00 16 C 66 % 9.66 C
1041 02-05-2019 14:40:00 16.3 C 66 % 9.94 C
1042 02-05-2019 14:45:00 16.6 C 64 % 9.77 C
1043 02-05-2019 14:50:00 16.7 C 62 % 9.39 C
1044 02-05-2019 14:55:00 16.7 C 64 % 9.86 C
1045 02-05-2019 15:00:00 16.7 C 62 % 9.39 C
1046 02-05-2019 15:05:00 16.7 C 62 % 9.39 C
1047 02-05-2019 15:10:00 16.7 C 64 % 9.86 C
1048 02-05-2019 15:15:00 16.6 C 62 % 9.3 C
1049 02-05-2019 15:20:00 16.4 C 61 % 8.87 C
1050 02-05-2019 15:25:00 16.3 C 62 % 9.01 C
Sensor: Nr:Datum:Temp:Feuchte:Taupunkt:
Aussen-T/F 1051 02-05-2019 15:30:00 16.4 C 62 % 9.11 C
1052 02-05-2019 15:35:00 16.4 C 61 % 8.87 C
1053 02-05-2019 15:40:00 16.7 C 60 % 8.9 C
1054 02-05-2019 15:45:00 16.8 C 60 % 9 C
1055 02-05-2019 15:50:00 16.7 C 59 % 8.66 C
1056 02-05-2019 15:55:00 16.6 C 58 % 8.31 C
1057 02-05-2019 16:00:00 16.5 C 59 % 8.47 C
1058 02-05-2019 16:05:00 16.6 C 60 % 8.81 C
1059 02-05-2019 16:10:00 16.7 C 60 % 8.9 C
1060 02-05-2019 16:15:00 16.8 C 58 % 8.5 C
1061 02-05-2019 16:20:00 16.9 C 59 % 8.84 C
1062 02-05-2019 16:25:00 17.1 C 59 % 9.03 C
1063 02-05-2019 16:30:00 17.4 C 59 % 9.31 C
1064 02-05-2019 16:35:00 18.1 C 58 % 9.71 C
1065 02-05-2019 16:40:00 18.3 C 55 % 9.11 C
1066 02-05-2019 16:45:00 18 C 58 % 9.62 C
1067 02-05-2019 16:50:00 17.2 C 55 % 8.09 C
1068 02-05-2019 16:55:00 17.1 C 56 % 8.26 C
1069 02-05-2019 17:00:00 17.4 C 55 % 8.28 C
1070 02-05-2019 17:05:00 17.6 C 54 % 8.19 C
1071 02-05-2019 17:10:00 17.6 C 52 % 7.64 C
1072 02-05-2019 17:15:00 17.4 C 52 % 7.45 C
1073 02-05-2019 17:20:00 17.3 C 54 % 7.91 C
1074 02-05-2019 17:25:00 17.6 C 54 % 8.19 C
1075 02-05-2019 17:30:00 17.7 C 52 % 7.73 C
Sensor: Nr:Datum:Temp:Feuchte:Taupunkt:
Aussen-T/F 1076 02-05-2019 17:35:00 17.6 C 51 % 7.35 C
1077 02-05-2019 17:40:00 17.7 C 51 % 7.45 C
1078 02-05-2019 17:45:00 18.1 C 50 % 7.52 C
1079 02-05-2019 17:50:00 18.4 C 47 % 6.9 C
1080 02-05-2019 17:55:00 18.6 C 46 % 6.77 C
1081 02-05-2019 18:00:00 18.4 C 47 % 6.9 C
1082 02-05-2019 18:05:00 18.5 C 46 % 6.67 C
1083 02-05-2019 18:10:00 18.4 C 46 % 6.58 C
1084 02-05-2019 18:15:00 18.4 C 46 % 6.58 C
1085 02-05-2019 18:20:00 18.3 C 47 % 6.8 C
1086 02-05-2019 18:25:00 18.1 C 46 % 6.31 C
1087 02-05-2019 18:30:00 17.8 C 47 % 6.35 C
1088 02-05-2019 18:35:00 17.7 C 47 % 6.26 C
1089 02-05-2019 18:40:00 17.6 C 48 % 6.47 C
1090 02-05-2019 18:45:00 17.5 C 48 % 6.38 C
1091 02-05-2019 18:50:00 17.5 C 47 % 6.07 C
1092 02-05-2019 18:55:00 17.4 C 47 % 5.98 C
1093 02-05-2019 19:00:00 17.3 C 48 % 6.2 C
1094 02-05-2019 19:05:00 17 C 48 % 5.92 C
1095 02-05-2019 19:10:00 16.7 C 50 % 6.24 C
1096 02-05-2019 19:15:00 16.4 C 56 % 7.61 C
1097 02-05-2019 19:20:00 15.9 C 60 % 8.15 C
1098 02-05-2019 19:25:00 15.4 C 63 % 8.4 C
1099 02-05-2019 19:30:00 15.1 C 65 % 8.58 C
1100 02-05-2019 19:35:00 14.9 C 66 % 8.61 C
Sensor: Nr:Datum:Temp:Feuchte:Taupunkt:
Aussen-T/F 1101 02-05-2019 19:40:00 14.7 C 66 % 8.42 C
1102 02-05-2019 19:45:00 14.6 C 66 % 8.33 C
1103 02-05-2019 19:50:00 14.4 C 67 % 8.36 C
1104 02-05-2019 19:55:00 14.1 C 68 % 8.29 C
1105 02-05-2019 20:00:00 13.8 C 69 % 8.22 C
1106 02-05-2019 20:05:00 13.5 C 71 % 8.35 C
1107 02-05-2019 20:10:00 13.3 C 74 % 8.77 C
1108 02-05-2019 20:15:00 13.1 C 75 % 8.77 C
1109 02-05-2019 20:20:00 12.9 C 76 % 8.78 C
1110 02-05-2019 20:25:00 12.7 C 77 % 8.78 C
1111 02-05-2019 20:30:00 12.6 C 78 % 8.87 C
1112 02-05-2019 20:35:00 12.5 C 79 % 8.96 C
1113 02-05-2019 20:40:00 12.4 C 80 % 9.05 C
1114 02-05-2019 20:45:00 12.3 C 81 % 9.14 C
1115 02-05-2019 20:50:00 12.2 C 81 % 9.04 C
1116 02-05-2019 20:55:00 12.1 C 82 % 9.12 C
1117 02-05-2019 21:00:00 12 C 83 % 9.21 C
1118 02-05-2019 21:05:00 11.9 C 85 % 9.46 C
1119 02-05-2019 21:10:00 11.8 C 87 % 9.71 C
1120 02-05-2019 21:15:00 11.7 C 88 % 9.78 C
1121 02-05-2019 21:20:00 11.6 C 88 % 9.68 C
1122 02-05-2019 21:25:00 11.4 C 89 % 9.65 C
1123 02-05-2019 21:30:00 11.3 C 89 % 9.55 C
1124 02-05-2019 21:35:00 11.2 C 90 % 9.62 C
1125 02-05-2019 21:40:00 11.2 C 90 % 9.62 C
Sensor: Nr:Datum:Temp:Feuchte:Taupunkt:
Aussen-T/F 1126 02-05-2019 21:45:00 11.1 C 91 % 9.69 C
1127 02-05-2019 21:50:00 11.1 C 91 % 9.69 C
1128 02-05-2019 21:55:00 11 C 91 % 9.59 C
1129 02-05-2019 22:00:00 10.9 C 91 % 9.49 C
1130 02-05-2019 22:05:00 10.8 C 90 % 9.23 C
1131 02-05-2019 22:10:00 10.8 C 91 % 9.39 C
1132 02-05-2019 22:15:00 10.8 C 91 % 9.39 C
1133 02-05-2019 22:20:00 10.8 C 91 % 9.39 C
1134 02-05-2019 22:25:00 10.8 C 91 % 9.39 C
1135 02-05-2019 22:30:00 10.7 C 91 % 9.29 C
1136 02-05-2019 22:35:00 10.7 C 91 % 9.29 C
1137 02-05-2019 22:40:00 10.7 C 91 % 9.29 C
1138 02-05-2019 22:45:00 10.7 C 91 % 9.29 C
1139 02-05-2019 22:50:00 10.7 C 91 % 9.29 C
1140 02-05-2019 22:55:00 10.7 C 91 % 9.29 C
1141 02-05-2019 23:00:00 10.7 C 91 % 9.29 C
1142 02-05-2019 23:05:00 10.7 C 91 % 9.29 C
1143 02-05-2019 23:10:00 10.7 C 91 % 9.29 C
1144 02-05-2019 23:15:00 10.7 C 91 % 9.29 C
1145 02-05-2019 23:20:00 10.7 C 92 % 9.45 C
1146 02-05-2019 23:25:00 10.7 C 92 % 9.45 C
1147 02-05-2019 23:30:00 10.7 C 92 % 9.45 C
1148 02-05-2019 23:35:00 10.7 C 92 % 9.45 C
1149 02-05-2019 23:40:00 10.7 C 92 % 9.45 C
1150 02-05-2019 23:45:00 10.7 C 92 % 9.45 C
Sensor: Nr:Datum:Temp:Feuchte:Taupunkt:
Aussen-T/F 1151 02-05-2019 23:50:00 10.7 C 92 % 9.45 C
1152 02-05-2019 23:55:00 10.7 C 93 % 9.62 C
1153 03-05-2019 00:00:00 10.6 C 93 % 9.52 C
1154 03-05-2019 00:05:00 10.6 C 93 % 9.52 C
1155 03-05-2019 00:10:00 10.6 C 93 % 9.52 C
1156 03-05-2019 00:15:00 10.6 C 93 % 9.52 C
1157 03-05-2019 00:20:00 10.6 C 93 % 9.52 C
1158 03-05-2019 00:25:00 10.6 C 93 % 9.52 C
1159 03-05-2019 00:30:00 10.6 C 93 % 9.52 C
1160 03-05-2019 00:35:00 10.6 C 92 % 9.36 C
1161 03-05-2019 00:40:00 10.6 C 92 % 9.36 C
1162 03-05-2019 00:45:00 10.6 C 91 % 9.19 C
1163 03-05-2019 00:50:00 10.6 C 91 % 9.19 C
1164 03-05-2019 00:55:00 10.6 C 91 % 9.19 C
1165 03-05-2019 01:00:00 10.6 C 90 % 9.03 C
1166 03-05-2019 01:05:00 10.7 C 90 % 9.13 C
1167 03-05-2019 01:10:00 10.6 C 89 % 8.86 C
1168 03-05-2019 01:15:00 10.6 C 88 % 8.7 C
1169 03-05-2019 01:20:00 10.6 C 87 % 8.53 C
1170 03-05-2019 01:25:00 10.6 C 87 % 8.53 C
1171 03-05-2019 01:30:00 10.6 C 86 % 8.36 C
1172 03-05-2019 01:35:00 10.5 C 86 % 8.26 C
1173 03-05-2019 01:40:00 10.4 C 85 % 7.99 C
1174 03-05-2019 01:45:00 10.4 C 85 % 7.99 C
1175 03-05-2019 01:50:00 10.3 C 84 % 7.72 C
Sensor: Nr:Datum:Temp:Feuchte:Taupunkt:
Aussen-T/F 1176 03-05-2019 01:55:00 10.3 C 83 % 7.54 C
1177 03-05-2019 02:00:00 10.3 C 83 % 7.54 C
1178 03-05-2019 02:05:00 10.2 C 83 % 7.45 C
1179 03-05-2019 02:10:00 10.1 C 83 % 7.35 C
1180 03-05-2019 02:15:00 9.9 C 83 % 7.15 C
1181 03-05-2019 02:20:00 9.8 C 84 % 7.23 C
1182 03-05-2019 02:25:00 9.8 C 84 % 7.23 C
1183 03-05-2019 02:30:00 9.8 C 85 % 7.4 C
1184 03-05-2019 02:35:00 9.7 C 85 % 7.3 C
1185 03-05-2019 02:40:00 9.7 C 85 % 7.3 C
1186 03-05-2019 02:45:00 9.7 C 85 % 7.3 C
1187 03-05-2019 02:50:00 9.6 C 85 % 7.21 C
1188 03-05-2019 02:55:00 9.6 C 85 % 7.21 C
1189 03-05-2019 03:00:00 9.5 C 85 % 7.11 C
1190 03-05-2019 03:05:00 9.5 C 85 % 7.11 C
1191 03-05-2019 03:10:00 9.4 C 85 % 7.01 C
1192 03-05-2019 03:15:00 9.4 C 85 % 7.01 C
1193 03-05-2019 03:20:00 9.4 C 86 % 7.18 C
1194 03-05-2019 03:25:00 9.4 C 86 % 7.18 C
1195 03-05-2019 03:30:00 9.4 C 86 % 7.18 C
1196 03-05-2019 03:35:00 9.3 C 86 % 7.08 C
1197 03-05-2019 03:40:00 9.3 C 86 % 7.08 C
1198 03-05-2019 03:45:00 9.3 C 86 % 7.08 C
1199 03-05-2019 03:50:00 9.3 C 86 % 7.08 C
1200 03-05-2019 03:55:00 9.3 C 87 % 7.25 C
Sensor: Nr:Datum:Temp:Feuchte:Taupunkt:
Aussen-T/F 1201 03-05-2019 04:00:00 9.3 C 87 % 7.25 C
1202 03-05-2019 04:05:00 9.2 C 87 % 7.15 C
1203 03-05-2019 04:10:00 9.2 C 87 % 7.15 C
1204 03-05-2019 04:15:00 9.2 C 87 % 7.15 C
1205 03-05-2019 04:20:00 9.2 C 88 % 7.32 C
1206 03-05-2019 04:25:00 9.2 C 88 % 7.32 C
1207 03-05-2019 04:30:00 9.1 C 88 % 7.22 C
1208 03-05-2019 04:35:00 9.1 C 88 % 7.22 C
1209 03-05-2019 04:40:00 9.1 C 88 % 7.22 C
1210 03-05-2019 04:45:00 9.1 C 88 % 7.22 C
1211 03-05-2019 04:50:00 9.1 C 88 % 7.22 C
1212 03-05-2019 04:55:00 9.2 C 88 % 7.32 C
1213 03-05-2019 05:00:00 9.2 C 88 % 7.32 C
1214 03-05-2019 05:05:00 9.2 C 88 % 7.32 C
1215 03-05-2019 05:10:00 9.3 C 88 % 7.42 C
1216 03-05-2019 05:15:00 9.3 C 88 % 7.42 C
1217 03-05-2019 05:20:00 9.3 C 88 % 7.42 C
1218 03-05-2019 05:25:00 9.3 C 88 % 7.42 C
1219 03-05-2019 05:30:00 9.3 C 88 % 7.42 C
1220 03-05-2019 05:35:00 9.3 C 88 % 7.42 C
1221 03-05-2019 05:40:00 9.3 C 88 % 7.42 C
1222 03-05-2019 05:45:00 9.3 C 88 % 7.42 C
1223 03-05-2019 05:50:00 9.3 C 88 % 7.42 C
1224 03-05-2019 05:55:00 9.3 C 88 % 7.42 C
1225 03-05-2019 06:00:00 9.3 C 88 % 7.42 C
Sensor: Nr:Datum:Temp:Feuchte:Taupunkt:
Aussen-T/F 1226 03-05-2019 06:05:00 9.3 C 88 % 7.42 C
1227 03-05-2019 06:10:00 9.3 C 88 % 7.42 C
1228 03-05-2019 06:15:00 9.2 C 88 % 7.32 C
1229 03-05-2019 06:20:00 9.2 C 88 % 7.32 C
1230 03-05-2019 06:25:00 9.2 C 88 % 7.32 C
1231 03-05-2019 06:30:00 9.2 C 87 % 7.15 C
1232 03-05-2019 06:35:00 9.2 C 87 % 7.15 C
1233 03-05-2019 06:40:00 9.2 C 87 % 7.15 C
1234 03-05-2019 06:45:00 9.3 C 88 % 7.42 C
1235 03-05-2019 06:50:00 9.3 C 88 % 7.42 C
1236 03-05-2019 06:55:00 9.3 C 88 % 7.42 C
1237 03-05-2019 07:00:00 9.2 C 88 % 7.32 C
1238 03-05-2019 07:05:00 9.2 C 87 % 7.15 C
1239 03-05-2019 07:10:00 9.2 C 87 % 7.15 C
1240 03-05-2019 07:15:00 9.2 C 86 % 6.98 C
1241 03-05-2019 07:20:00 9.2 C 86 % 6.98 C
1242 03-05-2019 07:25:00 9.3 C 86 % 7.08 C
1243 03-05-2019 07:30:00 9.2 C 85 % 6.81 C
1244 03-05-2019 07:35:00 9.3 C 85 % 6.91 C
1245 03-05-2019 07:40:00 9.3 C 85 % 6.91 C
1246 03-05-2019 07:45:00 9.3 C 85 % 6.91 C
1247 03-05-2019 07:50:00 9.3 C 84 % 6.74 C
1248 03-05-2019 07:55:00 9.3 C 84 % 6.74 C
1249 03-05-2019 08:00:00 9.4 C 85 % 7.01 C
1250 03-05-2019 08:05:00 9.5 C 85 % 7.11 C
Sensor: Nr:Datum:Temp:Feuchte:Taupunkt:
Aussen-T/F 1251 03-05-2019 08:10:00 9.6 C 84 % 7.03 C
1252 03-05-2019 08:15:00 9.7 C 84 % 7.13 C
1253 03-05-2019 08:20:00 9.8 C 84 % 7.23 C
1254 03-05-2019 08:25:00 9.8 C 84 % 7.23 C
1255 03-05-2019 08:30:00 9.7 C 83 % 6.96 C
1256 03-05-2019 08:35:00 9.7 C 83 % 6.96 C
1257 03-05-2019 08:40:00 9.7 C 82 % 6.78 C
1258 03-05-2019 08:45:00 9.6 C 83 % 6.86 C
1259 03-05-2019 08:50:00 9.7 C 83 % 6.96 C
1260 03-05-2019 08:55:00 9.7 C 82 % 6.78 C
1261 03-05-2019 09:00:00 9.7 C 82 % 6.78 C
1262 03-05-2019 09:05:00 9.8 C 82 % 6.88 C
1263 03-05-2019 09:10:00 9.9 C 81 % 6.8 C
1264 03-05-2019 09:15:00 10 C 80 % 6.71 C
1265 03-05-2019 09:20:00 10.1 C 80 % 6.81 C
1266 03-05-2019 09:25:00 10.1 C 80 % 6.81 C
1267 03-05-2019 09:30:00 10.1 C 79 % 6.63 C
1268 03-05-2019 09:35:00 10.1 C 79 % 6.63 C
1269 03-05-2019 09:40:00 10.2 C 79 % 6.73 C
1270 03-05-2019 09:45:00 10.3 C 78 % 6.64 C
1271 03-05-2019 09:50:00 10.4 C 79 % 6.92 C
1272 03-05-2019 09:55:00 10.6 C 75 % 6.36 C
1273 03-05-2019 10:00:00 10.7 C 74 % 6.26 C
1274 03-05-2019 10:05:00 10.7 C 73 % 6.07 C
1275 03-05-2019 10:10:00 10.7 C 75 % 6.46 C
Sensor: Nr:Datum:Temp:Feuchte:Taupunkt:
Aussen-T/F 1276 03-05-2019 10:15:00 10.7 C 75 % 6.46 C
1277 03-05-2019 10:20:00 10.7 C 76 % 6.65 C
1278 03-05-2019 10:25:00 10.7 C 74 % 6.26 C
1279 03-05-2019 10:30:00 10.8 C 76 % 6.75 C
1280 03-05-2019 10:35:00 10.9 C 74 % 6.45 C
1281 03-05-2019 10:40:00 10.8 C 72 % 5.96 C
1282 03-05-2019 10:45:00 10.8 C 73 % 6.16 C
1283 03-05-2019 10:50:00 10.9 C 71 % 5.86 C
1284 03-05-2019 10:55:00 11 C 72 % 6.15 C
1285 03-05-2019 11:00:00 11.1 C 70 % 5.84 C
1286 03-05-2019 11:05:00 11.1 C 69 % 5.64 C
1287 03-05-2019 11:10:00 11.2 C 69 % 5.73 C
1288 03-05-2019 11:15:00 11.3 C 70 % 6.03 C
1289 03-05-2019 11:20:00 11.4 C 69 % 5.92 C
1290 03-05-2019 11:25:00 11.4 C 68 % 5.71 C
1291 03-05-2019 11:30:00 11.3 C 68 % 5.62 C
1292 03-05-2019 11:35:00 11.1 C 69 % 5.64 C
1293 03-05-2019 11:40:00 10.9 C 69 % 5.44 C
1294 03-05-2019 11:45:00 10.9 C 70 % 5.65 C
1295 03-05-2019 11:50:00 11.1 C 69 % 5.64 C
1296 03-05-2019 11:55:00 11.2 C 69 % 5.73 C
1297 03-05-2019 12:00:00 11.1 C 69 % 5.64 C
1298 03-05-2019 12:05:00 11 C 69 % 5.54 C
1299 03-05-2019 12:10:00 10.9 C 70 % 5.65 C
1300 03-05-2019 12:15:00 10.9 C 69 % 5.44 C
Sensor: Nr:Datum:Temp:Feuchte:Taupunkt:
Aussen-T/F 1301 03-05-2019 12:20:00 10.9 C 69 % 5.44 C
1302 03-05-2019 12:25:00 11.1 C 70 % 5.84 C
1303 03-05-2019 12:30:00 11.3 C 71 % 6.24 C
1304 03-05-2019 12:35:00 11.6 C 71 % 6.53 C
1305 03-05-2019 12:40:00 11.8 C 67 % 5.88 C
1306 03-05-2019 12:45:00 11.8 C 68 % 6.09 C
1307 03-05-2019 12:50:00 11.9 C 67 % 5.98 C
1308 03-05-2019 12:55:00 11.8 C 67 % 5.88 C
1309 03-05-2019 13:00:00 11.8 C 67 % 5.88 C
1310 03-05-2019 13:05:00 11.8 C 66 % 5.66 C
1311 03-05-2019 13:10:00 11.8 C 66 % 5.66 C
1312 03-05-2019 13:15:00 11.8 C 66 % 5.66 C
1313 03-05-2019 13:20:00 11.9 C 65 % 5.54 C
1314 03-05-2019 13:25:00 12.1 C 66 % 5.95 C
1315 03-05-2019 13:30:00 12.2 C 66 % 6.04 C
1316 03-05-2019 13:35:00 12.3 C 66 % 6.14 C
1317 03-05-2019 13:40:00 12.4 C 64 % 5.79 C
1318 03-05-2019 13:45:00 12.3 C 64 % 5.69 C
1319 03-05-2019 13:50:00 12.2 C 64 % 5.6 C
1320 03-05-2019 13:55:00 12.3 C 67 % 6.36 C
1321 03-05-2019 14:00:00 12.6 C 65 % 6.2 C
1322 03-05-2019 14:05:00 12.8 C 62 % 5.71 C
1323 03-05-2019 14:10:00 12.9 C 61 % 5.57 C
1324 03-05-2019 14:15:00 12.9 C 60 % 5.33 C
1325 03-05-2019 14:20:00 12.7 C 61 % 5.38 C
Sensor: Nr:Datum:Temp:Feuchte:Taupunkt:
Aussen-T/F 1326 03-05-2019 14:25:00 12.7 C 59 % 4.9 C
1327 03-05-2019 14:30:00 12.7 C 60 % 5.14 C
1328 03-05-2019 14:35:00 12.8 C 60 % 5.24 C
1329 03-05-2019 14:40:00 13.1 C 59 % 5.28 C
1330 03-05-2019 14:45:00 13.3 C 56 % 4.72 C
1331 03-05-2019 14:50:00 13.7 C 56 % 5.09 C
1332 03-05-2019 14:55:00 13.6 C 55 % 4.74 C
1333 03-05-2019 15:00:00 13.3 C 55 % 4.46 C
1334 03-05-2019 15:05:00 13.3 C 56 % 4.72 C
1335 03-05-2019 15:10:00 13.7 C 54 % 4.57 C
1336 03-05-2019 15:15:00 13.9 C 52 % 4.22 C
1337 03-05-2019 15:20:00 14.3 C 53 % 4.86 C
1338 03-05-2019 15:25:00 14.3 C 53 % 4.86 C
1339 03-05-2019 15:30:00 14.3 C 53 % 4.86 C
1340 03-05-2019 15:35:00 14.4 C 54 % 5.22 C
1341 03-05-2019 15:40:00 14.9 C 53 % 5.42 C
1342 03-05-2019 15:45:00 15.2 C 52 % 5.42 C
1343 03-05-2019 15:50:00 15.4 C 50 % 5.04 C
1344 03-05-2019 15:55:00 15.6 C 50 % 5.23 C
1345 03-05-2019 16:00:00 15.6 C 49 % 4.94 C
1346 03-05-2019 16:05:00 15.3 C 50 % 4.95 C
1347 03-05-2019 16:10:00 15.4 C 50 % 5.04 C
1348 03-05-2019 16:15:00 15.4 C 49 % 4.75 C
1349 03-05-2019 16:20:00 15.3 C 50 % 4.95 C
1350 03-05-2019 16:25:00 15 C 51 % 4.96 C
Sensor: Nr:Datum:Temp:Feuchte:Taupunkt:
Aussen-T/F 1351 03-05-2019 16:30:00 14.7 C 51 % 4.68 C
1352 03-05-2019 16:35:00 14.3 C 52 % 4.59 C
1353 03-05-2019 16:40:00 14.1 C 53 % 4.68 C
1354 03-05-2019 16:45:00 14.4 C 54 % 5.22 C
1355 03-05-2019 16:50:00 15.2 C 53 % 5.69 C
1356 03-05-2019 16:55:00 15.3 C 50 % 4.95 C
1357 03-05-2019 17:00:00 15.2 C 51 % 5.14 C
1358 03-05-2019 17:05:00 15.1 C 53 % 5.6 C
1359 03-05-2019 17:10:00 14.8 C 50 % 4.49 C
1360 03-05-2019 17:15:00 14.5 C 52 % 4.77 C
1361 03-05-2019 17:20:00 14.2 C 52 % 4.5 C
1362 03-05-2019 17:25:00 14 C 54 % 4.85 C
1363 03-05-2019 17:30:00 13.8 C 56 % 5.19 C
1364 03-05-2019 17:35:00 13.8 C 56 % 5.19 C
1365 03-05-2019 17:40:00 13.7 C 56 % 5.09 C
1366 03-05-2019 17:45:00 13.5 C 56 % 4.91 C
1367 03-05-2019 17:50:00 13.5 C 56 % 4.91 C
1368 03-05-2019 17:55:00 13.4 C 55 % 4.55 C
1369 03-05-2019 18:00:00 13.3 C 56 % 4.72 C
1370 03-05-2019 18:05:00 13.4 C 56 % 4.81 C
1371 03-05-2019 18:10:00 13.6 C 57 % 5.25 C
1372 03-05-2019 18:15:00 13.9 C 55 % 5.02 C
1373 03-05-2019 18:20:00 14 C 55 % 5.11 C
1374 03-05-2019 18:25:00 13.9 C 55 % 5.02 C
1375 03-05-2019 18:30:00 13.8 C 56 % 5.19 C
Sensor: Nr:Datum:Temp:Feuchte:Taupunkt:
Aussen-T/F 1376 03-05-2019 18:35:00 13.8 C 56 % 5.19 C
1377 03-05-2019 18:40:00 13.7 C 57 % 5.35 C
1378 03-05-2019 18:45:00 13.6 C 57 % 5.25 C
1379 03-05-2019 18:50:00 13.4 C 58 % 5.32 C
1380 03-05-2019 18:55:00 13.3 C 58 % 5.22 C
1381 03-05-2019 19:00:00 13.1 C 59 % 5.28 C
1382 03-05-2019 19:05:00 12.9 C 59 % 5.09 C
1383 03-05-2019 19:10:00 12.7 C 59 % 4.9 C
1384 03-05-2019 19:15:00 12.6 C 60 % 5.05 C
1385 03-05-2019 19:20:00 12.5 C 61 % 5.19 C
1386 03-05-2019 19:25:00 12.4 C 60 % 4.86 C
1387 03-05-2019 19:30:00 12.4 C 60 % 4.86 C
1388 03-05-2019 19:35:00 12.3 C 59 % 4.53 C
1389 03-05-2019 19:40:00 12.2 C 59 % 4.43 C
1390 03-05-2019 19:45:00 12 C 61 % 4.72 C
1391 03-05-2019 19:50:00 11.9 C 61 % 4.63 C
1392 03-05-2019 19:55:00 11.8 C 62 % 4.77 C
1393 03-05-2019 20:00:00 11.7 C 62 % 4.67 C
1394 03-05-2019 20:05:00 11.7 C 62 % 4.67 C
1395 03-05-2019 20:10:00 11.6 C 62 % 4.58 C
1396 03-05-2019 20:15:00 11.5 C 63 % 4.71 C
1397 03-05-2019 20:20:00 11.4 C 63 % 4.62 C
1398 03-05-2019 20:25:00 11.3 C 64 % 4.75 C
1399 03-05-2019 20:30:00 11.3 C 64 % 4.75 C
1400 03-05-2019 20:35:00 11.2 C 65 % 4.87 C
Sensor: Nr:Datum:Temp:Feuchte:Taupunkt:
Aussen-T/F 1401 03-05-2019 20:40:00 11 C 65 % 4.68 C
1402 03-05-2019 20:45:00 10.7 C 66 % 4.62 C
1403 03-05-2019 20:50:00 10.5 C 67 % 4.64 C
1404 03-05-2019 20:55:00 10.3 C 68 % 4.66 C
1405 03-05-2019 21:00:00 10.2 C 68 % 4.57 C
1406 03-05-2019 21:05:00 10.1 C 69 % 4.68 C
1407 03-05-2019 21:10:00 10 C 69 % 4.58 C
1408 03-05-2019 21:15:00 9.9 C 69 % 4.49 C
1409 03-05-2019 21:20:00 9.9 C 70 % 4.69 C
1410 03-05-2019 21:25:00 9.8 C 70 % 4.6 C
1411 03-05-2019 21:30:00 9.8 C 71 % 4.8 C
1412 03-05-2019 21:35:00 9.8 C 71 % 4.8 C
1413 03-05-2019 21:40:00 9.8 C 71 % 4.8 C
1414 03-05-2019 21:45:00 9.8 C 71 % 4.8 C
1415 03-05-2019 21:50:00 9.7 C 71 % 4.7 C
1416 03-05-2019 21:55:00 9.7 C 72 % 4.9 C
1417 03-05-2019 22:00:00 9.7 C 72 % 4.9 C
1418 03-05-2019 22:05:00 9.7 C 72 % 4.9 C
1419 03-05-2019 22:10:00 9.6 C 73 % 5.01 C
1420 03-05-2019 22:15:00 9.6 C 74 % 5.2 C
1421 03-05-2019 22:20:00 9.5 C 74 % 5.1 C
1422 03-05-2019 22:25:00 9.4 C 76 % 5.39 C
1423 03-05-2019 22:30:00 9.3 C 75 % 5.1 C
1424 03-05-2019 22:35:00 9.2 C 75 % 5.01 C
1425 03-05-2019 22:40:00 9.2 C 76 % 5.2 C
Sensor: Nr:Datum:Temp:Feuchte:Taupunkt:
Aussen-T/F 1426 03-05-2019 22:45:00 9.1 C 75 % 4.91 C
1427 03-05-2019 22:50:00 9.1 C 75 % 4.91 C
1428 03-05-2019 22:55:00 9.1 C 75 % 4.91 C
1429 03-05-2019 23:00:00 9.1 C 76 % 5.1 C
1430 03-05-2019 23:05:00 8.9 C 76 % 4.91 C
1431 03-05-2019 23:10:00 8.9 C 77 % 5.09 C
1432 03-05-2019 23:15:00 8.9 C 77 % 5.09 C
1433 03-05-2019 23:20:00 8.8 C 78 % 5.18 C
1434 03-05-2019 23:25:00 8.7 C 79 % 5.27 C
1435 03-05-2019 23:30:00 8.6 C 79 % 5.17 C
1436 03-05-2019 23:35:00 8.6 C 80 % 5.35 C
1437 03-05-2019 23:40:00 8.4 C 80 % 5.16 C
1438 03-05-2019 23:45:00 8.4 C 80 % 5.16 C
1439 03-05-2019 23:50:00 8.3 C 81 % 5.24 C
1440 03-05-2019 23:55:00 8.3 C 80 % 5.06 C
1441 04-05-2019 00:00:00 8.2 C 81 % 5.14 C
1442 04-05-2019 00:05:00 8.2 C 81 % 5.14 C
1443 04-05-2019 00:10:00 8.2 C 81 % 5.14 C
1444 04-05-2019 00:15:00 8.2 C 81 % 5.14 C
1445 04-05-2019 00:20:00 8.2 C 82 % 5.32 C
1446 04-05-2019 00:25:00 8.1 C 82 % 5.22 C
1447 04-05-2019 00:30:00 8.1 C 82 % 5.22 C
1448 04-05-2019 00:35:00 8 C 82 % 5.12 C
1449 04-05-2019 00:40:00 7.9 C 82 % 5.02 C
1450 04-05-2019 00:45:00 7.9 C 82 % 5.02 C
Sensor: Nr:Datum:Temp:Feuchte:Taupunkt:
Aussen-T/F 1451 04-05-2019 00:50:00 7.9 C 82 % 5.02 C
1452 04-05-2019 00:55:00 7.8 C 82 % 4.92 C
1453 04-05-2019 01:00:00 7.8 C 83 % 5.1 C
1454 04-05-2019 01:05:00 7.7 C 83 % 5 C
1455 04-05-2019 01:10:00 7.7 C 83 % 5 C
1456 04-05-2019 01:15:00 7.7 C 83 % 5 C
1457 04-05-2019 01:20:00 7.6 C 83 % 4.9 C
1458 04-05-2019 01:25:00 7.6 C 83 % 4.9 C
1459 04-05-2019 01:30:00 7.6 C 83 % 4.9 C
1460 04-05-2019 01:35:00 7.6 C 83 % 4.9 C
1461 04-05-2019 01:40:00 7.6 C 84 % 5.07 C
1462 04-05-2019 01:45:00 7.6 C 83 % 4.9 C
1463 04-05-2019 01:50:00 7.5 C 83 % 4.81 C
1464 04-05-2019 01:55:00 7.5 C 84 % 4.98 C
1465 04-05-2019 02:00:00 7.5 C 84 % 4.98 C
1466 04-05-2019 02:05:00 7.5 C 84 % 4.98 C
1467 04-05-2019 02:10:00 7.5 C 84 % 4.98 C
1468 04-05-2019 02:15:00 7.6 C 85 % 5.24 C
1469 04-05-2019 02:20:00 7.6 C 85 % 5.24 C
1470 04-05-2019 02:25:00 7.6 C 85 % 5.24 C
1471 04-05-2019 02:30:00 7.6 C 85 % 5.24 C
1472 04-05-2019 02:35:00 7.6 C 85 % 5.24 C
1473 04-05-2019 02:40:00 7.6 C 85 % 5.24 C
1474 04-05-2019 02:45:00 7.6 C 85 % 5.24 C
1475 04-05-2019 02:50:00 7.6 C 85 % 5.24 C
Sensor: Nr:Datum:Temp:Feuchte:Taupunkt:
Aussen-T/F 1476 04-05-2019 02:55:00 7.6 C 85 % 5.24 C
1477 04-05-2019 03:00:00 7.5 C 85 % 5.15 C
1478 04-05-2019 03:05:00 7.5 C 86 % 5.31 C
1479 04-05-2019 03:10:00 7.4 C 86 % 5.22 C
1480 04-05-2019 03:15:00 7.4 C 86 % 5.22 C
1481 04-05-2019 03:20:00 7.4 C 86 % 5.22 C
1482 04-05-2019 03:25:00 7.4 C 87 % 5.38 C
1483 04-05-2019 03:30:00 7.4 C 87 % 5.38 C
1484 04-05-2019 03:35:00 7.4 C 87 % 5.38 C
1485 04-05-2019 03:40:00 7.4 C 87 % 5.38 C
1486 04-05-2019 03:45:00 7.4 C 88 % 5.55 C
1487 04-05-2019 03:50:00 7.5 C 88 % 5.64 C
1488 04-05-2019 03:55:00 7.5 C 88 % 5.64 C
1489 04-05-2019 04:00:00 7.6 C 89 % 5.91 C
1490 04-05-2019 04:05:00 7.6 C 88 % 5.74 C
1491 04-05-2019 04:10:00 7.6 C 89 % 5.91 C
1492 04-05-2019 04:15:00 7.6 C 90 % 6.07 C
1493 04-05-2019 04:20:00 7.6 C 90 % 6.07 C
1494 04-05-2019 04:25:00 7.6 C 90 % 6.07 C
1495 04-05-2019 04:30:00 7.6 C 90 % 6.07 C
1496 04-05-2019 04:35:00 7.5 C 91 % 6.13 C
1497 04-05-2019 04:40:00 7.4 C 91 % 6.03 C
1498 04-05-2019 04:45:00 7.2 C 91 % 5.83 C
1499 04-05-2019 04:50:00 6.9 C 91 % 5.54 C
1500 04-05-2019 04:55:00 6.6 C 91 % 5.24 C
Sensor: Nr:Datum:Temp:Feuchte:Taupunkt:
Aussen-T/F 1501 04-05-2019 05:00:00 6.2 C 90 % 4.69 C
1502 04-05-2019 05:05:00 5.9 C 91 % 4.55 C
1503 04-05-2019 05:10:00 5.6 C 91 % 4.25 C
1504 04-05-2019 05:15:00 5.3 C 90 % 3.8 C
1505 04-05-2019 05:20:00 5.1 C 91 % 3.76 C
1506 04-05-2019 05:25:00 4.9 C 91 % 3.56 C
1507 04-05-2019 05:30:00 4.8 C 92 % 3.61 C
1508 04-05-2019 05:35:00 4.7 C 92 % 3.51 C
1509 04-05-2019 05:40:00 4.6 C 92 % 3.42 C
1510 04-05-2019 05:45:00 4.5 C 92 % 3.32 C
1511 04-05-2019 05:50:00 4.4 C 92 % 3.22 C
1512 04-05-2019 05:55:00 4.3 C 92 % 3.12 C
1513 04-05-2019 06:00:00 4.2 C 92 % 3.02 C
1514 04-05-2019 06:05:00 4.1 C 92 % 2.92 C
1515 04-05-2019 06:10:00 4.1 C 92 % 2.92 C
1516 04-05-2019 06:15:00 3.9 C 92 % 2.72 C
1517 04-05-2019 06:20:00 3.8 C 92 % 2.62 C
1518 04-05-2019 06:25:00 3.7 C 92 % 2.52 C
1519 04-05-2019 06:30:00 3.6 C 92 % 2.42 C
1520 04-05-2019 06:35:00 3.6 C 93 % 2.58 C
1521 04-05-2019 06:40:00 3.6 C 92 % 2.42 C
1522 04-05-2019 06:45:00 3.5 C 93 % 2.48 C
1523 04-05-2019 06:50:00 3.4 C 93 % 2.38 C
1524 04-05-2019 06:55:00 3.4 C 93 % 2.38 C
1525 04-05-2019 07:00:00 3.3 C 93 % 2.28 C
Sensor: Nr:Datum:Temp:Feuchte:Taupunkt:
Aussen-T/F 1526 04-05-2019 07:05:00 3.3 C 93 % 2.28 C
1527 04-05-2019 07:10:00 3.3 C 93 % 2.28 C
1528 04-05-2019 07:15:00 3.3 C 93 % 2.28 C
1529 04-05-2019 07:20:00 3.3 C 93 % 2.28 C
1530 04-05-2019 07:25:00 3.2 C 93 % 2.18 C
1531 04-05-2019 07:30:00 3.2 C 93 % 2.18 C
1532 04-05-2019 07:35:00 3.2 C 93 % 2.18 C
1533 04-05-2019 07:40:00 3.2 C 93 % 2.18 C
1534 04-05-2019 07:45:00 3.2 C 93 % 2.18 C
1535 04-05-2019 07:50:00 3.2 C 93 % 2.18 C
1536 04-05-2019 07:55:00 3.1 C 93 % 2.08 C
1537 04-05-2019 08:00:00 3.2 C 93 % 2.18 C
1538 04-05-2019 08:05:00 3.2 C 93 % 2.18 C
1539 04-05-2019 08:10:00 3.2 C 94 % 2.33 C
1540 04-05-2019 08:15:00 3.2 C 94 % 2.33 C
1541 04-05-2019 08:20:00 3.2 C 94 % 2.33 C
1542 04-05-2019 08:25:00 3.2 C 94 % 2.33 C
1543 04-05-2019 08:30:00 3.2 C 94 % 2.33 C
1544 04-05-2019 08:35:00 3.3 C 94 % 2.43 C
1545 04-05-2019 08:40:00 3.3 C 94 % 2.43 C
1546 04-05-2019 08:45:00 3.3 C 94 % 2.43 C
1547 04-05-2019 08:50:00 3.4 C 94 % 2.53 C
1548 04-05-2019 08:55:00 3.5 C 94 % 2.63 C
1549 04-05-2019 09:00:00 3.6 C 94 % 2.73 C
1550 04-05-2019 09:05:00 3.7 C 94 % 2.83 C
Sensor: Nr:Datum:Temp:Feuchte:Taupunkt:
Aussen-T/F 1551 04-05-2019 09:10:00 3.7 C 94 % 2.83 C
1552 04-05-2019 09:15:00 3.8 C 94 % 2.93 C
1553 04-05-2019 09:20:00 3.8 C 94 % 2.93 C
1554 04-05-2019 09:25:00 3.9 C 94 % 3.02 C
1555 04-05-2019 09:30:00 3.9 C 94 % 3.02 C
1556 04-05-2019 09:35:00 4.1 C 94 % 3.22 C
1557 04-05-2019 09:40:00 4.2 C 94 % 3.32 C
1558 04-05-2019 09:45:00 4.2 C 94 % 3.32 C
1559 04-05-2019 09:50:00 4.4 C 94 % 3.52 C
1560 04-05-2019 09:55:00 4.6 C 94 % 3.72 C
1561 04-05-2019 10:00:00 4.5 C 93 % 3.47 C
1562 04-05-2019 10:05:00 4.5 C 93 % 3.47 C
1563 04-05-2019 10:10:00 4.6 C 92 % 3.42 C
1564 04-05-2019 10:15:00 4.5 C 91 % 3.16 C
1565 04-05-2019 10:20:00 4.5 C 91 % 3.16 C
1566 04-05-2019 10:25:00 4.5 C 91 % 3.16 C
1567 04-05-2019 10:30:00 4.6 C 91 % 3.26 C
1568 04-05-2019 10:35:00 4.7 C 91 % 3.36 C
1569 04-05-2019 10:40:00 4.8 C 91 % 3.46 C
1570 04-05-2019 10:45:00 4.9 C 90 % 3.4 C
1571 04-05-2019 10:50:00 4.8 C 89 % 3.14 C
1572 04-05-2019 10:55:00 4.8 C 89 % 3.14 C
1573 04-05-2019 11:00:00 4.8 C 89 % 3.14 C
1574 04-05-2019 11:05:00 4.8 C 89 % 3.14 C
1575 04-05-2019 11:10:00 4.8 C 90 % 3.3 C
Sensor: Nr:Datum:Temp:Feuchte:Taupunkt:
Aussen-T/F 1576 04-05-2019 11:15:00 4.9 C 90 % 3.4 C
1577 04-05-2019 11:20:00 4.9 C 90 % 3.4 C
1578 04-05-2019 11:25:00 4.9 C 89 % 3.24 C
1579 04-05-2019 11:30:00 4.9 C 89 % 3.24 C
1580 04-05-2019 11:35:00 5 C 89 % 3.34 C
1581 04-05-2019 11:40:00 5.2 C 89 % 3.54 C
1582 04-05-2019 11:45:00 5.3 C 90 % 3.8 C
1583 04-05-2019 11:50:00 5.3 C 88 % 3.48 C
1584 04-05-2019 11:55:00 5.3 C 87 % 3.32 C
1585 04-05-2019 12:00:00 5.3 C 87 % 3.32 C
1586 04-05-2019 12:05:00 5.4 C 87 % 3.41 C
1587 04-05-2019 12:10:00 5.4 C 87 % 3.41 C
1588 04-05-2019 12:15:00 5.5 C 87 % 3.51 C
1589 04-05-2019 12:20:00 5.6 C 87 % 3.61 C
1590 04-05-2019 12:25:00 5.8 C 87 % 3.81 C
1591 04-05-2019 12:30:00 6 C 86 % 3.84 C
1592 04-05-2019 12:35:00 6.2 C 86 % 4.04 C
1593 04-05-2019 12:40:00 6.3 C 85 % 3.97 C
1594 04-05-2019 12:45:00 6.5 C 84 % 4 C
1595 04-05-2019 12:50:00 6.6 C 83 % 3.92 C
1596 04-05-2019 12:55:00 6.6 C 82 % 3.75 C
1597 04-05-2019 13:00:00 6.7 C 81 % 3.68 C
1598 04-05-2019 13:05:00 6.7 C 80 % 3.5 C
1599 04-05-2019 13:10:00 6.7 C 80 % 3.5 C
1600 04-05-2019 13:15:00 6.9 C 79 % 3.52 C
Sensor: Nr:Datum:Temp:Feuchte:Taupunkt:
Aussen-T/F 1601 04-05-2019 13:20:00 7.1 C 82 % 4.24 C
1602 04-05-2019 13:25:00 7.3 C 80 % 4.09 C
1603 04-05-2019 13:30:00 7.5 C 78 % 3.92 C
1604 04-05-2019 13:35:00 7.6 C 77 % 3.83 C
1605 04-05-2019 13:40:00 7.6 C 77 % 3.83 C
1606 04-05-2019 13:45:00 7.6 C 75 % 3.46 C
1607 04-05-2019 13:50:00 7.7 C 74 % 3.37 C
1608 04-05-2019 13:55:00 7.7 C 76 % 3.75 C
1609 04-05-2019 14:00:00 7.7 C 79 % 4.3 C
1610 04-05-2019 14:05:00 7.6 C 82 % 4.73 C
1611 04-05-2019 14:10:00 7.5 C 80 % 4.28 C
1612 04-05-2019 14:15:00 7.7 C 77 % 3.93 C
1613 04-05-2019 14:20:00 7.9 C 75 % 3.75 C
1614 04-05-2019 14:25:00 8.2 C 75 % 4.04 C
1615 04-05-2019 14:30:00 8.3 C 75 % 4.14 C
1616 04-05-2019 14:35:00 8.3 C 74 % 3.95 C
1617 04-05-2019 14:40:00 8.3 C 75 % 4.14 C
1618 04-05-2019 14:45:00 7.4 C 77 % 3.64 C
1619 04-05-2019 14:50:00 5.8 C 80 % 2.62 C
1620 04-05-2019 14:55:00 4.6 C 83 % 1.97 C
1621 04-05-2019 15:00:00 4 C 85 % 1.71 C
1622 04-05-2019 15:05:00 3.8 C 87 % 1.84 C
1623 04-05-2019 15:10:00 3.7 C 89 % 2.06 C
1624 04-05-2019 15:15:00 3.7 C 90 % 2.22 C
1625 04-05-2019 15:20:00 3.8 C 91 % 2.47 C
Sensor: Nr:Datum:Temp:Feuchte:Taupunkt:
Aussen-T/F 1626 04-05-2019 15:25:00 4 C 92 % 2.82 C
1627 04-05-2019 15:30:00 4.4 C 91 % 3.06 C
1628 04-05-2019 15:35:00 4.7 C 90 % 3.2 C
1629 04-05-2019 15:40:00 5.2 C 90 % 3.7 C
1630 04-05-2019 15:45:00 5.9 C 87 % 3.91 C
1631 04-05-2019 15:50:00 6.5 C 88 % 4.66 C
1632 04-05-2019 15:55:00 7.2 C 90 % 5.67 C
1633 04-05-2019 16:00:00 7.9 C 87 % 5.87 C
1634 04-05-2019 16:05:00 8.2 C 85 % 5.83 C
1635 04-05-2019 16:10:00 8.4 C 82 % 5.51 C
1636 04-05-2019 16:15:00 8.3 C 80 % 5.06 C
1637 04-05-2019 16:20:00 7.7 C 80 % 4.47 C
1638 04-05-2019 16:25:00 7.4 C 83 % 4.71 C
1639 04-05-2019 16:30:00 7.2 C 84 % 4.68 C
1640 04-05-2019 16:35:00 7.2 C 86 % 5.02 C
1641 04-05-2019 16:40:00 7.2 C 86 % 5.02 C
1642 04-05-2019 16:45:00 7.5 C 90 % 5.97 C
1643 04-05-2019 16:50:00 7.9 C 90 % 6.36 C
1644 04-05-2019 16:55:00 8.8 C 89 % 7.09 C
1645 04-05-2019 17:00:00 9.2 C 86 % 6.98 C
1646 04-05-2019 17:05:00 9.8 C 85 % 7.4 C
1647 04-05-2019 17:10:00 10.3 C 83 % 7.54 C
1648 04-05-2019 17:15:00 10.4 C 80 % 7.1 C
1649 04-05-2019 17:20:00 10.3 C 80 % 7.01 C
1650 04-05-2019 17:25:00 9.9 C 75 % 5.68 C
Sensor: Nr:Datum:Temp:Feuchte:Taupunkt:
Aussen-T/F 1651 04-05-2019 17:30:00 9.8 C 83 % 7.05 C
1652 04-05-2019 17:35:00 9.7 C 78 % 6.06 C
1653 04-05-2019 17:40:00 10 C 74 % 5.59 C
1654 04-05-2019 17:45:00 10.4 C 71 % 5.38 C
1655 04-05-2019 17:50:00 10.7 C 66 % 4.62 C
1656 04-05-2019 17:55:00 11.1 C 66 % 5 C
1657 04-05-2019 18:00:00 11.1 C 63 % 4.33 C
1658 04-05-2019 18:05:00 10.8 C 60 % 3.36 C
1659 04-05-2019 18:10:00 10.5 C 61 % 3.31 C
1660 04-05-2019 18:15:00 10.6 C 59 % 2.93 C
1661 04-05-2019 18:20:00 10.6 C 59 % 2.93 C
1662 04-05-2019 18:25:00 10.7 C 62 % 3.73 C
1663 04-05-2019 18:30:00 10.6 C 56 % 2.2 C
1664 04-05-2019 18:35:00 10.1 C 57 % 1.98 C
1665 04-05-2019 18:40:00 9.6 C 58 % 1.75 C
1666 04-05-2019 18:45:00 9.7 C 62 % 2.78 C
1667 04-05-2019 18:50:00 10 C 65 % 3.73 C
1668 04-05-2019 18:55:00 10.1 C 66 % 4.05 C
1669 04-05-2019 19:00:00 10.2 C 68 % 4.57 C
1670 04-05-2019 19:05:00 10.2 C 67 % 4.36 C
1671 04-05-2019 19:10:00 10.1 C 65 % 3.83 C
1672 04-05-2019 19:15:00 10 C 67 % 4.16 C
1673 04-05-2019 19:20:00 9.8 C 64 % 3.32 C
1674 04-05-2019 19:25:00 9.6 C 65 % 3.35 C
1675 04-05-2019 19:30:00 9.3 C 67 % 3.5 C
Sensor: Nr:Datum:Temp:Feuchte:Taupunkt:
Aussen-T/F 1676 04-05-2019 19:35:00 9.2 C 65 % 2.97 C
1677 04-05-2019 19:40:00 8.9 C 67 % 3.12 C
1678 04-05-2019 19:45:00 8.4 C 68 % 2.85 C
1679 04-05-2019 19:50:00 8.1 C 71 % 3.17 C
1680 04-05-2019 19:55:00 7.8 C 73 % 3.27 C
1681 04-05-2019 20:00:00 7.8 C 75 % 3.65 C
1682 04-05-2019 20:05:00 7.8 C 75 % 3.65 C
1683 04-05-2019 20:10:00 7.8 C 74 % 3.46 C
1684 04-05-2019 20:15:00 7.8 C 74 % 3.46 C
1685 04-05-2019 20:20:00 7.7 C 72 % 2.98 C
1686 04-05-2019 20:25:00 7.6 C 73 % 3.08 C
1687 04-05-2019 20:30:00 7.5 C 74 % 3.17 C
1688 04-05-2019 20:35:00 7.4 C 76 % 3.45 C
1689 04-05-2019 20:40:00 7.3 C 77 % 3.54 C
1690 04-05-2019 20:45:00 7.1 C 76 % 3.16 C
1691 04-05-2019 20:50:00 7 C 76 % 3.07 C
1692 04-05-2019 20:55:00 6.9 C 77 % 3.16 C
1693 04-05-2019 21:00:00 6.8 C 78 % 3.24 C
1694 04-05-2019 21:05:00 6.8 C 77 % 3.06 C
1695 04-05-2019 21:10:00 6.7 C 78 % 3.14 C
1696 04-05-2019 21:15:00 6.7 C 78 % 3.14 C
1697 04-05-2019 21:20:00 6.7 C 78 % 3.14 C
1698 04-05-2019 21:25:00 6.6 C 78 % 3.05 C
1699 04-05-2019 21:30:00 6.6 C 79 % 3.23 C
1700 04-05-2019 21:35:00 6.4 C 79 % 3.03 C
Sensor: Nr:Datum:Temp:Feuchte:Taupunkt:
Aussen-T/F 1701 04-05-2019 21:40:00 6.3 C 81 % 3.29 C
1702 04-05-2019 21:45:00 6.2 C 81 % 3.19 C
1703 04-05-2019 21:50:00 6.1 C 81 % 3.09 C
1704 04-05-2019 21:55:00 6 C 82 % 3.17 C
1705 04-05-2019 22:00:00 5.8 C 83 % 3.14 C
1706 04-05-2019 22:05:00 5.6 C 83 % 2.95 C
1707 04-05-2019 22:10:00 5.5 C 84 % 3.02 C
1708 04-05-2019 22:15:00 5.3 C 84 % 2.82 C
1709 04-05-2019 22:20:00 5.3 C 84 % 2.82 C
1710 04-05-2019 22:25:00 5.1 C 85 % 2.79 C
1711 04-05-2019 22:30:00 5 C 85 % 2.69 C
1712 04-05-2019 22:35:00 4.8 C 86 % 2.66 C
1713 04-05-2019 22:40:00 4.7 C 86 % 2.56 C
1714 04-05-2019 22:45:00 4.5 C 86 % 2.37 C
1715 04-05-2019 22:50:00 4.3 C 87 % 2.33 C
1716 04-05-2019 22:55:00 4.2 C 87 % 2.23 C
1717 04-05-2019 23:00:00 4 C 88 % 2.2 C
1718 04-05-2019 23:05:00 3.9 C 89 % 2.26 C
1719 04-05-2019 23:10:00 3.9 C 89 % 2.26 C
1720 04-05-2019 23:15:00 3.9 C 89 % 2.26 C
1721 04-05-2019 23:20:00 3.8 C 90 % 2.31 C
1722 04-05-2019 23:25:00 3.8 C 90 % 2.31 C
1723 04-05-2019 23:30:00 3.8 C 90 % 2.31 C
1724 04-05-2019 23:35:00 3.8 C 90 % 2.31 C
1725 04-05-2019 23:40:00 3.7 C 90 % 2.22 C
Sensor: Nr:Datum:Temp:Feuchte:Taupunkt:
Aussen-T/F 1726 04-05-2019 23:45:00 3.7 C 90 % 2.22 C
1727 04-05-2019 23:50:00 3.7 C 90 % 2.22 C
1728 04-05-2019 23:55:00 3.6 C 91 % 2.27 C
1729 05-05-2019 00:00:00 3.6 C 91 % 2.27 C
1730 05-05-2019 00:05:00 3.6 C 91 % 2.27 C
1731 05-05-2019 00:10:00 3.6 C 91 % 2.27 C
1732 05-05-2019 00:15:00 3.7 C 92 % 2.52 C
1733 05-05-2019 00:20:00 3.7 C 92 % 2.52 C
1734 05-05-2019 00:25:00 3.7 C 92 % 2.52 C
1735 05-05-2019 00:30:00 3.8 C 92 % 2.62 C
1736 05-05-2019 00:35:00 3.8 C 92 % 2.62 C
1737 05-05-2019 00:40:00 3.8 C 92 % 2.62 C
1738 05-05-2019 00:45:00 3.8 C 92 % 2.62 C
1739 05-05-2019 00:50:00 3.8 C 92 % 2.62 C
1740 05-05-2019 00:55:00 3.7 C 92 % 2.52 C
1741 05-05-2019 01:00:00 3.8 C 92 % 2.62 C
1742 05-05-2019 01:05:00 3.7 C 92 % 2.52 C
1743 05-05-2019 01:10:00 3.7 C 92 % 2.52 C
1744 05-05-2019 01:15:00 3.7 C 92 % 2.52 C
1745 05-05-2019 01:20:00 3.7 C 93 % 2.68 C
1746 05-05-2019 01:25:00 3.8 C 93 % 2.77 C
1747 05-05-2019 01:30:00 3.9 C 93 % 2.87 C
1748 05-05-2019 01:35:00 3.9 C 93 % 2.87 C
1749 05-05-2019 01:40:00 3.9 C 93 % 2.87 C
1750 05-05-2019 01:45:00 3.9 C 93 % 2.87 C
Sensor: Nr:Datum:Temp:Feuchte:Taupunkt:
Aussen-T/F 1751 05-05-2019 01:50:00 3.9 C 93 % 2.87 C
1752 05-05-2019 01:55:00 3.8 C 93 % 2.77 C
1753 05-05-2019 02:00:00 3.8 C 93 % 2.77 C
1754 05-05-2019 02:05:00 3.7 C 93 % 2.68 C
1755 05-05-2019 02:10:00 3.6 C 92 % 2.42 C
1756 05-05-2019 02:15:00 3.5 C 92 % 2.33 C
1757 05-05-2019 02:20:00 3.4 C 92 % 2.23 C
1758 05-05-2019 02:25:00 3.3 C 92 % 2.13 C
1759 05-05-2019 02:30:00 3.3 C 93 % 2.28 C
1760 05-05-2019 02:35:00 3.4 C 93 % 2.38 C
1761 05-05-2019 02:40:00 3.4 C 93 % 2.38 C
1762 05-05-2019 02:45:00 3.4 C 93 % 2.38 C
1763 05-05-2019 02:50:00 3.4 C 93 % 2.38 C
1764 05-05-2019 02:55:00 3.3 C 93 % 2.28 C
1765 05-05-2019 03:00:00 3.3 C 93 % 2.28 C
1766 05-05-2019 03:05:00 3.4 C 94 % 2.53 C
1767 05-05-2019 03:10:00 3.5 C 94 % 2.63 C
1768 05-05-2019 03:15:00 3.6 C 94 % 2.73 C
1769 05-05-2019 03:20:00 3.7 C 94 % 2.83 C
1770 05-05-2019 03:25:00 3.7 C 94 % 2.83 C
1771 05-05-2019 03:30:00 3.8 C 94 % 2.93 C
1772 05-05-2019 03:35:00 3.8 C 94 % 2.93 C
1773 05-05-2019 03:40:00 3.8 C 94 % 2.93 C
1774 05-05-2019 03:45:00 3.9 C 94 % 3.02 C
1775 05-05-2019 03:50:00 3.9 C 93 % 2.87 C
Sensor: Nr:Datum:Temp:Feuchte:Taupunkt:
Aussen-T/F 1776 05-05-2019 03:55:00 3.8 C 93 % 2.77 C
1777 05-05-2019 04:00:00 3.8 C 93 % 2.77 C
1778 05-05-2019 04:05:00 3.8 C 93 % 2.77 C
1779 05-05-2019 04:10:00 3.8 C 93 % 2.77 C
1780 05-05-2019 04:15:00 3.7 C 93 % 2.68 C
1781 05-05-2019 04:20:00 3.7 C 93 % 2.68 C
1782 05-05-2019 04:25:00 3.7 C 93 % 2.68 C
1783 05-05-2019 04:30:00 3.7 C 93 % 2.68 C
1784 05-05-2019 04:35:00 3.7 C 93 % 2.68 C
1785 05-05-2019 04:40:00 3.6 C 93 % 2.58 C
1786 05-05-2019 04:45:00 3.6 C 92 % 2.42 C
1787 05-05-2019 04:50:00 3.6 C 92 % 2.42 C
1788 05-05-2019 04:55:00 3.6 C 92 % 2.42 C
1789 05-05-2019 05:00:00 3.5 C 92 % 2.33 C
1790 05-05-2019 05:05:00 3.5 C 92 % 2.33 C
1791 05-05-2019 05:10:00 3.4 C 92 % 2.23 C
1792 05-05-2019 05:15:00 3.4 C 92 % 2.23 C
1793 05-05-2019 05:20:00 3.3 C 92 % 2.13 C
1794 05-05-2019 05:25:00 3.3 C 92 % 2.13 C
1795 05-05-2019 05:30:00 3.3 C 92 % 2.13 C
1796 05-05-2019 05:35:00 3.3 C 92 % 2.13 C
1797 05-05-2019 05:40:00 3.3 C 92 % 2.13 C
1798 05-05-2019 05:45:00 3.3 C 92 % 2.13 C
1799 05-05-2019 05:50:00 3.2 C 92 % 2.03 C
1800 05-05-2019 05:55:00 3.2 C 92 % 2.03 C
Sensor: Nr:Datum:Temp:Feuchte:Taupunkt:
Aussen-T/F 1801 05-05-2019 06:00:00 3.1 C 92 % 1.93 C
1802 05-05-2019 06:05:00 3.1 C 92 % 1.93 C
1803 05-05-2019 06:10:00 3 C 92 % 1.83 C
1804 05-05-2019 06:15:00 2.9 C 92 % 1.73 C
1805 05-05-2019 06:20:00 2.8 C 92 % 1.63 C
1806 05-05-2019 06:25:00 2.7 C 92 % 1.53 C
1807 05-05-2019 06:30:00 2.7 C 92 % 1.53 C
1808 05-05-2019 06:35:00 2.6 C 92 % 1.43 C
1809 05-05-2019 06:40:00 2.5 C 92 % 1.34 C
1810 05-05-2019 06:45:00 2.5 C 92 % 1.34 C
1811 05-05-2019 06:50:00 2.5 C 92 % 1.34 C
1812 05-05-2019 06:55:00 2.4 C 93 % 1.39 C
1813 05-05-2019 07:00:00 2.4 C 93 % 1.39 C
1814 05-05-2019 07:05:00 2.4 C 93 % 1.39 C
1815 05-05-2019 07:10:00 2.4 C 93 % 1.39 C
1816 05-05-2019 07:15:00 2.3 C 93 % 1.29 C
1817 05-05-2019 07:20:00 2.3 C 93 % 1.29 C
1818 05-05-2019 07:25:00 2.3 C 93 % 1.29 C
1819 05-05-2019 07:30:00 2.3 C 93 % 1.29 C
1820 05-05-2019 07:35:00 2.3 C 93 % 1.29 C
1821 05-05-2019 07:40:00 2.5 C 94 % 1.63 C
1822 05-05-2019 07:45:00 2.7 C 94 % 1.83 C
1823 05-05-2019 07:50:00 2.8 C 94 % 1.93 C
1824 05-05-2019 07:55:00 2.9 C 94 % 2.03 C
1825 05-05-2019 08:00:00 2.9 C 94 % 2.03 C
Sensor: Nr:Datum:Temp:Feuchte:Taupunkt:
Aussen-T/F 1826 05-05-2019 08:05:00 3 C 94 % 2.13 C
1827 05-05-2019 08:10:00 3.1 C 94 % 2.23 C
1828 05-05-2019 08:15:00 3.1 C 94 % 2.23 C
1829 05-05-2019 08:20:00 3.2 C 94 % 2.33 C
1830 05-05-2019 08:25:00 3.3 C 94 % 2.43 C
1831 05-05-2019 08:30:00 3.3 C 94 % 2.43 C
1832 05-05-2019 08:35:00 3.4 C 94 % 2.53 C
1833 05-05-2019 08:40:00 3.6 C 94 % 2.73 C
1834 05-05-2019 08:45:00 3.7 C 94 % 2.83 C
1835 05-05-2019 08:50:00 3.8 C 94 % 2.93 C
1836 05-05-2019 08:55:00 3.9 C 94 % 3.02 C
1837 05-05-2019 09:00:00 3.9 C 94 % 3.02 C
1838 05-05-2019 09:05:00 4.1 C 94 % 3.22 C
1839 05-05-2019 09:10:00 4.1 C 93 % 3.07 C
1840 05-05-2019 09:15:00 4.3 C 93 % 3.27 C
1841 05-05-2019 09:20:00 4.5 C 92 % 3.32 C
1842 05-05-2019 09:25:00 4.7 C 91 % 3.36 C
1843 05-05-2019 09:30:00 4.9 C 91 % 3.56 C
1844 05-05-2019 09:35:00 5.1 C 89 % 3.44 C
1845 05-05-2019 09:40:00 5.2 C 89 % 3.54 C
1846 05-05-2019 09:45:00 5.3 C 88 % 3.48 C
1847 05-05-2019 09:50:00 5.3 C 89 % 3.64 C
1848 05-05-2019 09:55:00 5.4 C 88 % 3.58 C
1849 05-05-2019 10:00:00 5.4 C 87 % 3.41 C
1850 05-05-2019 10:05:00 5.5 C 87 % 3.51 C
Sensor: Nr:Datum:Temp:Feuchte:Taupunkt:
Aussen-T/F 1851 05-05-2019 10:10:00 5.6 C 87 % 3.61 C
1852 05-05-2019 10:15:00 5.6 C 87 % 3.61 C
1853 05-05-2019 10:20:00 5.6 C 86 % 3.45 C
1854 05-05-2019 10:25:00 5.7 C 86 % 3.55 C
1855 05-05-2019 10:30:00 5.7 C 87 % 3.71 C
1856 05-05-2019 10:35:00 5.9 C 87 % 3.91 C
1857 05-05-2019 10:40:00 5.9 C 87 % 3.91 C
1858 05-05-2019 10:45:00 6.2 C 86 % 4.04 C
1859 05-05-2019 10:50:00 6.4 C 86 % 4.23 C
1860 05-05-2019 10:55:00 6.6 C 85 % 4.26 C
1861 05-05-2019 11:00:00 6.6 C 83 % 3.92 C
1862 05-05-2019 11:05:00 6.6 C 84 % 4.1 C
1863 05-05-2019 11:10:00 6.6 C 84 % 4.1 C
1864 05-05-2019 11:15:00 6.7 C 83 % 4.02 C
1865 05-05-2019 11:20:00 6.8 C 84 % 4.29 C
1866 05-05-2019 11:25:00 6.9 C 84 % 4.39 C
1867 05-05-2019 11:30:00 7.2 C 85 % 4.85 C
1868 05-05-2019 11:35:00 7.3 C 84 % 4.78 C
1869 05-05-2019 11:40:00 7.3 C 83 % 4.61 C
1870 05-05-2019 11:45:00 7.3 C 82 % 4.44 C
1871 05-05-2019 11:50:00 7.2 C 83 % 4.51 C
1872 05-05-2019 11:55:00 7.3 C 83 % 4.61 C
1873 05-05-2019 12:00:00 7.2 C 82 % 4.34 C
1874 05-05-2019 12:05:00 7.3 C 82 % 4.44 C
1875 05-05-2019 12:10:00 7.3 C 82 % 4.44 C
Sensor: Nr:Datum:Temp:Feuchte:Taupunkt:
Aussen-T/F 1876 05-05-2019 12:15:00 7.3 C 81 % 4.26 C
1877 05-05-2019 12:20:00 7.4 C 81 % 4.36 C
1878 05-05-2019 12:25:00 7.7 C 82 % 4.83 C
1879 05-05-2019 12:30:00 7.8 C 81 % 4.75 C
1880 05-05-2019 12:35:00 7.9 C 80 % 4.67 C
1881 05-05-2019 12:40:00 7.9 C 79 % 4.49 C
1882 05-05-2019 12:45:00 7.8 C 79 % 4.39 C
1883 05-05-2019 12:50:00 7.9 C 80 % 4.67 C
1884 05-05-2019 12:55:00 8.1 C 79 % 4.68 C
1885 05-05-2019 13:00:00 8.2 C 80 % 4.96 C
1886 05-05-2019 13:05:00 8.3 C 79 % 4.88 C
1887 05-05-2019 13:10:00 8.5 C 78 % 4.89 C
1888 05-05-2019 13:15:00 8.7 C 74 % 4.33 C
1889 05-05-2019 13:20:00 8.8 C 74 % 4.43 C
1890 05-05-2019 13:25:00 8.9 C 72 % 4.14 C
1891 05-05-2019 13:30:00 8.9 C 73 % 4.33 C
1892 05-05-2019 13:35:00 9.1 C 71 % 4.13 C
1893 05-05-2019 13:40:00 9.3 C 70 % 4.12 C
1894 05-05-2019 13:45:00 9.4 C 70 % 4.21 C
1895 05-05-2019 13:50:00 9.5 C 69 % 4.11 C
1896 05-05-2019 13:55:00 9.4 C 68 % 3.8 C
1897 05-05-2019 14:00:00 9.5 C 68 % 3.9 C
1898 05-05-2019 14:05:00 9.8 C 68 % 4.18 C
1899 05-05-2019 14:10:00 10 C 65 % 3.73 C
1900 05-05-2019 14:15:00 10.1 C 65 % 3.83 C
Sensor: Nr:Datum:Temp:Feuchte:Taupunkt:
Aussen-T/F 1901 05-05-2019 14:20:00 10 C 65 % 3.73 C
1902 05-05-2019 14:25:00 9.9 C 66 % 3.86 C
1903 05-05-2019 14:30:00 9.6 C 70 % 4.41 C
1904 05-05-2019 14:35:00 9.1 C 73 % 4.52 C
1905 05-05-2019 14:40:00 8.8 C 76 % 4.81 C
1906 05-05-2019 14:45:00 8.4 C 77 % 4.61 C
1907 05-05-2019 14:50:00 8.2 C 78 % 4.6 C
1908 05-05-2019 14:55:00 8.1 C 78 % 4.5 C
1909 05-05-2019 15:00:00 8.2 C 79 % 4.78 C
1910 05-05-2019 15:05:00 8.3 C 78 % 4.7 C
1911 05-05-2019 15:10:00 8.7 C 77 % 4.9 C
1912 05-05-2019 15:15:00 9.1 C 74 % 4.72 C
1913 05-05-2019 15:20:00 9.3 C 74 % 4.91 C
1914 05-05-2019 15:25:00 9.8 C 71 % 4.8 C
1915 05-05-2019 15:30:00 10.3 C 70 % 5.08 C
1916 05-05-2019 15:35:00 10.8 C 63 % 4.05 C
1917 05-05-2019 15:40:00 10.8 C 60 % 3.36 C
1918 05-05-2019 15:45:00 10.8 C 60 % 3.36 C
1919 05-05-2019 15:50:00 11 C 60 % 3.55 C
1920 05-05-2019 15:55:00 11.3 C 61 % 4.06 C
1921 05-05-2019 16:00:00 11.5 C 58 % 3.54 C
1922 05-05-2019 16:05:00 11.7 C 58 % 3.72 C
1923 05-05-2019 16:10:00 11.8 C 59 % 4.06 C
1924 05-05-2019 16:15:00 12.2 C 60 % 4.67 C
1925 05-05-2019 16:20:00 12.3 C 56 % 3.79 C
Sensor: Nr:Datum:Temp:Feuchte:Taupunkt:
Aussen-T/F 1926 05-05-2019 16:25:00 12.3 C 56 % 3.79 C
1927 05-05-2019 16:30:00 12.4 C 59 % 4.62 C
1928 05-05-2019 16:35:00 12.7 C 59 % 4.9 C
1929 05-05-2019 16:40:00 12.9 C 57 % 4.6 C
1930 05-05-2019 16:45:00 13.2 C 54 % 4.11 C
1931 05-05-2019 16:50:00 13.1 C 56 % 4.53 C
1932 05-05-2019 16:55:00 12.6 C 59 % 4.81 C
1933 05-05-2019 17:00:00 11.8 C 61 % 4.53 C
1934 05-05-2019 17:05:00 11.6 C 63 % 4.81 C
1935 05-05-2019 17:10:00 11.7 C 62 % 4.67 C
1936 05-05-2019 17:15:00 12.2 C 61 % 4.91 C
1937 05-05-2019 17:20:00 12.3 C 59 % 4.53 C
1938 05-05-2019 17:25:00 12.4 C 57 % 4.13 C
1939 05-05-2019 17:30:00 12.8 C 59 % 5 C
1940 05-05-2019 17:35:00 13.1 C 57 % 4.79 C
1941 05-05-2019 17:40:00 13.1 C 56 % 4.53 C
1942 05-05-2019 17:45:00 13.2 C 57 % 4.88 C
1943 05-05-2019 17:50:00 13.3 C 57 % 4.97 C
1944 05-05-2019 17:55:00 13.2 C 56 % 4.63 C
1945 05-05-2019 18:00:00 13.4 C 57 % 5.07 C
1946 05-05-2019 18:05:00 13.4 C 56 % 4.81 C
1947 05-05-2019 18:10:00 12.8 C 58 % 4.75 C
1948 05-05-2019 18:15:00 11.7 C 63 % 4.9 C
1949 05-05-2019 18:20:00 11 C 65 % 4.68 C
1950 05-05-2019 18:25:00 10.4 C 67 % 4.55 C
Sensor: Nr:Datum:Temp:Feuchte:Taupunkt:
Aussen-T/F 1951 05-05-2019 18:30:00 10.3 C 69 % 4.87 C
1952 05-05-2019 18:35:00 10.3 C 70 % 5.08 C
1953 05-05-2019 18:40:00 10.6 C 70 % 5.36 C
1954 05-05-2019 18:45:00 10.8 C 66 % 4.71 C
1955 05-05-2019 18:50:00 10.6 C 67 % 4.74 C
1956 05-05-2019 18:55:00 10.3 C 67 % 4.45 C
1957 05-05-2019 19:00:00 10.1 C 68 % 4.47 C
1958 05-05-2019 19:05:00 9.8 C 68 % 4.18 C
1959 05-05-2019 19:10:00 9.7 C 70 % 4.5 C
1960 05-05-2019 19:15:00 9.7 C 70 % 4.5 C
1961 05-05-2019 19:20:00 9.6 C 70 % 4.41 C
1962 05-05-2019 19:25:00 9.6 C 70 % 4.41 C
1963 05-05-2019 19:30:00 9.6 C 71 % 4.61 C
1964 05-05-2019 19:35:00 9.6 C 70 % 4.41 C
1965 05-05-2019 19:40:00 9.6 C 71 % 4.61 C
1966 05-05-2019 19:45:00 9.6 C 71 % 4.61 C
1967 05-05-2019 19:50:00 9.6 C 72 % 4.81 C
1968 05-05-2019 19:55:00 9.5 C 71 % 4.51 C
1969 05-05-2019 20:00:00 9.5 C 71 % 4.51 C
1970 05-05-2019 20:05:00 9.4 C 71 % 4.42 C
1971 05-05-2019 20:10:00 9.4 C 71 % 4.42 C
1972 05-05-2019 20:15:00 9.3 C 70 % 4.12 C
1973 05-05-2019 20:20:00 9.3 C 71 % 4.32 C
1974 05-05-2019 20:25:00 9.3 C 71 % 4.32 C
1975 05-05-2019 20:30:00 9.2 C 71 % 4.22 C
Sensor: Nr:Datum:Temp:Feuchte:Taupunkt:
Aussen-T/F 1976 05-05-2019 20:35:00 9.2 C 72 % 4.42 C
1977 05-05-2019 20:40:00 9.1 C 73 % 4.52 C
1978 05-05-2019 20:45:00 8.9 C 73 % 4.33 C
1979 05-05-2019 20:50:00 8.9 C 74 % 4.53 C
1980 05-05-2019 20:55:00 8.8 C 75 % 4.62 C
1981 05-05-2019 21:00:00 8.7 C 76 % 4.71 C
1982 05-05-2019 21:05:00 8.6 C 75 % 4.43 C
1983 05-05-2019 21:10:00 8.6 C 77 % 4.8 C
1984 05-05-2019 21:15:00 8.4 C 77 % 4.61 C
1985 05-05-2019 21:20:00 8.3 C 76 % 4.33 C
1986 05-05-2019 21:25:00 8.2 C 76 % 4.23 C
1987 05-05-2019 21:30:00 8.2 C 76 % 4.23 C
1988 05-05-2019 21:35:00 8.2 C 76 % 4.23 C
1989 05-05-2019 21:40:00 8.1 C 75 % 3.94 C
1990 05-05-2019 21:45:00 8 C 76 % 4.04 C
1991 05-05-2019 21:50:00 8 C 77 % 4.22 C
1992 05-05-2019 21:55:00 7.9 C 76 % 3.94 C
1993 05-05-2019 22:00:00 7.9 C 76 % 3.94 C
1994 05-05-2019 22:05:00 7.8 C 76 % 3.84 C
1995 05-05-2019 22:10:00 7.7 C 78 % 4.11 C
1996 05-05-2019 22:15:00 7.6 C 79 % 4.2 C
1997 05-05-2019 22:20:00 7.3 C 79 % 3.91 C
1998 05-05-2019 22:25:00 7.2 C 80 % 3.99 C
1999 05-05-2019 22:30:00 7.1 C 81 % 4.07 C
2000 05-05-2019 22:35:00 6.9 C 81 % 3.87 C
Sensor: Nr:Datum:Temp:Feuchte:Taupunkt:
Aussen-T/F 2001 05-05-2019 22:40:00 6.8 C 82 % 3.95 C
2002 05-05-2019 22:45:00 6.6 C 83 % 3.92 C
2003 05-05-2019 22:50:00 6.5 C 83 % 3.83 C
2004 05-05-2019 22:55:00 6.4 C 84 % 3.9 C
2005 05-05-2019 23:00:00 6.4 C 84 % 3.9 C
2006 05-05-2019 23:05:00 6.3 C 85 % 3.97 C
2007 05-05-2019 23:10:00 6.3 C 85 % 3.97 C
2008 05-05-2019 23:15:00 6.3 C 85 % 3.97 C
2009 05-05-2019 23:20:00 6.3 C 85 % 3.97 C
2010 05-05-2019 23:25:00 6.3 C 85 % 3.97 C
2011 05-05-2019 23:30:00 6.2 C 85 % 3.87 C
2012 05-05-2019 23:35:00 6.2 C 86 % 4.04 C
2013 05-05-2019 23:40:00 6.2 C 86 % 4.04 C
2014 05-05-2019 23:45:00 6.2 C 86 % 4.04 C
2015 05-05-2019 23:50:00 6.2 C 86 % 4.04 C
2016 05-05-2019 23:55:00 6.1 C 86 % 3.94 C
2017 06-05-2019 00:00:00 6.1 C 86 % 3.94 C
2018 06-05-2019 00:05:00 6.1 C 86 % 3.94 C
2019 06-05-2019 00:10:00 6.1 C 86 % 3.94 C
2020 06-05-2019 00:15:00 6.1 C 86 % 3.94 C
2021 06-05-2019 00:20:00 6.1 C 87 % 4.1 C
2022 06-05-2019 00:25:00 6.1 C 87 % 4.1 C
2023 06-05-2019 00:30:00 6.2 C 87 % 4.2 C
2024 06-05-2019 00:35:00 6.2 C 86 % 4.04 C
2025 06-05-2019 00:40:00 6.1 C 86 % 3.94 C
Sensor: Nr:Datum:Temp:Feuchte:Taupunkt:
Aussen-T/F 2026 06-05-2019 00:45:00 6.1 C 87 % 4.1 C
2027 06-05-2019 00:50:00 6.1 C 87 % 4.1 C
2028 06-05-2019 00:55:00 6.1 C 87 % 4.1 C
2029 06-05-2019 01:00:00 6.1 C 87 % 4.1 C
2030 06-05-2019 01:05:00 6.1 C 87 % 4.1 C
2031 06-05-2019 01:10:00 6.1 C 88 % 4.27 C
2032 06-05-2019 01:15:00 6.1 C 88 % 4.27 C
2033 06-05-2019 01:20:00 6 C 88 % 4.17 C
2034 06-05-2019 01:25:00 6 C 88 % 4.17 C
2035 06-05-2019 01:30:00 5.9 C 88 % 4.07 C
2036 06-05-2019 01:35:00 5.8 C 88 % 3.97 C
2037 06-05-2019 01:40:00 5.8 C 88 % 3.97 C
2038 06-05-2019 01:45:00 5.7 C 87 % 3.71 C
2039 06-05-2019 01:50:00 5.7 C 87 % 3.71 C
2040 06-05-2019 01:55:00 5.6 C 87 % 3.61 C
2041 06-05-2019 02:00:00 5.6 C 87 % 3.61 C
2042 06-05-2019 02:05:00 5.6 C 87 % 3.61 C
2043 06-05-2019 02:10:00 5.4 C 87 % 3.41 C
2044 06-05-2019 02:15:00 5.3 C 87 % 3.32 C
2045 06-05-2019 02:20:00 5.3 C 88 % 3.48 C
2046 06-05-2019 02:25:00 5.2 C 88 % 3.38 C
2047 06-05-2019 02:30:00 5.1 C 88 % 3.28 C
2048 06-05-2019 02:35:00 4.9 C 88 % 3.08 C
2049 06-05-2019 02:40:00 4.8 C 88 % 2.99 C
2050 06-05-2019 02:45:00 4.7 C 89 % 3.05 C
Sensor: Nr:Datum:Temp:Feuchte:Taupunkt:
Aussen-T/F 2051 06-05-2019 02:50:00 4.7 C 89 % 3.05 C
2052 06-05-2019 02:55:00 4.6 C 89 % 2.95 C
2053 06-05-2019 03:00:00 4.6 C 90 % 3.1 C
2054 06-05-2019 03:05:00 4.6 C 90 % 3.1 C
2055 06-05-2019 03:10:00 4.4 C 90 % 2.91 C
2056 06-05-2019 03:15:00 4.4 C 90 % 2.91 C
2057 06-05-2019 03:20:00 4.3 C 90 % 2.81 C
2058 06-05-2019 03:25:00 4.2 C 90 % 2.71 C
2059 06-05-2019 03:30:00 4.2 C 90 % 2.71 C
2060 06-05-2019 03:35:00 4.1 C 91 % 2.77 C
2061 06-05-2019 03:40:00 4.1 C 91 % 2.77 C
2062 06-05-2019 03:45:00 4.1 C 91 % 2.77 C
2063 06-05-2019 03:50:00 4.1 C 91 % 2.77 C
2064 06-05-2019 03:55:00 4 C 91 % 2.67 C
2065 06-05-2019 04:00:00 3.9 C 91 % 2.57 C
2066 06-05-2019 04:05:00 3.9 C 91 % 2.57 C
2067 06-05-2019 04:10:00 3.8 C 91 % 2.47 C
2068 06-05-2019 04:15:00 3.8 C 91 % 2.47 C
2069 06-05-2019 04:20:00 3.7 C 91 % 2.37 C
2070 06-05-2019 04:25:00 3.7 C 91 % 2.37 C
2071 06-05-2019 04:30:00 3.6 C 91 % 2.27 C
2072 06-05-2019 04:35:00 3.4 C 91 % 2.07 C
2073 06-05-2019 04:40:00 3.4 C 91 % 2.07 C
2074 06-05-2019 04:45:00 3.3 C 92 % 2.13 C
2075 06-05-2019 04:50:00 3.3 C 92 % 2.13 C
Sensor: Nr:Datum:Temp:Feuchte:Taupunkt:
Aussen-T/F 2076 06-05-2019 04:55:00 3.3 C 92 % 2.13 C
2077 06-05-2019 05:00:00 3.3 C 92 % 2.13 C
2078 06-05-2019 05:05:00 3.2 C 92 % 2.03 C
2079 06-05-2019 05:10:00 3.2 C 92 % 2.03 C
2080 06-05-2019 05:15:00 3.1 C 92 % 1.93 C
2081 06-05-2019 05:20:00 3.1 C 92 % 1.93 C
2082 06-05-2019 05:25:00 3 C 92 % 1.83 C
2083 06-05-2019 05:30:00 3 C 92 % 1.83 C
2084 06-05-2019 05:35:00 2.9 C 93 % 1.88 C
2085 06-05-2019 05:40:00 2.9 C 93 % 1.88 C
2086 06-05-2019 05:45:00 2.9 C 93 % 1.88 C
2087 06-05-2019 05:50:00 2.8 C 93 % 1.78 C
2088 06-05-2019 05:55:00 2.8 C 93 % 1.78 C
2089 06-05-2019 06:00:00 2.7 C 93 % 1.68 C
2090 06-05-2019 06:05:00 2.7 C 93 % 1.68 C
2091 06-05-2019 06:10:00 2.7 C 93 % 1.68 C
2092 06-05-2019 06:15:00 2.8 C 94 % 1.93 C
2093 06-05-2019 06:20:00 3 C 94 % 2.13 C
2094 06-05-2019 06:25:00 3.2 C 94 % 2.33 C
2095 06-05-2019 06:30:00 3.3 C 94 % 2.43 C
2096 06-05-2019 06:35:00 3.4 C 94 % 2.53 C
2097 06-05-2019 06:40:00 3.4 C 94 % 2.53 C
2098 06-05-2019 06:45:00 3.5 C 94 % 2.63 C
2099 06-05-2019 06:50:00 3.5 C 94 % 2.63 C
2100 06-05-2019 06:55:00 3.5 C 94 % 2.63 C
Sensor: Nr:Datum:Temp:Feuchte:Taupunkt:
Aussen-T/F 2101 06-05-2019 07:00:00 3.5 C 94 % 2.63 C
2102 06-05-2019 07:05:00 3.5 C 94 % 2.63 C
2103 06-05-2019 07:10:00 3.6 C 94 % 2.73 C
2104 06-05-2019 07:15:00 3.6 C 94 % 2.73 C
2105 06-05-2019 07:20:00 3.6 C 94 % 2.73 C
2106 06-05-2019 07:25:00 3.6 C 94 % 2.73 C
2107 06-05-2019 07:30:00 3.7 C 94 % 2.83 C
2108 06-05-2019 07:35:00 3.8 C 94 % 2.93 C
2109 06-05-2019 07:40:00 3.8 C 94 % 2.93 C
2110 06-05-2019 07:45:00 3.8 C 94 % 2.93 C
2111 06-05-2019 07:50:00 3.9 C 94 % 3.02 C
2112 06-05-2019 07:55:00 4.1 C 94 % 3.22 C
2113 06-05-2019 08:00:00 4.1 C 93 % 3.07 C
2114 06-05-2019 08:05:00 4.2 C 94 % 3.32 C
2115 06-05-2019 08:10:00 4.3 C 93 % 3.27 C
2116 06-05-2019 08:15:00 4.4 C 93 % 3.37 C
2117 06-05-2019 08:20:00 4.5 C 93 % 3.47 C
2118 06-05-2019 08:25:00 4.6 C 93 % 3.57 C
2119 06-05-2019 08:30:00 4.6 C 92 % 3.42 C
2120 06-05-2019 08:35:00 4.7 C 92 % 3.51 C
2121 06-05-2019 08:40:00 4.7 C 92 % 3.51 C
2122 06-05-2019 08:45:00 4.8 C 91 % 3.46 C
2123 06-05-2019 08:50:00 4.9 C 91 % 3.56 C
2124 06-05-2019 08:55:00 5 C 91 % 3.66 C
2125 06-05-2019 09:00:00 5.2 C 90 % 3.7 C
Sensor: Nr:Datum:Temp:Feuchte:Taupunkt:
Aussen-T/F 2126 06-05-2019 09:05:00 5.4 C 89 % 3.74 C
2127 06-05-2019 09:10:00 5.8 C 88 % 3.97 C
2128 06-05-2019 09:15:00 6 C 86 % 3.84 C
2129 06-05-2019 09:20:00 6.3 C 85 % 3.97 C
2130 06-05-2019 09:25:00 6.5 C 85 % 4.17 C
2131 06-05-2019 09:30:00 6.6 C 83 % 3.92 C
2132 06-05-2019 09:35:00 6.6 C 82 % 3.75 C
2133 06-05-2019 09:40:00 6.6 C 81 % 3.58 C
2134 06-05-2019 09:45:00 6.7 C 80 % 3.5 C
2135 06-05-2019 09:50:00 6.9 C 82 % 4.05 C
2136 06-05-2019 09:55:00 7.2 C 80 % 3.99 C
2137 06-05-2019 10:00:00 7.4 C 79 % 4 C
2138 06-05-2019 10:05:00 7.6 C 77 % 3.83 C
2139 06-05-2019 10:10:00 7.7 C 77 % 3.93 C
2140 06-05-2019 10:15:00 7.7 C 74 % 3.37 C
2141 06-05-2019 10:20:00 7.8 C 74 % 3.46 C
2142 06-05-2019 10:25:00 7.9 C 73 % 3.37 C
2143 06-05-2019 10:30:00 7.9 C 73 % 3.37 C
2144 06-05-2019 10:35:00 8 C 74 % 3.66 C
2145 06-05-2019 10:40:00 8.2 C 72 % 3.46 C
2146 06-05-2019 10:45:00 8.4 C 72 % 3.65 C
2147 06-05-2019 10:50:00 8.7 C 72 % 3.94 C
2148 06-05-2019 10:55:00 8.9 C 69 % 3.53 C
2149 06-05-2019 11:00:00 9.1 C 69 % 3.72 C
2150 06-05-2019 11:05:00 9.3 C 68 % 3.71 C
Sensor: Nr:Datum:Temp:Feuchte:Taupunkt:
Aussen-T/F 2151 06-05-2019 11:10:00 9.5 C 64 % 3.04 C
2152 06-05-2019 11:15:00 9.4 C 63 % 2.72 C
2153 06-05-2019 11:20:00 9.3 C 66 % 3.28 C
2154 06-05-2019 11:25:00 9.2 C 68 % 3.61 C
2155 06-05-2019 11:30:00 9.2 C 68 % 3.61 C
2156 06-05-2019 11:35:00 9.2 C 65 % 2.97 C
2157 06-05-2019 11:40:00 9.3 C 70 % 4.12 C
2158 06-05-2019 11:45:00 9.4 C 70 % 4.21 C
2159 06-05-2019 11:50:00 9.5 C 65 % 3.26 C
2160 06-05-2019 11:55:00 9.6 C 65 % 3.35 C
2161 06-05-2019 12:00:00 9.7 C 61 % 2.55 C
2162 06-05-2019 12:05:00 9.7 C 60 % 2.32 C
2163 06-05-2019 12:10:00 9.7 C 56 % 1.36 C
2164 06-05-2019 12:15:00 9.8 C 57 % 1.7 C
2165 06-05-2019 12:20:00 9.8 C 59 % 2.18 C
2166 06-05-2019 12:25:00 9.9 C 59 % 2.27 C
2167 06-05-2019 12:30:00 10.1 C 62 % 3.16 C
2168 06-05-2019 12:35:00 10.3 C 61 % 3.12 C
2169 06-05-2019 12:40:00 10.3 C 58 % 2.41 C
2170 06-05-2019 12:45:00 10.3 C 60 % 2.89 C
2171 06-05-2019 12:50:00 10.4 C 61 % 3.21 C
2172 06-05-2019 12:55:00 10.6 C 60 % 3.17 C
2173 06-05-2019 13:00:00 10.6 C 59 % 2.93 C
2174 06-05-2019 13:05:00 10.7 C 57 % 2.54 C
2175 06-05-2019 13:10:00 10.7 C 61 % 3.5 C
Sensor: Nr:Datum:Temp:Feuchte:Taupunkt:
Aussen-T/F 2176 06-05-2019 13:15:00 10.9 C 57 % 2.73 C
2177 06-05-2019 13:20:00 11 C 54 % 2.06 C
2178 06-05-2019 13:25:00 11 C 55 % 2.32 C
2179 06-05-2019 13:30:00 11 C 56 % 2.57 C
2180 06-05-2019 13:35:00 11.1 C 55 % 2.41 C
2181 06-05-2019 13:40:00 10.9 C 54 % 1.97 C
2182 06-05-2019 13:45:00 11.1 C 57 % 2.92 C
2183 06-05-2019 13:50:00 11.2 C 54 % 2.25 C
2184 06-05-2019 13:55:00 11.2 C 54 % 2.25 C
2185 06-05-2019 14:00:00 11.2 C 55 % 2.51 C
2186 06-05-2019 14:05:00 11.1 C 52 % 1.63 C
2187 06-05-2019 14:10:00 11.3 C 54 % 2.34 C
2188 06-05-2019 14:15:00 11.4 C 54 % 2.44 C
2189 06-05-2019 14:20:00 11.3 C 53 % 2.08 C
2190 06-05-2019 14:25:00 11.4 C 56 % 2.95 C
2191 06-05-2019 14:30:00 11.5 C 53 % 2.27 C
2192 06-05-2019 14:35:00 11.3 C 55 % 2.6 C
2193 06-05-2019 14:40:00 11.1 C 56 % 2.67 C
2194 06-05-2019 14:45:00 11.1 C 57 % 2.92 C
2195 06-05-2019 14:50:00 11.1 C 57 % 2.92 C
2196 06-05-2019 14:55:00 11.1 C 58 % 3.16 C
2197 06-05-2019 15:00:00 11.2 C 55 % 2.51 C
2198 06-05-2019 15:05:00 11.3 C 58 % 3.35 C
2199 06-05-2019 15:10:00 11.5 C 56 % 3.04 C
2200 06-05-2019 15:15:00 11.6 C 55 % 2.88 C
Sensor: Nr:Datum:Temp:Feuchte:Taupunkt:
Aussen-T/F 2201 06-05-2019 15:20:00 11.4 C 56 % 2.95 C
2202 06-05-2019 15:25:00 11.3 C 57 % 3.1 C
2203 06-05-2019 15:30:00 11.2 C 57 % 3.01 C
2204 06-05-2019 15:35:00 11.1 C 57 % 2.92 C
2205 06-05-2019 15:40:00 11.1 C 58 % 3.16 C
2206 06-05-2019 15:45:00 11.2 C 59 % 3.5 C
2207 06-05-2019 15:50:00 11.3 C 59 % 3.59 C
2208 06-05-2019 15:55:00 11.3 C 59 % 3.59 C
2209 06-05-2019 16:00:00 11.2 C 60 % 3.73 C
2210 06-05-2019 16:05:00 11.2 C 60 % 3.73 C
2211 06-05-2019 16:10:00 11.1 C 60 % 3.64 C
2212 06-05-2019 16:15:00 11.2 C 59 % 3.5 C
2213 06-05-2019 16:20:00 11.2 C 59 % 3.5 C
2214 06-05-2019 16:25:00 11.2 C 60 % 3.73 C
2215 06-05-2019 16:30:00 11.1 C 59 % 3.4 C
2216 06-05-2019 16:35:00 10.9 C 61 % 3.69 C
2217 06-05-2019 16:40:00 10.8 C 60 % 3.36 C
2218 06-05-2019 16:45:00 10.8 C 63 % 4.05 C
2219 06-05-2019 16:50:00 10.8 C 61 % 3.59 C
2220 06-05-2019 16:55:00 10.7 C 62 % 3.73 C
2221 06-05-2019 17:00:00 10.7 C 61 % 3.5 C
2222 06-05-2019 17:05:00 10.7 C 61 % 3.5 C
2223 06-05-2019 17:10:00 10.8 C 61 % 3.59 C
2224 06-05-2019 17:15:00 10.8 C 63 % 4.05 C
2225 06-05-2019 17:20:00 10.8 C 60 % 3.36 C
Sensor: Nr:Datum:Temp:Feuchte:Taupunkt:
Aussen-T/F 2226 06-05-2019 17:25:00 10.7 C 60 % 3.26 C
2227 06-05-2019 17:30:00 10.7 C 60 % 3.26 C
2228 06-05-2019 17:35:00 10.6 C 62 % 3.63 C
2229 06-05-2019 17:40:00 10.6 C 62 % 3.63 C
2230 06-05-2019 17:45:00 10.6 C 62 % 3.63 C
2231 06-05-2019 17:50:00 10.6 C 62 % 3.63 C
2232 06-05-2019 17:55:00 10.5 C 60 % 3.08 C
2233 06-05-2019 18:00:00 10.5 C 62 % 3.54 C
2234 06-05-2019 18:05:00 10.6 C 64 % 4.08 C
2235 06-05-2019 18:10:00 10.9 C 65 % 4.59 C
2236 06-05-2019 18:15:00 11.3 C 61 % 4.06 C
2237 06-05-2019 18:20:00 11.5 C 58 % 3.54 C
2238 06-05-2019 18:25:00 11.6 C 62 % 4.58 C
2239 06-05-2019 18:30:00 11.8 C 61 % 4.53 C
2240 06-05-2019 18:35:00 11.8 C 61 % 4.53 C
2241 06-05-2019 18:40:00 11.8 C 58 % 3.82 C
2242 06-05-2019 18:45:00 11.8 C 61 % 4.53 C
2243 06-05-2019 18:50:00 11.8 C 61 % 4.53 C
2244 06-05-2019 18:55:00 11.7 C 61 % 4.44 C
2245 06-05-2019 19:00:00 11.6 C 59 % 3.87 C
2246 06-05-2019 19:05:00 11.3 C 61 % 4.06 C
2247 06-05-2019 19:10:00 11.3 C 66 % 5.19 C
2248 06-05-2019 19:15:00 11.2 C 64 % 4.65 C
2249 06-05-2019 19:20:00 11 C 67 % 5.12 C
2250 06-05-2019 19:25:00 10.9 C 70 % 5.65 C
Sensor: Nr:Datum:Temp:Feuchte:Taupunkt:
Aussen-T/F 2251 06-05-2019 19:30:00 10.7 C 70 % 5.46 C
2252 06-05-2019 19:35:00 10.6 C 71 % 5.57 C
2253 06-05-2019 19:40:00 10.3 C 71 % 5.28 C
2254 06-05-2019 19:45:00 10.2 C 73 % 5.58 C
2255 06-05-2019 19:50:00 10.1 C 73 % 5.49 C
2256 06-05-2019 19:55:00 9.9 C 74 % 5.49 C
2257 06-05-2019 20:00:00 9.7 C 73 % 5.1 C
2258 06-05-2019 20:05:00 9.6 C 75 % 5.39 C
2259 06-05-2019 20:10:00 9.4 C 74 % 5.01 C
2260 06-05-2019 20:15:00 9.3 C 72 % 4.52 C
2261 06-05-2019 20:20:00 9.3 C 73 % 4.72 C
2262 06-05-2019 20:25:00 9.3 C 74 % 4.91 C
2263 06-05-2019 20:30:00 9.2 C 74 % 4.81 C
2264 06-05-2019 20:35:00 9.1 C 77 % 5.29 C
2265 06-05-2019 20:40:00 9.1 C 78 % 5.47 C
2266 06-05-2019 20:45:00 8.9 C 78 % 5.28 C
2267 06-05-2019 20:50:00 8.7 C 78 % 5.08 C
2268 06-05-2019 20:55:00 8.6 C 80 % 5.35 C
2269 06-05-2019 21:00:00 8.6 C 81 % 5.53 C
2270 06-05-2019 21:05:00 8.5 C 82 % 5.61 C
2271 06-05-2019 21:10:00 8.4 C 82 % 5.51 C
2272 06-05-2019 21:15:00 8.3 C 82 % 5.41 C
2273 06-05-2019 21:20:00 8.2 C 81 % 5.14 C
2274 06-05-2019 21:25:00 8.2 C 82 % 5.32 C
2275 06-05-2019 21:30:00 8.2 C 82 % 5.32 C
Sensor: Nr:Datum:Temp:Feuchte:Taupunkt:
Aussen-T/F 2276 06-05-2019 21:35:00 8.2 C 82 % 5.32 C
2277 06-05-2019 21:40:00 8.2 C 82 % 5.32 C
2278 06-05-2019 21:45:00 8.2 C 83 % 5.49 C
2279 06-05-2019 21:50:00 8.1 C 82 % 5.22 C
2280 06-05-2019 21:55:00 8.1 C 83 % 5.39 C
2281 06-05-2019 22:00:00 8 C 83 % 5.29 C
2282 06-05-2019 22:05:00 7.9 C 84 % 5.37 C
2283 06-05-2019 22:10:00 7.9 C 84 % 5.37 C
2284 06-05-2019 22:15:00 7.9 C 85 % 5.54 C
2285 06-05-2019 22:20:00 7.9 C 85 % 5.54 C
2286 06-05-2019 22:25:00 7.8 C 86 % 5.61 C
2287 06-05-2019 22:30:00 7.8 C 86 % 5.61 C
2288 06-05-2019 22:35:00 7.7 C 86 % 5.51 C
2289 06-05-2019 22:40:00 7.6 C 86 % 5.41 C
2290 06-05-2019 22:45:00 7.6 C 87 % 5.58 C
2291 06-05-2019 22:50:00 7.5 C 87 % 5.48 C
2292 06-05-2019 22:55:00 7.4 C 87 % 5.38 C
2293 06-05-2019 23:00:00 7.4 C 86 % 5.22 C
2294 06-05-2019 23:05:00 7.3 C 86 % 5.12 C
2295 06-05-2019 23:10:00 7.3 C 86 % 5.12 C
2296 06-05-2019 23:15:00 7.3 C 87 % 5.28 C
2297 06-05-2019 23:20:00 7.3 C 87 % 5.28 C
2298 06-05-2019 23:25:00 7.3 C 87 % 5.28 C
2299 06-05-2019 23:30:00 7.3 C 87 % 5.28 C
2300 06-05-2019 23:35:00 7.3 C 87 % 5.28 C
Sensor: Nr:Datum:Temp:Feuchte:Taupunkt:
Aussen-T/F 2301 06-05-2019 23:40:00 7.3 C 87 % 5.28 C
2302 06-05-2019 23:45:00 7.3 C 87 % 5.28 C
2303 06-05-2019 23:50:00 7.3 C 87 % 5.28 C
2304 06-05-2019 23:55:00 7.3 C 88 % 5.45 C
2305 07-05-2019 00:00:00 7.3 C 88 % 5.45 C
2306 07-05-2019 00:05:00 7.3 C 88 % 5.45 C
2307 07-05-2019 00:10:00 7.3 C 88 % 5.45 C
2308 07-05-2019 00:15:00 7.3 C 88 % 5.45 C
2309 07-05-2019 00:20:00 7.3 C 88 % 5.45 C
2310 07-05-2019 00:25:00 7.3 C 88 % 5.45 C
2311 07-05-2019 00:30:00 7.3 C 89 % 5.61 C
2312 07-05-2019 00:35:00 7.3 C 89 % 5.61 C
2313 07-05-2019 00:40:00 7.3 C 89 % 5.61 C
2314 07-05-2019 00:45:00 7.3 C 89 % 5.61 C
2315 07-05-2019 00:50:00 7.3 C 89 % 5.61 C
2316 07-05-2019 00:55:00 7.2 C 89 % 5.51 C
2317 07-05-2019 01:00:00 7.2 C 89 % 5.51 C
2318 07-05-2019 01:05:00 7.2 C 89 % 5.51 C
2319 07-05-2019 01:10:00 7.2 C 89 % 5.51 C
2320 07-05-2019 01:15:00 7.1 C 89 % 5.41 C
2321 07-05-2019 01:20:00 7.1 C 89 % 5.41 C
2322 07-05-2019 01:25:00 7.1 C 89 % 5.41 C
2323 07-05-2019 01:30:00 7.1 C 89 % 5.41 C
2324 07-05-2019 01:35:00 7 C 89 % 5.31 C
2325 07-05-2019 01:40:00 6.9 C 89 % 5.22 C
Sensor: Nr:Datum:Temp:Feuchte:Taupunkt:
Aussen-T/F 2326 07-05-2019 01:45:00 6.9 C 89 % 5.22 C
2327 07-05-2019 01:50:00 6.9 C 90 % 5.38 C
2328 07-05-2019 01:55:00 6.8 C 90 % 5.28 C
2329 07-05-2019 02:00:00 6.8 C 90 % 5.28 C
2330 07-05-2019 02:05:00 6.8 C 90 % 5.28 C
2331 07-05-2019 02:10:00 6.7 C 90 % 5.18 C
2332 07-05-2019 02:15:00 6.7 C 90 % 5.18 C
2333 07-05-2019 02:20:00 6.7 C 90 % 5.18 C
2334 07-05-2019 02:25:00 6.7 C 90 % 5.18 C
2335 07-05-2019 02:30:00 6.7 C 90 % 5.18 C
2336 07-05-2019 02:35:00 6.7 C 90 % 5.18 C
2337 07-05-2019 02:40:00 6.6 C 90 % 5.08 C
2338 07-05-2019 02:45:00 6.6 C 90 % 5.08 C
2339 07-05-2019 02:50:00 6.7 C 90 % 5.18 C
2340 07-05-2019 02:55:00 6.7 C 90 % 5.18 C
2341 07-05-2019 03:00:00 6.7 C 90 % 5.18 C
2342 07-05-2019 03:05:00 6.7 C 90 % 5.18 C
2343 07-05-2019 03:10:00 6.7 C 90 % 5.18 C
2344 07-05-2019 03:15:00 6.7 C 90 % 5.18 C
2345 07-05-2019 03:20:00 6.7 C 90 % 5.18 C
2346 07-05-2019 03:25:00 6.7 C 90 % 5.18 C
2347 07-05-2019 03:30:00 6.6 C 90 % 5.08 C
2348 07-05-2019 03:35:00 6.6 C 90 % 5.08 C
2349 07-05-2019 03:40:00 6.6 C 90 % 5.08 C
2350 07-05-2019 03:45:00 6.6 C 90 % 5.08 C
Sensor: Nr:Datum:Temp:Feuchte:Taupunkt:
Aussen-T/F 2351 07-05-2019 03:50:00 6.6 C 90 % 5.08 C
2352 07-05-2019 03:55:00 6.5 C 90 % 4.98 C
2353 07-05-2019 04:00:00 6.4 C 90 % 4.88 C
2354 07-05-2019 04:05:00 6.4 C 90 % 4.88 C
2355 07-05-2019 04:10:00 6.4 C 90 % 4.88 C
2356 07-05-2019 04:15:00 6.4 C 90 % 4.88 C
2357 07-05-2019 04:20:00 6.4 C 90 % 4.88 C
2358 07-05-2019 04:25:00 6.4 C 90 % 4.88 C
2359 07-05-2019 04:30:00 6.3 C 90 % 4.78 C
2360 07-05-2019 04:35:00 6.3 C 90 % 4.78 C
2361 07-05-2019 04:40:00 6.3 C 90 % 4.78 C
2362 07-05-2019 04:45:00 6.3 C 90 % 4.78 C
2363 07-05-2019 04:50:00 6.3 C 91 % 4.94 C
2364 07-05-2019 04:55:00 6.3 C 91 % 4.94 C
2365 07-05-2019 05:00:00 6.3 C 91 % 4.94 C
2366 07-05-2019 05:05:00 6.3 C 91 % 4.94 C
2367 07-05-2019 05:10:00 6.3 C 91 % 4.94 C
2368 07-05-2019 05:15:00 6.3 C 91 % 4.94 C
2369 07-05-2019 05:20:00 6.2 C 91 % 4.84 C
2370 07-05-2019 05:25:00 6.2 C 91 % 4.84 C
2371 07-05-2019 05:30:00 6.2 C 91 % 4.84 C
2372 07-05-2019 05:35:00 6.1 C 91 % 4.74 C
2373 07-05-2019 05:40:00 6.1 C 91 % 4.74 C
2374 07-05-2019 05:45:00 6.1 C 91 % 4.74 C
2375 07-05-2019 05:50:00 6 C 91 % 4.65 C
Sensor: Nr:Datum:Temp:Feuchte:Taupunkt:
Aussen-T/F 2376 07-05-2019 05:55:00 5.9 C 91 % 4.55 C
2377 07-05-2019 06:00:00 5.9 C 91 % 4.55 C
2378 07-05-2019 06:05:00 5.9 C 91 % 4.55 C
2379 07-05-2019 06:10:00 5.9 C 91 % 4.55 C
2380 07-05-2019 06:15:00 5.9 C 91 % 4.55 C
2381 07-05-2019 06:20:00 5.8 C 91 % 4.45 C
2382 07-05-2019 06:25:00 5.8 C 91 % 4.45 C
2383 07-05-2019 06:30:00 5.8 C 91 % 4.45 C
2384 07-05-2019 06:35:00 5.8 C 91 % 4.45 C
2385 07-05-2019 06:40:00 5.8 C 92 % 4.6 C
2386 07-05-2019 06:45:00 5.9 C 92 % 4.7 C
2387 07-05-2019 06:50:00 5.9 C 92 % 4.7 C
2388 07-05-2019 06:55:00 5.9 C 92 % 4.7 C
2389 07-05-2019 07:00:00 5.9 C 92 % 4.7 C
2390 07-05-2019 07:05:00 6 C 92 % 4.8 C
2391 07-05-2019 07:10:00 6.1 C 92 % 4.9 C
2392 07-05-2019 07:15:00 6.2 C 92 % 5 C
2393 07-05-2019 07:20:00 6.3 C 93 % 5.25 C
2394 07-05-2019 07:25:00 6.3 C 93 % 5.25 C
2395 07-05-2019 07:30:00 6.4 C 93 % 5.35 C
2396 07-05-2019 07:35:00 6.6 C 92 % 5.4 C
2397 07-05-2019 07:40:00 6.6 C 92 % 5.4 C
2398 07-05-2019 07:45:00 6.7 C 92 % 5.49 C
2399 07-05-2019 07:50:00 6.7 C 91 % 5.34 C
2400 07-05-2019 07:55:00 6.8 C 91 % 5.44 C
Sensor: Nr:Datum:Temp:Feuchte:Taupunkt:
Aussen-T/F 2401 07-05-2019 08:00:00 6.9 C 91 % 5.54 C
2402 07-05-2019 08:05:00 7 C 90 % 5.48 C
2403 07-05-2019 08:10:00 7.1 C 90 % 5.57 C
2404 07-05-2019 08:15:00 7.2 C 90 % 5.67 C
2405 07-05-2019 08:20:00 7.3 C 90 % 5.77 C
2406 07-05-2019 08:25:00 7.3 C 89 % 5.61 C
2407 07-05-2019 08:30:00 7.3 C 89 % 5.61 C
2408 07-05-2019 08:35:00 7.4 C 89 % 5.71 C
2409 07-05-2019 08:40:00 7.4 C 89 % 5.71 C
2410 07-05-2019 08:45:00 7.5 C 88 % 5.64 C
2411 07-05-2019 08:50:00 7.6 C 88 % 5.74 C
2412 07-05-2019 08:55:00 7.7 C 88 % 5.84 C
2413 07-05-2019 09:00:00 7.9 C 88 % 6.04 C
2414 07-05-2019 09:05:00 8 C 88 % 6.14 C
2415 07-05-2019 09:10:00 8.1 C 88 % 6.24 C
2416 07-05-2019 09:15:00 8.3 C 88 % 6.43 C
2417 07-05-2019 09:20:00 8.4 C 87 % 6.37 C
2418 07-05-2019 09:25:00 8.4 C 86 % 6.2 C
2419 07-05-2019 09:30:00 8.6 C 86 % 6.39 C
2420 07-05-2019 09:35:00 8.6 C 85 % 6.23 C
2421 07-05-2019 09:40:00 8.7 C 84 % 6.15 C
2422 07-05-2019 09:45:00 8.8 C 84 % 6.25 C
2423 07-05-2019 09:50:00 8.9 C 83 % 6.17 C
2424 07-05-2019 09:55:00 9 C 82 % 6.1 C
2425 07-05-2019 10:00:00 9.1 C 82 % 6.19 C
Sensor: Nr:Datum:Temp:Feuchte:Taupunkt:
Aussen-T/F 2426 07-05-2019 10:05:00 9.2 C 82 % 6.29 C
2427 07-05-2019 10:10:00 9.3 C 82 % 6.39 C
2428 07-05-2019 10:15:00 9.4 C 82 % 6.49 C
2429 07-05-2019 10:20:00 9.4 C 81 % 6.31 C
2430 07-05-2019 10:25:00 9.5 C 80 % 6.23 C
2431 07-05-2019 10:30:00 9.6 C 80 % 6.32 C
2432 07-05-2019 10:35:00 9.7 C 79 % 6.24 C
2433 07-05-2019 10:40:00 9.8 C 79 % 6.34 C
2434 07-05-2019 10:45:00 10 C 79 % 6.53 C
2435 07-05-2019 10:50:00 10.1 C 77 % 6.26 C
2436 07-05-2019 10:55:00 10.2 C 76 % 6.16 C
2437 07-05-2019 11:00:00 10.1 C 76 % 6.07 C
2438 07-05-2019 11:05:00 10.1 C 75 % 5.88 C
2439 07-05-2019 11:10:00 10.1 C 75 % 5.88 C
2440 07-05-2019 11:15:00 10.2 C 75 % 5.97 C
2441 07-05-2019 11:20:00 10.4 C 73 % 5.78 C
2442 07-05-2019 11:25:00 10.4 C 72 % 5.58 C
2443 07-05-2019 11:30:00 10.6 C 72 % 5.77 C
2444 07-05-2019 11:35:00 10.7 C 72 % 5.87 C
2445 07-05-2019 11:40:00 10.8 C 70 % 5.56 C
2446 07-05-2019 11:45:00 11 C 69 % 5.54 C
2447 07-05-2019 11:50:00 11.2 C 67 % 5.31 C
2448 07-05-2019 11:55:00 11.3 C 65 % 4.97 C
2449 07-05-2019 12:00:00 11.5 C 62 % 4.48 C
2450 07-05-2019 12:05:00 11.7 C 64 % 5.13 C
Sensor: Nr:Datum:Temp:Feuchte:Taupunkt:
Aussen-T/F 2451 07-05-2019 12:10:00 11.8 C 61 % 4.53 C
2452 07-05-2019 12:15:00 11.9 C 61 % 4.63 C
2453 07-05-2019 12:20:00 12.1 C 61 % 4.82 C
2454 07-05-2019 12:25:00 12.1 C 61 % 4.82 C
2455 07-05-2019 12:30:00 12 C 60 % 4.49 C
2456 07-05-2019 12:35:00 11.9 C 60 % 4.39 C
2457 07-05-2019 12:40:00 11.9 C 60 % 4.39 C
2458 07-05-2019 12:45:00 11.9 C 58 % 3.91 C
2459 07-05-2019 12:50:00 11.9 C 58 % 3.91 C
2460 07-05-2019 12:55:00 11.9 C 60 % 4.39 C
2461 07-05-2019 13:00:00 11.8 C 59 % 4.06 C
2462 07-05-2019 13:05:00 11.7 C 60 % 4.2 C
2463 07-05-2019 13:10:00 11.7 C 58 % 3.72 C
2464 07-05-2019 13:15:00 11.6 C 58 % 3.63 C
2465 07-05-2019 13:20:00 11.7 C 60 % 4.2 C
2466 07-05-2019 13:25:00 11.7 C 59 % 3.97 C
2467 07-05-2019 13:30:00 11.7 C 58 % 3.72 C
2468 07-05-2019 13:35:00 11.8 C 59 % 4.06 C
2469 07-05-2019 13:40:00 11.9 C 59 % 4.15 C
2470 07-05-2019 13:45:00 12.1 C 58 % 4.1 C
2471 07-05-2019 13:50:00 12.3 C 58 % 4.28 C
2472 07-05-2019 13:55:00 12.4 C 58 % 4.38 C
2473 07-05-2019 14:00:00 12.6 C 55 % 3.81 C
2474 07-05-2019 14:05:00 12.7 C 55 % 3.9 C
2475 07-05-2019 14:10:00 12.8 C 57 % 4.5 C
Sensor: Nr:Datum:Temp:Feuchte:Taupunkt:
Aussen-T/F 2476 07-05-2019 14:15:00 12.8 C 55 % 4 C
2477 07-05-2019 14:20:00 12.7 C 54 % 3.64 C
2478 07-05-2019 14:25:00 12.7 C 56 % 4.16 C
2479 07-05-2019 14:30:00 12.8 C 56 % 4.25 C
2480 07-05-2019 14:35:00 12.8 C 55 % 4 C
2481 07-05-2019 14:40:00 12.9 C 54 % 3.83 C
2482 07-05-2019 14:45:00 12.9 C 55 % 4.09 C
2483 07-05-2019 14:50:00 12.8 C 55 % 4 C
2484 07-05-2019 14:55:00 12.7 C 55 % 3.9 C
2485 07-05-2019 15:00:00 12.7 C 54 % 3.64 C
2486 07-05-2019 15:05:00 12.7 C 53 % 3.38 C
2487 07-05-2019 15:10:00 12.7 C 51 % 2.84 C
2488 07-05-2019 15:15:00 12.7 C 54 % 3.64 C
2489 07-05-2019 15:20:00 12.8 C 54 % 3.74 C
2490 07-05-2019 15:25:00 12.9 C 53 % 3.56 C
2491 07-05-2019 15:30:00 13.1 C 52 % 3.48 C
2492 07-05-2019 15:35:00 13.2 C 54 % 4.11 C
2493 07-05-2019 15:40:00 13.3 C 52 % 3.66 C
2494 07-05-2019 15:45:00 13.4 C 52 % 3.76 C
2495 07-05-2019 15:50:00 13.5 C 51 % 3.57 C
2496 07-05-2019 15:55:00 13.7 C 52 % 4.03 C
2497 07-05-2019 16:00:00 13.7 C 50 % 3.48 C
2498 07-05-2019 16:05:00 13.7 C 52 % 4.03 C
2499 07-05-2019 16:10:00 13.7 C 53 % 4.31 C
2500 07-05-2019 16:15:00 13.8 C 50 % 3.57 C
Sensor: Nr:Datum:Temp:Feuchte:Taupunkt:
Aussen-T/F 2501 07-05-2019 16:20:00 13.9 C 50 % 3.66 C
2502 07-05-2019 16:25:00 14 C 52 % 4.31 C
2503 07-05-2019 16:30:00 14.2 C 52 % 4.5 C
2504 07-05-2019 16:35:00 14.3 C 53 % 4.86 C
2505 07-05-2019 16:40:00 14.6 C 49 % 4.02 C
2506 07-05-2019 16:45:00 14.6 C 50 % 4.31 C
2507 07-05-2019 16:50:00 14.6 C 47 % 3.43 C
2508 07-05-2019 16:55:00 14.5 C 50 % 4.21 C
2509 07-05-2019 17:00:00 14.7 C 47 % 3.52 C
2510 07-05-2019 17:05:00 14.7 C 51 % 4.68 C
2511 07-05-2019 17:10:00 15.1 C 47 % 3.88 C
2512 07-05-2019 17:15:00 15.4 C 46 % 3.85 C
2513 07-05-2019 17:20:00 15.3 C 48 % 4.37 C
2514 07-05-2019 17:25:00 15.3 C 47 % 4.07 C
2515 07-05-2019 17:30:00 15 C 46 % 3.49 C
2516 07-05-2019 17:35:00 14.7 C 46 % 3.22 C
2517 07-05-2019 17:40:00 14.6 C 46 % 3.12 C
2518 07-05-2019 17:45:00 14.6 C 46 % 3.12 C
2519 07-05-2019 17:50:00 14.6 C 49 % 4.02 C
2520 07-05-2019 17:55:00 14.8 C 50 % 4.49 C
2521 07-05-2019 18:00:00 15.2 C 46 % 3.67 C
2522 07-05-2019 18:05:00 15.6 C 45 % 3.72 C
2523 07-05-2019 18:10:00 15.4 C 44 % 3.22 C
2524 07-05-2019 18:15:00 15.3 C 45 % 3.45 C
2525 07-05-2019 18:20:00 14.9 C 45 % 3.09 C
Sensor: Nr:Datum:Temp:Feuchte:Taupunkt:
Aussen-T/F 2526 07-05-2019 18:25:00 14.8 C 45 % 3 C
2527 07-05-2019 18:30:00 14.8 C 45 % 3 C
2528 07-05-2019 18:35:00 14.9 C 45 % 3.09 C
2529 07-05-2019 18:40:00 14.8 C 46 % 3.31 C
2530 07-05-2019 18:45:00 14.7 C 47 % 3.52 C
2531 07-05-2019 18:50:00 14.6 C 50 % 4.31 C
2532 07-05-2019 18:55:00 14.3 C 49 % 3.74 C
2533 07-05-2019 19:00:00 14.2 C 56 % 5.56 C
2534 07-05-2019 19:05:00 14.1 C 57 % 5.72 C
2535 07-05-2019 19:10:00 14 C 61 % 6.61 C
2536 07-05-2019 19:15:00 13.9 C 61 % 6.51 C
2537 07-05-2019 19:20:00 13.8 C 62 % 6.65 C
2538 07-05-2019 19:25:00 13.6 C 62 % 6.47 C
2539 07-05-2019 19:30:00 13.4 C 64 % 6.74 C
2540 07-05-2019 19:35:00 13.2 C 63 % 6.32 C
2541 07-05-2019 19:40:00 12.9 C 62 % 5.8 C
2542 07-05-2019 19:45:00 12.7 C 63 % 5.85 C
2543 07-05-2019 19:50:00 12.6 C 66 % 6.42 C
2544 07-05-2019 19:55:00 12.4 C 65 % 6.01 C
2545 07-05-2019 20:00:00 12.3 C 66 % 6.14 C
2546 07-05-2019 20:05:00 12.2 C 64 % 5.6 C
2547 07-05-2019 20:10:00 12 C 62 % 4.96 C
2548 07-05-2019 20:15:00 11.8 C 61 % 4.53 C
2549 07-05-2019 20:20:00 11.6 C 61 % 4.35 C
2550 07-05-2019 20:25:00 11.3 C 61 % 4.06 C
Sensor: Nr:Datum:Temp:Feuchte:Taupunkt:
Aussen-T/F 2551 07-05-2019 20:30:00 11.2 C 61 % 3.97 C
2552 07-05-2019 20:35:00 10.9 C 62 % 3.92 C
2553 07-05-2019 20:40:00 10.8 C 63 % 4.05 C
2554 07-05-2019 20:45:00 10.6 C 62 % 3.63 C
2555 07-05-2019 20:50:00 10.4 C 66 % 4.33 C
2556 07-05-2019 20:55:00 10.2 C 66 % 4.14 C
2557 07-05-2019 21:00:00 9.9 C 66 % 3.86 C
2558 07-05-2019 21:05:00 9.6 C 67 % 3.78 C
2559 07-05-2019 21:10:00 9.4 C 66 % 3.38 C
2560 07-05-2019 21:15:00 9.2 C 67 % 3.4 C
2561 07-05-2019 21:20:00 9.1 C 68 % 3.52 C
2562 07-05-2019 21:25:00 9 C 68 % 3.42 C
2563 07-05-2019 21:30:00 8.9 C 68 % 3.32 C
2564 07-05-2019 21:35:00 8.8 C 68 % 3.23 C
2565 07-05-2019 21:40:00 8.7 C 69 % 3.34 C
2566 07-05-2019 21:45:00 8.6 C 71 % 3.65 C
2567 07-05-2019 21:50:00 8.6 C 71 % 3.65 C
2568 07-05-2019 21:55:00 8.4 C 71 % 3.46 C
2569 07-05-2019 22:00:00 8.3 C 72 % 3.56 C
2570 07-05-2019 22:05:00 8.2 C 73 % 3.66 C
2571 07-05-2019 22:10:00 8.2 C 74 % 3.85 C
2572 07-05-2019 22:15:00 8.2 C 75 % 4.04 C
2573 07-05-2019 22:20:00 8.1 C 75 % 3.94 C
2574 07-05-2019 22:25:00 8.1 C 76 % 4.13 C
2575 07-05-2019 22:30:00 8 C 76 % 4.04 C
Sensor: Nr:Datum:Temp:Feuchte:Taupunkt:
Aussen-T/F 2576 07-05-2019 22:35:00 7.9 C 77 % 4.12 C
2577 07-05-2019 22:40:00 7.8 C 78 % 4.21 C
2578 07-05-2019 22:45:00 7.7 C 77 % 3.93 C
2579 07-05-2019 22:50:00 7.7 C 79 % 4.3 C
2580 07-05-2019 22:55:00 7.6 C 79 % 4.2 C
2581 07-05-2019 23:00:00 7.4 C 78 % 3.82 C
2582 07-05-2019 23:05:00 7.3 C 79 % 3.91 C
2583 07-05-2019 23:10:00 7.2 C 79 % 3.81 C
2584 07-05-2019 23:15:00 7.1 C 80 % 3.89 C
2585 07-05-2019 23:20:00 7 C 80 % 3.79 C
2586 07-05-2019 23:25:00 6.9 C 81 % 3.87 C
2587 07-05-2019 23:30:00 6.8 C 82 % 3.95 C
2588 07-05-2019 23:35:00 6.7 C 82 % 3.85 C
2589 07-05-2019 23:40:00 6.7 C 82 % 3.85 C
2590 07-05-2019 23:45:00 6.7 C 82 % 3.85 C
2591 07-05-2019 23:50:00 6.7 C 82 % 3.85 C
2592 07-05-2019 23:55:00 6.7 C 82 % 3.85 C
2593 08-05-2019 00:00:00 6.7 C 83 % 4.02 C
2594 08-05-2019 00:05:00 6.6 C 83 % 3.92 C
2595 08-05-2019 00:10:00 6.5 C 82 % 3.66 C
2596 08-05-2019 00:15:00 6.3 C 83 % 3.63 C
2597 08-05-2019 00:20:00 6.3 C 83 % 3.63 C
2598 08-05-2019 00:25:00 6.2 C 83 % 3.53 C
2599 08-05-2019 00:30:00 6.2 C 83 % 3.53 C
2600 08-05-2019 00:35:00 6.3 C 83 % 3.63 C
Sensor: Nr:Datum:Temp:Feuchte:Taupunkt:
Aussen-T/F 2601 08-05-2019 00:40:00 6.3 C 83 % 3.63 C
2602 08-05-2019 00:45:00 6.2 C 83 % 3.53 C
2603 08-05-2019 00:50:00 6.2 C 83 % 3.53 C
2604 08-05-2019 00:55:00 6.1 C 83 % 3.44 C
2605 08-05-2019 01:00:00 6.1 C 83 % 3.44 C
2606 08-05-2019 01:05:00 6 C 84 % 3.51 C
2607 08-05-2019 01:10:00 5.9 C 84 % 3.41 C
2608 08-05-2019 01:15:00 5.9 C 84 % 3.41 C
2609 08-05-2019 01:20:00 5.9 C 84 % 3.41 C
2610 08-05-2019 01:25:00 5.8 C 84 % 3.31 C
2611 08-05-2019 01:30:00 5.8 C 85 % 3.48 C
2612 08-05-2019 01:35:00 5.7 C 85 % 3.38 C
2613 08-05-2019 01:40:00 5.6 C 85 % 3.28 C
2614 08-05-2019 01:45:00 5.5 C 85 % 3.18 C
2615 08-05-2019 01:50:00 5.4 C 85 % 3.09 C
2616 08-05-2019 01:55:00 5.4 C 85 % 3.09 C
2617 08-05-2019 02:00:00 5.3 C 86 % 3.15 C
2618 08-05-2019 02:05:00 5.3 C 86 % 3.15 C
2619 08-05-2019 02:10:00 5.2 C 86 % 3.05 C
2620 08-05-2019 02:15:00 5.2 C 86 % 3.05 C
2621 08-05-2019 02:20:00 5.2 C 87 % 3.22 C
2622 08-05-2019 02:25:00 5.2 C 87 % 3.22 C
2623 08-05-2019 02:30:00 5.2 C 87 % 3.22 C
2624 08-05-2019 02:35:00 5.1 C 87 % 3.12 C
2625 08-05-2019 02:40:00 5.1 C 88 % 3.28 C
Sensor: Nr:Datum:Temp:Feuchte:Taupunkt:
Aussen-T/F 2626 08-05-2019 02:45:00 5.1 C 88 % 3.28 C
2627 08-05-2019 02:50:00 5 C 88 % 3.18 C
2628 08-05-2019 02:55:00 4.9 C 88 % 3.08 C
2629 08-05-2019 03:00:00 4.9 C 89 % 3.24 C
2630 08-05-2019 03:05:00 4.8 C 88 % 2.99 C
2631 08-05-2019 03:10:00 4.8 C 89 % 3.14 C
2632 08-05-2019 03:15:00 4.7 C 89 % 3.05 C
2633 08-05-2019 03:20:00 4.7 C 89 % 3.05 C
2634 08-05-2019 03:25:00 4.7 C 89 % 3.05 C
2635 08-05-2019 03:30:00 4.7 C 90 % 3.2 C
2636 08-05-2019 03:35:00 4.7 C 90 % 3.2 C
2637 08-05-2019 03:40:00 4.6 C 90 % 3.1 C
2638 08-05-2019 03:45:00 4.6 C 90 % 3.1 C
2639 08-05-2019 03:50:00 4.6 C 90 % 3.1 C
2640 08-05-2019 03:55:00 4.6 C 90 % 3.1 C
2641 08-05-2019 04:00:00 4.7 C 91 % 3.36 C
2642 08-05-2019 04:05:00 4.8 C 91 % 3.46 C
2643 08-05-2019 04:10:00 4.8 C 91 % 3.46 C
2644 08-05-2019 04:15:00 4.9 C 91 % 3.56 C
2645 08-05-2019 04:20:00 4.9 C 91 % 3.56 C
2646 08-05-2019 04:25:00 4.9 C 91 % 3.56 C
2647 08-05-2019 04:30:00 5 C 91 % 3.66 C
2648 08-05-2019 04:35:00 5 C 91 % 3.66 C
2649 08-05-2019 04:40:00 5.1 C 91 % 3.76 C
2650 08-05-2019 04:45:00 5.1 C 91 % 3.76 C
Sensor: Nr:Datum:Temp:Feuchte:Taupunkt:
Aussen-T/F 2651 08-05-2019 04:50:00 5.1 C 91 % 3.76 C
2652 08-05-2019 04:55:00 5.1 C 91 % 3.76 C
2653 08-05-2019 05:00:00 5.2 C 91 % 3.85 C
2654 08-05-2019 05:05:00 5.2 C 91 % 3.85 C
2655 08-05-2019 05:10:00 5.2 C 91 % 3.85 C
2656 08-05-2019 05:15:00 5.2 C 91 % 3.85 C
2657 08-05-2019 05:20:00 5.2 C 91 % 3.85 C
2658 08-05-2019 05:25:00 5.2 C 91 % 3.85 C
2659 08-05-2019 05:30:00 5.3 C 91 % 3.95 C
2660 08-05-2019 05:35:00 5.3 C 91 % 3.95 C
2661 08-05-2019 05:40:00 5.3 C 91 % 3.95 C
2662 08-05-2019 05:45:00 5.3 C 91 % 3.95 C
2663 08-05-2019 05:50:00 5.3 C 91 % 3.95 C
2664 08-05-2019 05:55:00 5.3 C 91 % 3.95 C
2665 08-05-2019 06:00:00 5.3 C 91 % 3.95 C
2666 08-05-2019 06:05:00 5.4 C 91 % 4.05 C
2667 08-05-2019 06:10:00 5.4 C 92 % 4.21 C
2668 08-05-2019 06:15:00 5.4 C 92 % 4.21 C
2669 08-05-2019 06:20:00 5.4 C 92 % 4.21 C
2670 08-05-2019 06:25:00 5.4 C 91 % 4.05 C
2671 08-05-2019 06:30:00 5.5 C 91 % 4.15 C
2672 08-05-2019 06:35:00 5.5 C 91 % 4.15 C
2673 08-05-2019 06:40:00 5.6 C 91 % 4.25 C
2674 08-05-2019 06:45:00 5.6 C 91 % 4.25 C
2675 08-05-2019 06:50:00 5.7 C 91 % 4.35 C
Sensor: Nr:Datum:Temp:Feuchte:Taupunkt:
Aussen-T/F 2676 08-05-2019 06:55:00 5.7 C 91 % 4.35 C
2677 08-05-2019 07:00:00 5.8 C 92 % 4.6 C
2678 08-05-2019 07:05:00 5.8 C 92 % 4.6 C
2679 08-05-2019 07:10:00 5.9 C 91 % 4.55 C
2680 08-05-2019 07:15:00 6 C 91 % 4.65 C
2681 08-05-2019 07:20:00 6.1 C 91 % 4.74 C
2682 08-05-2019 07:25:00 6.2 C 91 % 4.84 C
2683 08-05-2019 07:30:00 6.2 C 90 % 4.69 C
2684 08-05-2019 07:35:00 6.3 C 90 % 4.78 C
2685 08-05-2019 07:40:00 6.4 C 90 % 4.88 C
2686 08-05-2019 07:45:00 6.6 C 90 % 5.08 C
2687 08-05-2019 07:50:00 6.6 C 89 % 4.92 C
2688 08-05-2019 07:55:00 6.7 C 89 % 5.02 C
2689 08-05-2019 08:00:00 6.8 C 89 % 5.12 C
2690 08-05-2019 08:05:00 6.9 C 89 % 5.22 C
2691 08-05-2019 08:10:00 7 C 89 % 5.31 C
2692 08-05-2019 08:15:00 7.1 C 89 % 5.41 C
2693 08-05-2019 08:20:00 7.2 C 89 % 5.51 C
2694 08-05-2019 08:25:00 7.3 C 89 % 5.61 C
2695 08-05-2019 08:30:00 7.5 C 90 % 5.97 C
2696 08-05-2019 08:35:00 7.7 C 89 % 6 C
2697 08-05-2019 08:40:00 7.8 C 88 % 5.94 C
2698 08-05-2019 08:45:00 8 C 86 % 5.81 C
2699 08-05-2019 08:50:00 8.2 C 85 % 5.83 C
2700 08-05-2019 08:55:00 8.4 C 83 % 5.69 C
Sensor: Nr:Datum:Temp:Feuchte:Taupunkt:
Aussen-T/F 2701 08-05-2019 09:00:00 8.7 C 84 % 6.15 C
2702 08-05-2019 09:05:00 8.8 C 82 % 5.9 C
2703 08-05-2019 09:10:00 8.9 C 81 % 5.82 C
2704 08-05-2019 09:15:00 8.9 C 82 % 6 C
2705 08-05-2019 09:20:00 9 C 82 % 6.1 C
2706 08-05-2019 09:25:00 8.9 C 81 % 5.82 C
2707 08-05-2019 09:30:00 8.9 C 82 % 6 C
2708 08-05-2019 09:35:00 8.9 C 83 % 6.17 C
2709 08-05-2019 09:40:00 8.8 C 83 % 6.08 C
2710 08-05-2019 09:45:00 8.8 C 83 % 6.08 C
2711 08-05-2019 09:50:00 8.8 C 84 % 6.25 C
2712 08-05-2019 09:55:00 8.8 C 84 % 6.25 C
2713 08-05-2019 10:00:00 8.8 C 85 % 6.42 C
2714 08-05-2019 10:05:00 8.8 C 86 % 6.59 C
2715 08-05-2019 10:10:00 8.9 C 87 % 6.86 C
2716 08-05-2019 10:15:00 8.9 C 88 % 7.02 C
2717 08-05-2019 10:20:00 8.9 C 87 % 6.86 C
2718 08-05-2019 10:25:00 9 C 88 % 7.12 C
2719 08-05-2019 10:30:00 9 C 88 % 7.12 C
2720 08-05-2019 10:35:00 9.1 C 87 % 7.05 C
2721 08-05-2019 10:40:00 9.1 C 87 % 7.05 C
2722 08-05-2019 10:45:00 9.2 C 88 % 7.32 C
2723 08-05-2019 10:50:00 9.3 C 88 % 7.42 C
2724 08-05-2019 10:55:00 9.3 C 88 % 7.42 C
2725 08-05-2019 11:00:00 9.4 C 88 % 7.52 C
Sensor: Nr:Datum:Temp:Feuchte:Taupunkt:
Aussen-T/F 2726 08-05-2019 11:05:00 9.4 C 89 % 7.68 C
2727 08-05-2019 11:10:00 9.5 C 89 % 7.78 C
2728 08-05-2019 11:15:00 9.6 C 89 % 7.88 C
2729 08-05-2019 11:20:00 9.5 C 89 % 7.78 C
2730 08-05-2019 11:25:00 9.6 C 89 % 7.88 C
2731 08-05-2019 11:30:00 9.6 C 89 % 7.88 C
2732 08-05-2019 11:35:00 9.7 C 90 % 8.14 C
2733 08-05-2019 11:40:00 9.8 C 90 % 8.24 C
2734 08-05-2019 11:45:00 9.9 C 91 % 8.5 C
2735 08-05-2019 11:50:00 10.1 C 90 % 8.54 C
2736 08-05-2019 11:55:00 10.2 C 90 % 8.64 C
2737 08-05-2019 12:00:00 10.3 C 90 % 8.73 C
2738 08-05-2019 12:05:00 10.4 C 89 % 8.67 C
2739 08-05-2019 12:10:00 10.6 C 89 % 8.86 C
2740 08-05-2019 12:15:00 10.8 C 90 % 9.23 C
2741 08-05-2019 12:20:00 11.1 C 90 % 9.52 C
2742 08-05-2019 12:25:00 11.3 C 89 % 9.55 C
2743 08-05-2019 12:30:00 11.4 C 88 % 9.49 C
2744 08-05-2019 12:35:00 11.7 C 88 % 9.78 C
2745 08-05-2019 12:40:00 11.8 C 88 % 9.88 C
2746 08-05-2019 12:45:00 11.9 C 87 % 9.81 C
2747 08-05-2019 12:50:00 12.2 C 88 % 10.27 C
2748 08-05-2019 12:55:00 12.4 C 87 % 10.3 C
2749 08-05-2019 13:00:00 12.6 C 85 % 10.15 C
2750 08-05-2019 13:05:00 12.7 C 85 % 10.25 C
Sensor: Nr:Datum:Temp:Feuchte:Taupunkt:
Aussen-T/F 2751 08-05-2019 13:10:00 12.8 C 85 % 10.34 C
2752 08-05-2019 13:15:00 12.9 C 85 % 10.44 C
2753 08-05-2019 13:20:00 13.2 C 84 % 10.56 C
2754 08-05-2019 13:25:00 13.6 C 84 % 10.95 C
2755 08-05-2019 13:30:00 13.9 C 83 % 11.06 C
2756 08-05-2019 13:35:00 14.2 C 82 % 11.17 C
2757 08-05-2019 13:40:00 14.3 C 81 % 11.09 C
2758 08-05-2019 13:45:00 14.3 C 80 % 10.9 C
2759 08-05-2019 13:50:00 14.4 C 80 % 11 C
2760 08-05-2019 13:55:00 14.5 C 81 % 11.28 C
2761 08-05-2019 14:00:00 14.6 C 79 % 11 C
2762 08-05-2019 14:05:00 14.7 C 79 % 11.1 C
2763 08-05-2019 14:10:00 14.7 C 79 % 11.1 C
2764 08-05-2019 14:15:00 14.8 C 79 % 11.2 C
2765 08-05-2019 14:20:00 14.8 C 79 % 11.2 C
2766 08-05-2019 14:25:00 14.7 C 78 % 10.91 C
2767 08-05-2019 14:30:00 14.6 C 78 % 10.81 C
2768 08-05-2019 14:35:00 14.6 C 80 % 11.19 C
2769 08-05-2019 14:40:00 14.6 C 78 % 10.81 C
2770 08-05-2019 14:45:00 14.6 C 78 % 10.81 C
2771 08-05-2019 14:50:00 14.8 C 79 % 11.2 C
2772 08-05-2019 14:55:00 14.9 C 79 % 11.29 C
2773 08-05-2019 15:00:00 15 C 78 % 11.2 C
2774 08-05-2019 15:05:00 15 C 77 % 11 C
2775 08-05-2019 15:10:00 14.9 C 78 % 11.1 C
Sensor: Nr:Datum:Temp:Feuchte:Taupunkt:
Aussen-T/F 2776 08-05-2019 15:15:00 14.8 C 77 % 10.81 C
2777 08-05-2019 15:20:00 14.7 C 78 % 10.91 C
2778 08-05-2019 15:25:00 14.5 C 78 % 10.71 C
2779 08-05-2019 15:30:00 14.4 C 79 % 10.81 C
2780 08-05-2019 15:35:00 14.4 C 79 % 10.81 C
2781 08-05-2019 15:40:00 14.4 C 79 % 10.81 C
2782 08-05-2019 15:45:00 14.3 C 81 % 11.09 C
2783 08-05-2019 15:50:00 14.2 C 81 % 10.99 C
2784 08-05-2019 15:55:00 14.2 C 82 % 11.17 C
2785 08-05-2019 16:00:00 14.1 C 83 % 11.26 C
2786 08-05-2019 16:05:00 13.9 C 84 % 11.24 C
2787 08-05-2019 16:10:00 13.8 C 85 % 11.32 C
2788 08-05-2019 16:15:00 13.7 C 86 % 11.4 C
2789 08-05-2019 16:20:00 13.6 C 86 % 11.3 C
2790 08-05-2019 16:25:00 13.4 C 87 % 11.28 C
2791 08-05-2019 16:30:00 13.3 C 87 % 11.18 C
2792 08-05-2019 16:35:00 13.2 C 88 % 11.26 C
2793 08-05-2019 16:40:00 13.1 C 88 % 11.16 C
2794 08-05-2019 16:45:00 13 C 89 % 11.23 C
2795 08-05-2019 16:50:00 12.9 C 89 % 11.13 C
2796 08-05-2019 16:55:00 12.7 C 89 % 10.94 C
2797 08-05-2019 17:00:00 12.7 C 90 % 11.1 C
2798 08-05-2019 17:05:00 12.7 C 90 % 11.1 C
2799 08-05-2019 17:10:00 12.6 C 91 % 11.17 C
2800 08-05-2019 17:15:00 12.6 C 91 % 11.17 C
Sensor: Nr:Datum:Temp:Feuchte:Taupunkt:
Aussen-T/F 2801 08-05-2019 17:20:00 12.6 C 91 % 11.17 C
2802 08-05-2019 17:25:00 12.5 C 91 % 11.07 C
2803 08-05-2019 17:30:00 12.5 C 92 % 11.24 C
2804 08-05-2019 17:35:00 12.4 C 92 % 11.14 C
2805 08-05-2019 17:40:00 12.4 C 92 % 11.14 C
2806 08-05-2019 17:45:00 12.4 C 92 % 11.14 C
2807 08-05-2019 17:50:00 12.4 C 92 % 11.14 C
2808 08-05-2019 17:55:00 12.4 C 92 % 11.14 C
2809 08-05-2019 18:00:00 12.3 C 92 % 11.04 C
2810 08-05-2019 18:05:00 12.4 C 93 % 11.3 C
2811 08-05-2019 18:10:00 12.4 C 93 % 11.3 C
2812 08-05-2019 18:15:00 12.5 C 93 % 11.4 C
2813 08-05-2019 18:20:00 12.5 C 93 % 11.4 C
2814 08-05-2019 18:25:00 12.5 C 93 % 11.4 C
2815 08-05-2019 18:30:00 12.6 C 93 % 11.5 C
2816 08-05-2019 18:35:00 12.6 C 93 % 11.5 C
2817 08-05-2019 18:40:00 12.5 C 93 % 11.4 C
2818 08-05-2019 18:45:00 12.5 C 93 % 11.4 C
2819 08-05-2019 18:50:00 12.6 C 93 % 11.5 C
2820 08-05-2019 18:55:00 12.6 C 93 % 11.5 C
2821 08-05-2019 19:00:00 12.5 C 93 % 11.4 C
2822 08-05-2019 19:05:00 12.4 C 93 % 11.3 C
2823 08-05-2019 19:10:00 12.4 C 93 % 11.3 C
2824 08-05-2019 19:15:00 12.3 C 93 % 11.2 C
2825 08-05-2019 19:20:00 12.3 C 93 % 11.2 C
Sensor: Nr:Datum:Temp:Feuchte:Taupunkt:
Aussen-T/F 2826 08-05-2019 19:25:00 12.3 C 94 % 11.36 C
2827 08-05-2019 19:30:00 12.2 C 93 % 11.1 C
2828 08-05-2019 19:35:00 12.2 C 94 % 11.26 C
2829 08-05-2019 19:40:00 12.2 C 94 % 11.26 C
2830 08-05-2019 19:45:00 12.1 C 94 % 11.16 C
2831 08-05-2019 19:50:00 12.1 C 94 % 11.16 C
2832 08-05-2019 19:55:00 12.1 C 94 % 11.16 C
2833 08-05-2019 20:00:00 12.1 C 94 % 11.16 C
2834 08-05-2019 20:05:00 12 C 94 % 11.07 C
2835 08-05-2019 20:10:00 12 C 94 % 11.07 C
2836 08-05-2019 20:15:00 11.9 C 94 % 10.97 C
2837 08-05-2019 20:20:00 11.8 C 94 % 10.87 C
2838 08-05-2019 20:25:00 11.8 C 94 % 10.87 C
2839 08-05-2019 20:30:00 11.7 C 94 % 10.77 C
2840 08-05-2019 20:35:00 11.6 C 94 % 10.67 C
2841 08-05-2019 20:40:00 11.6 C 94 % 10.67 C
2842 08-05-2019 20:45:00 11.4 C 94 % 10.47 C
2843 08-05-2019 20:50:00 11.4 C 94 % 10.47 C
2844 08-05-2019 20:55:00 11.3 C 94 % 10.37 C
2845 08-05-2019 21:00:00 11.2 C 94 % 10.27 C
2846 08-05-2019 21:05:00 11.2 C 94 % 10.27 C
2847 08-05-2019 21:10:00 11.2 C 94 % 10.27 C
2848 08-05-2019 21:15:00 11.1 C 95 % 10.33 C
2849 08-05-2019 21:20:00 11.1 C 95 % 10.33 C
2850 08-05-2019 21:25:00 11 C 95 % 10.23 C
Sensor: Nr:Datum:Temp:Feuchte:Taupunkt:
Aussen-T/F 2851 08-05-2019 21:30:00 11 C 95 % 10.23 C
2852 08-05-2019 21:35:00 10.9 C 95 % 10.13 C
2853 08-05-2019 21:40:00 10.9 C 95 % 10.13 C
2854 08-05-2019 21:45:00 10.8 C 94 % 9.87 C
2855 08-05-2019 21:50:00 10.6 C 94 % 9.68 C
2856 08-05-2019 21:55:00 10.5 C 94 % 9.58 C
2857 08-05-2019 22:00:00 10.4 C 94 % 9.48 C
2858 08-05-2019 22:05:00 10.3 C 95 % 9.54 C
2859 08-05-2019 22:10:00 10.3 C 95 % 9.54 C
2860 08-05-2019 22:15:00 10.3 C 95 % 9.54 C
2861 08-05-2019 22:20:00 10.2 C 95 % 9.44 C
2862 08-05-2019 22:25:00 10.2 C 95 % 9.44 C
2863 08-05-2019 22:30:00 10.1 C 95 % 9.34 C
2864 08-05-2019 22:35:00 10.1 C 95 % 9.34 C
2865 08-05-2019 22:40:00 10.1 C 95 % 9.34 C
2866 08-05-2019 22:45:00 10 C 95 % 9.24 C
2867 08-05-2019 22:50:00 9.9 C 95 % 9.14 C
2868 08-05-2019 22:55:00 9.8 C 95 % 9.04 C
2869 08-05-2019 23:00:00 9.8 C 95 % 9.04 C
2870 08-05-2019 23:05:00 9.7 C 95 % 8.94 C
2871 08-05-2019 23:10:00 9.6 C 95 % 8.84 C
2872 08-05-2019 23:15:00 9.5 C 94 % 8.58 C
2873 08-05-2019 23:20:00 9.4 C 94 % 8.48 C
2874 08-05-2019 23:25:00 9.4 C 94 % 8.48 C
2875 08-05-2019 23:30:00 9.3 C 94 % 8.39 C
Sensor: Nr:Datum:Temp:Feuchte:Taupunkt:
Aussen-T/F 2876 08-05-2019 23:35:00 9.3 C 95 % 8.54 C
2877 08-05-2019 23:40:00 9.3 C 95 % 8.54 C
2878 08-05-2019 23:45:00 9.3 C 95 % 8.54 C
2879 08-05-2019 23:50:00 9.2 C 95 % 8.44 C
2880 08-05-2019 23:55:00 9.2 C 94 % 8.29 C
2881 09-05-2019 00:00:00 9.1 C 94 % 8.19 C
2882 09-05-2019 00:05:00 9.1 C 94 % 8.19 C
2883 09-05-2019 00:10:00 8.9 C 94 % 7.99 C
2884 09-05-2019 00:15:00 8.9 C 94 % 7.99 C
2885 09-05-2019 00:20:00 8.8 C 94 % 7.89 C
2886 09-05-2019 00:25:00 8.7 C 94 % 7.79 C
2887 09-05-2019 00:30:00 8.7 C 95 % 7.94 C
2888 09-05-2019 00:35:00 8.7 C 95 % 7.94 C
2889 09-05-2019 00:40:00 8.6 C 95 % 7.85 C
2890 09-05-2019 00:45:00 8.6 C 95 % 7.85 C
2891 09-05-2019 00:50:00 8.7 C 95 % 7.94 C
2892 09-05-2019 00:55:00 8.6 C 95 % 7.85 C
2893 09-05-2019 01:00:00 8.6 C 95 % 7.85 C
2894 09-05-2019 01:05:00 8.6 C 95 % 7.85 C
2895 09-05-2019 01:10:00 8.6 C 95 % 7.85 C
2896 09-05-2019 01:15:00 8.5 C 95 % 7.75 C
2897 09-05-2019 01:20:00 8.4 C 95 % 7.65 C
2898 09-05-2019 01:25:00 8.4 C 95 % 7.65 C
2899 09-05-2019 01:30:00 8.3 C 95 % 7.55 C
2900 09-05-2019 01:35:00 8.3 C 95 % 7.55 C
Sensor: Nr:Datum:Temp:Feuchte:Taupunkt:
Aussen-T/F 2901 09-05-2019 01:40:00 8.2 C 95 % 7.45 C
2902 09-05-2019 01:45:00 8.1 C 94 % 7.19 C
2903 09-05-2019 01:50:00 8 C 94 % 7.09 C
2904 09-05-2019 01:55:00 7.8 C 94 % 6.9 C
2905 09-05-2019 02:00:00 7.8 C 94 % 6.9 C
2906 09-05-2019 02:05:00 7.7 C 94 % 6.8 C
2907 09-05-2019 02:10:00 7.6 C 95 % 6.85 C
2908 09-05-2019 02:15:00 7.6 C 95 % 6.85 C
2909 09-05-2019 02:20:00 7.5 C 95 % 6.75 C
2910 09-05-2019 02:25:00 7.5 C 95 % 6.75 C
2911 09-05-2019 02:30:00 7.4 C 95 % 6.65 C
2912 09-05-2019 02:35:00 7.3 C 95 % 6.55 C
2913 09-05-2019 02:40:00 7.3 C 95 % 6.55 C
2914 09-05-2019 02:45:00 7.2 C 95 % 6.45 C
2915 09-05-2019 02:50:00 7.1 C 95 % 6.35 C
2916 09-05-2019 02:55:00 7.1 C 95 % 6.35 C
2917 09-05-2019 03:00:00 7 C 95 % 6.26 C
2918 09-05-2019 03:05:00 7.1 C 95 % 6.35 C
2919 09-05-2019 03:10:00 7.2 C 95 % 6.45 C
2920 09-05-2019 03:15:00 7.2 C 96 % 6.61 C
2921 09-05-2019 03:20:00 7.3 C 96 % 6.71 C
2922 09-05-2019 03:25:00 7.3 C 96 % 6.71 C
2923 09-05-2019 03:30:00 7.4 C 96 % 6.8 C
2924 09-05-2019 03:35:00 7.4 C 96 % 6.8 C
2925 09-05-2019 03:40:00 7.4 C 96 % 6.8 C
Sensor: Nr:Datum:Temp:Feuchte:Taupunkt:
Aussen-T/F 2926 09-05-2019 03:45:00 7.4 C 96 % 6.8 C
2927 09-05-2019 03:50:00 7.5 C 96 % 6.9 C
2928 09-05-2019 03:55:00 7.6 C 96 % 7 C
2929 09-05-2019 04:00:00 7.6 C 96 % 7 C
2930 09-05-2019 04:05:00 7.6 C 96 % 7 C
2931 09-05-2019 04:10:00 7.7 C 96 % 7.1 C
2932 09-05-2019 04:15:00 7.8 C 96 % 7.2 C
2933 09-05-2019 04:20:00 7.8 C 96 % 7.2 C
2934 09-05-2019 04:25:00 7.8 C 96 % 7.2 C
2935 09-05-2019 04:30:00 7.8 C 96 % 7.2 C
2936 09-05-2019 04:35:00 7.8 C 96 % 7.2 C
2937 09-05-2019 04:40:00 7.8 C 96 % 7.2 C
2938 09-05-2019 04:45:00 7.8 C 96 % 7.2 C
2939 09-05-2019 04:50:00 7.8 C 96 % 7.2 C
2940 09-05-2019 04:55:00 7.8 C 96 % 7.2 C
2941 09-05-2019 05:00:00 7.8 C 96 % 7.2 C
2942 09-05-2019 05:05:00 7.7 C 96 % 7.1 C
2943 09-05-2019 05:10:00 7.7 C 96 % 7.1 C
2944 09-05-2019 05:15:00 7.8 C 96 % 7.2 C
2945 09-05-2019 05:20:00 7.8 C 96 % 7.2 C
2946 09-05-2019 05:25:00 7.8 C 96 % 7.2 C
2947 09-05-2019 05:30:00 7.8 C 96 % 7.2 C
2948 09-05-2019 05:35:00 7.8 C 96 % 7.2 C
2949 09-05-2019 05:40:00 7.9 C 96 % 7.3 C
2950 09-05-2019 05:45:00 7.9 C 96 % 7.3 C
Sensor: Nr:Datum:Temp:Feuchte:Taupunkt:
Aussen-T/F 2951 09-05-2019 05:50:00 7.9 C 96 % 7.3 C
2952 09-05-2019 05:55:00 7.8 C 96 % 7.2 C
2953 09-05-2019 06:00:00 7.7 C 96 % 7.1 C
2954 09-05-2019 06:05:00 7.6 C 95 % 6.85 C
2955 09-05-2019 06:10:00 7.4 C 95 % 6.65 C
2956 09-05-2019 06:15:00 7.3 C 95 % 6.55 C
2957 09-05-2019 06:20:00 7.2 C 95 % 6.45 C
2958 09-05-2019 06:25:00 7.2 C 95 % 6.45 C
2959 09-05-2019 06:30:00 7.2 C 96 % 6.61 C
2960 09-05-2019 06:35:00 7.3 C 96 % 6.71 C
2961 09-05-2019 06:40:00 7.4 C 96 % 6.8 C
2962 09-05-2019 06:45:00 7.6 C 96 % 7 C
2963 09-05-2019 06:50:00 7.8 C 96 % 7.2 C
2964 09-05-2019 06:55:00 7.9 C 96 % 7.3 C
2965 09-05-2019 07:00:00 8 C 96 % 7.4 C
2966 09-05-2019 07:05:00 8.2 C 96 % 7.6 C
2967 09-05-2019 07:10:00 8.3 C 97 % 7.85 C
2968 09-05-2019 07:15:00 8.5 C 97 % 8.05 C
2969 09-05-2019 07:20:00 8.7 C 97 % 8.25 C
2970 09-05-2019 07:25:00 8.7 C 97 % 8.25 C
2971 09-05-2019 07:30:00 8.8 C 96 % 8.2 C
2972 09-05-2019 07:35:00 8.9 C 96 % 8.3 C
2973 09-05-2019 07:40:00 9.1 C 96 % 8.5 C
2974 09-05-2019 07:45:00 9.1 C 96 % 8.5 C
2975 09-05-2019 07:50:00 9.1 C 96 % 8.5 C
Sensor: Nr:Datum:Temp:Feuchte:Taupunkt:
Aussen-T/F 2976 09-05-2019 07:55:00 9 C 96 % 8.4 C
2977 09-05-2019 08:00:00 9 C 95 % 8.24 C
2978 09-05-2019 08:05:00 9.1 C 96 % 8.5 C
2979 09-05-2019 08:10:00 9.3 C 96 % 8.7 C
2980 09-05-2019 08:15:00 9.6 C 96 % 8.99 C
2981 09-05-2019 08:20:00 9.7 C 95 % 8.94 C
2982 09-05-2019 08:25:00 9.8 C 94 % 8.88 C
2983 09-05-2019 08:30:00 10 C 94 % 9.08 C
2984 09-05-2019 08:35:00 10.2 C 93 % 9.12 C
2985 09-05-2019 08:40:00 10.3 C 91 % 8.9 C
2986 09-05-2019 08:45:00 10.4 C 91 % 9 C
2987 09-05-2019 08:50:00 10.6 C 90 % 9.03 C
2988 09-05-2019 08:55:00 10.8 C 90 % 9.23 C
2989 09-05-2019 09:00:00 10.9 C 90 % 9.33 C
2990 09-05-2019 09:05:00 11 C 89 % 9.26 C
2991 09-05-2019 09:10:00 11.1 C 89 % 9.36 C
2992 09-05-2019 09:15:00 11.2 C 87 % 9.12 C
2993 09-05-2019 09:20:00 11.2 C 87 % 9.12 C
2994 09-05-2019 09:25:00 11.4 C 88 % 9.49 C
2995 09-05-2019 09:30:00 11.6 C 88 % 9.68 C
2996 09-05-2019 09:35:00 11.7 C 88 % 9.78 C
2997 09-05-2019 09:40:00 11.8 C 87 % 9.71 C
2998 09-05-2019 09:45:00 11.7 C 85 % 9.27 C
2999 09-05-2019 09:50:00 11.6 C 85 % 9.17 C
3000 09-05-2019 09:55:00 11.6 C 86 % 9.34 C
Sensor: Nr:Datum:Temp:Feuchte:Taupunkt:
Aussen-T/F 3001 09-05-2019 10:00:00 11.5 C 86 % 9.24 C
3002 09-05-2019 10:05:00 11.5 C 87 % 9.41 C
3003 09-05-2019 10:10:00 11.6 C 89 % 9.85 C
3004 09-05-2019 10:15:00 11.6 C 89 % 9.85 C
3005 09-05-2019 10:20:00 11.5 C 89 % 9.75 C
3006 09-05-2019 10:25:00 11.5 C 89 % 9.75 C
3007 09-05-2019 10:30:00 11.5 C 89 % 9.75 C
3008 09-05-2019 10:35:00 11.5 C 89 % 9.75 C
3009 09-05-2019 10:40:00 11.6 C 89 % 9.85 C
3010 09-05-2019 10:45:00 11.7 C 88 % 9.78 C
3011 09-05-2019 10:50:00 11.8 C 88 % 9.88 C
3012 09-05-2019 10:55:00 11.9 C 87 % 9.81 C
3013 09-05-2019 11:00:00 12.1 C 87 % 10 C
3014 09-05-2019 11:05:00 12.2 C 87 % 10.1 C
3015 09-05-2019 11:10:00 12.3 C 86 % 10.03 C
3016 09-05-2019 11:15:00 12.4 C 86 % 10.13 C
3017 09-05-2019 11:20:00 12.6 C 85 % 10.15 C
3018 09-05-2019 11:25:00 12.8 C 84 % 10.17 C
3019 09-05-2019 11:30:00 12.9 C 83 % 10.09 C
3020 09-05-2019 11:35:00 13.1 C 83 % 10.28 C
3021 09-05-2019 11:40:00 13.2 C 82 % 10.2 C
3022 09-05-2019 11:45:00 13.2 C 81 % 10.01 C
3023 09-05-2019 11:50:00 13.3 C 82 % 10.3 C
3024 09-05-2019 11:55:00 13.3 C 82 % 10.3 C
3025 09-05-2019 12:00:00 13.2 C 83 % 10.38 C
Sensor: Nr:Datum:Temp:Feuchte:Taupunkt:
Aussen-T/F 3026 09-05-2019 12:05:00 13.3 C 83 % 10.48 C
3027 09-05-2019 12:10:00 13.2 C 82 % 10.2 C
3028 09-05-2019 12:15:00 13.3 C 84 % 10.66 C
3029 09-05-2019 12:20:00 13.3 C 85 % 10.83 C
3030 09-05-2019 12:25:00 13.3 C 84 % 10.66 C
3031 09-05-2019 12:30:00 13.2 C 84 % 10.56 C
3032 09-05-2019 12:35:00 13.2 C 86 % 10.91 C
3033 09-05-2019 12:40:00 13.3 C 86 % 11.01 C
3034 09-05-2019 12:45:00 13.2 C 84 % 10.56 C
3035 09-05-2019 12:50:00 13.1 C 86 % 10.81 C
3036 09-05-2019 12:55:00 13 C 86 % 10.72 C
3037 09-05-2019 13:00:00 13 C 86 % 10.72 C
3038 09-05-2019 13:05:00 13 C 86 % 10.72 C
3039 09-05-2019 13:10:00 13 C 84 % 10.36 C
3040 09-05-2019 13:15:00 13 C 85 % 10.54 C
3041 09-05-2019 13:20:00 13 C 84 % 10.36 C
3042 09-05-2019 13:25:00 13.1 C 84 % 10.46 C
3043 09-05-2019 13:30:00 13.2 C 84 % 10.56 C
3044 09-05-2019 13:35:00 13.3 C 84 % 10.66 C
3045 09-05-2019 13:40:00 13.4 C 83 % 10.57 C
3046 09-05-2019 13:45:00 13.6 C 83 % 10.77 C
3047 09-05-2019 13:50:00 13.8 C 82 % 10.78 C
3048 09-05-2019 13:55:00 13.8 C 81 % 10.6 C
3049 09-05-2019 14:00:00 13.9 C 82 % 10.88 C
3050 09-05-2019 14:05:00 13.8 C 81 % 10.6 C
Sensor: Nr:Datum:Temp:Feuchte:Taupunkt:
Aussen-T/F 3051 09-05-2019 14:10:00 13.8 C 80 % 10.41 C
3052 09-05-2019 14:15:00 13.8 C 80 % 10.41 C
3053 09-05-2019 14:20:00 13.7 C 78 % 9.94 C
3054 09-05-2019 14:25:00 13.6 C 78 % 9.84 C
3055 09-05-2019 14:30:00 13.6 C 81 % 10.4 C
3056 09-05-2019 14:35:00 13.6 C 81 % 10.4 C
3057 09-05-2019 14:40:00 13.5 C 80 % 10.12 C
3058 09-05-2019 14:45:00 13.4 C 80 % 10.02 C
3059 09-05-2019 14:50:00 13.3 C 80 % 9.93 C
3060 09-05-2019 14:55:00 13.3 C 80 % 9.93 C
3061 09-05-2019 15:00:00 13.3 C 80 % 9.93 C
3062 09-05-2019 15:05:00 13.4 C 81 % 10.21 C
3063 09-05-2019 15:10:00 13.4 C 81 % 10.21 C
3064 09-05-2019 15:15:00 13.5 C 82 % 10.49 C
3065 09-05-2019 15:20:00 13.5 C 82 % 10.49 C
3066 09-05-2019 15:25:00 13.4 C 82 % 10.39 C
3067 09-05-2019 15:30:00 13.4 C 83 % 10.57 C
3068 09-05-2019 15:35:00 13.5 C 85 % 11.03 C
3069 09-05-2019 15:40:00 13.5 C 84 % 10.85 C
3070 09-05-2019 15:45:00 13.5 C 85 % 11.03 C
3071 09-05-2019 15:50:00 13.4 C 84 % 10.75 C
3072 09-05-2019 15:55:00 13.4 C 84 % 10.75 C
3073 09-05-2019 16:00:00 13.4 C 84 % 10.75 C
3074 09-05-2019 16:05:00 13.5 C 83 % 10.67 C
3075 09-05-2019 16:10:00 13.5 C 83 % 10.67 C
Sensor: Nr:Datum:Temp:Feuchte:Taupunkt:
Aussen-T/F 3076 09-05-2019 16:15:00 13.6 C 82 % 10.59 C
3077 09-05-2019 16:20:00 13.7 C 83 % 10.87 C
3078 09-05-2019 16:25:00 13.8 C 81 % 10.6 C
3079 09-05-2019 16:30:00 13.8 C 81 % 10.6 C
3080 09-05-2019 16:35:00 13.8 C 80 % 10.41 C
3081 09-05-2019 16:40:00 13.9 C 80 % 10.51 C
3082 09-05-2019 16:45:00 14.1 C 80 % 10.71 C
3083 09-05-2019 16:50:00 14.2 C 79 % 10.61 C
3084 09-05-2019 16:55:00 14.4 C 78 % 10.62 C
3085 09-05-2019 17:00:00 14.4 C 77 % 10.42 C
3086 09-05-2019 17:05:00 14.4 C 80 % 11 C
3087 09-05-2019 17:10:00 14.4 C 80 % 11 C
3088 09-05-2019 17:15:00 14.5 C 80 % 11.09 C
3089 09-05-2019 17:20:00 14.5 C 79 % 10.91 C
3090 09-05-2019 17:25:00 14.3 C 79 % 10.71 C
3091 09-05-2019 17:30:00 14.2 C 81 % 10.99 C
3092 09-05-2019 17:35:00 14.1 C 81 % 10.89 C
3093 09-05-2019 17:40:00 14.2 C 86 % 11.89 C
3094 09-05-2019 17:45:00 14.3 C 84 % 11.64 C
3095 09-05-2019 17:50:00 14.4 C 84 % 11.73 C
3096 09-05-2019 17:55:00 14.8 C 86 % 12.48 C
3097 09-05-2019 18:00:00 15.1 C 84 % 12.42 C
3098 09-05-2019 18:05:00 15.3 C 82 % 12.25 C
3099 09-05-2019 18:10:00 15.1 C 82 % 12.05 C
3100 09-05-2019 18:15:00 15 C 81 % 11.77 C
Sensor: Nr:Datum:Temp:Feuchte:Taupunkt:
Aussen-T/F 3101 09-05-2019 18:20:00 15.1 C 83 % 12.24 C
3102 09-05-2019 18:25:00 15.6 C 81 % 12.35 C
3103 09-05-2019 18:30:00 16 C 78 % 12.17 C
3104 09-05-2019 18:35:00 16.3 C 77 % 12.26 C
3105 09-05-2019 18:40:00 16.3 C 77 % 12.26 C
3106 09-05-2019 18:45:00 16.2 C 74 % 11.56 C
3107 09-05-2019 18:50:00 15.9 C 75 % 11.48 C
3108 09-05-2019 18:55:00 15.6 C 78 % 11.78 C
3109 09-05-2019 19:00:00 15.4 C 78 % 11.59 C
3110 09-05-2019 19:05:00 15.3 C 80 % 11.87 C
3111 09-05-2019 19:10:00 15.2 C 81 % 11.96 C
3112 09-05-2019 19:15:00 15.1 C 81 % 11.87 C
3113 09-05-2019 19:20:00 15.1 C 82 % 12.05 C
3114 09-05-2019 19:25:00 15.3 C 80 % 11.87 C
3115 09-05-2019 19:30:00 15.7 C 79 % 12.07 C
3116 09-05-2019 19:35:00 15.8 C 76 % 11.58 C
3117 09-05-2019 19:40:00 15.7 C 77 % 11.68 C
3118 09-05-2019 19:45:00 15.6 C 78 % 11.78 C
3119 09-05-2019 19:50:00 15.4 C 79 % 11.78 C
3120 09-05-2019 19:55:00 15.2 C 80 % 11.78 C
3121 09-05-2019 20:00:00 14.9 C 82 % 11.86 C
3122 09-05-2019 20:05:00 14.7 C 83 % 11.85 C
3123 09-05-2019 20:10:00 14.4 C 83 % 11.55 C
3124 09-05-2019 20:15:00 14.1 C 84 % 11.44 C
3125 09-05-2019 20:20:00 13.9 C 85 % 11.42 C
Sensor: Nr:Datum:Temp:Feuchte:Taupunkt:
Aussen-T/F 3126 09-05-2019 20:25:00 13.7 C 86 % 11.4 C
3127 09-05-2019 20:30:00 13.5 C 86 % 11.21 C
3128 09-05-2019 20:35:00 13.3 C 87 % 11.18 C
3129 09-05-2019 20:40:00 13.2 C 87 % 11.09 C
3130 09-05-2019 20:45:00 13.1 C 88 % 11.16 C
3131 09-05-2019 20:50:00 12.9 C 88 % 10.96 C
3132 09-05-2019 20:55:00 12.8 C 88 % 10.86 C
3133 09-05-2019 21:00:00 12.8 C 89 % 11.03 C
3134 09-05-2019 21:05:00 12.7 C 88 % 10.77 C
3135 09-05-2019 21:10:00 12.3 C 88 % 10.37 C
3136 09-05-2019 21:15:00 11.9 C 89 % 10.15 C
3137 09-05-2019 21:20:00 11.7 C 90 % 10.12 C
3138 09-05-2019 21:25:00 11.5 C 91 % 10.08 C
3139 09-05-2019 21:30:00 11.4 C 91 % 9.98 C
3140 09-05-2019 21:35:00 11.3 C 92 % 10.05 C
3141 09-05-2019 21:40:00 11.2 C 92 % 9.95 C
3142 09-05-2019 21:45:00 11.1 C 93 % 10.01 C
3143 09-05-2019 21:50:00 11.1 C 93 % 10.01 C
3144 09-05-2019 21:55:00 11 C 93 % 9.91 C
3145 09-05-2019 22:00:00 11 C 93 % 9.91 C
3146 09-05-2019 22:05:00 10.9 C 94 % 9.97 C
3147 09-05-2019 22:10:00 10.9 C 94 % 9.97 C
3148 09-05-2019 22:15:00 10.9 C 94 % 9.97 C
3149 09-05-2019 22:20:00 10.9 C 94 % 9.97 C
3150 09-05-2019 22:25:00 10.9 C 94 % 9.97 C
Sensor: Nr:Datum:Temp:Feuchte:Taupunkt:
Aussen-T/F 3151 09-05-2019 22:30:00 10.9 C 94 % 9.97 C
3152 09-05-2019 22:35:00 10.9 C 94 % 9.97 C
3153 09-05-2019 22:40:00 10.9 C 94 % 9.97 C
3154 09-05-2019 22:45:00 10.9 C 95 % 10.13 C
3155 09-05-2019 22:50:00 10.8 C 95 % 10.03 C
3156 09-05-2019 22:55:00 10.8 C 95 % 10.03 C
3157 09-05-2019 23:00:00 10.8 C 95 % 10.03 C
3158 09-05-2019 23:05:00 10.8 C 95 % 10.03 C
3159 09-05-2019 23:10:00 10.8 C 95 % 10.03 C
3160 09-05-2019 23:15:00 10.8 C 95 % 10.03 C
3161 09-05-2019 23:20:00 10.8 C 95 % 10.03 C
3162 09-05-2019 23:25:00 10.8 C 95 % 10.03 C
3163 09-05-2019 23:30:00 10.8 C 95 % 10.03 C
3164 09-05-2019 23:35:00 10.8 C 95 % 10.03 C
3165 09-05-2019 23:40:00 10.7 C 95 % 9.93 C
3166 09-05-2019 23:45:00 10.7 C 95 % 9.93 C
3167 09-05-2019 23:50:00 10.7 C 95 % 9.93 C
3168 09-05-2019 23:55:00 10.7 C 95 % 9.93 C
3169 10-05-2019 00:00:00 10.7 C 95 % 9.93 C
3170 10-05-2019 00:05:00 10.7 C 95 % 9.93 C
3171 10-05-2019 00:10:00 10.6 C 95 % 9.83 C
3172 10-05-2019 00:15:00 10.6 C 95 % 9.83 C
3173 10-05-2019 00:20:00 10.6 C 95 % 9.83 C
3174 10-05-2019 00:25:00 10.6 C 95 % 9.83 C
3175 10-05-2019 00:30:00 10.6 C 95 % 9.83 C
Sensor: Nr:Datum:Temp:Feuchte:Taupunkt:
Aussen-T/F 3176 10-05-2019 00:35:00 10.5 C 95 % 9.73 C
3177 10-05-2019 00:40:00 10.4 C 95 % 9.63 C
3178 10-05-2019 00:45:00 10.4 C 95 % 9.63 C
3179 10-05-2019 00:50:00 10.3 C 95 % 9.54 C
3180 10-05-2019 00:55:00 10.3 C 95 % 9.54 C
3181 10-05-2019 01:00:00 10.2 C 95 % 9.44 C
3182 10-05-2019 01:05:00 10 C 95 % 9.24 C
3183 10-05-2019 01:10:00 9.8 C 95 % 9.04 C
3184 10-05-2019 01:15:00 9.6 C 95 % 8.84 C
3185 10-05-2019 01:20:00 9.5 C 95 % 8.74 C
3186 10-05-2019 01:25:00 9.4 C 95 % 8.64 C
3187 10-05-2019 01:30:00 9.4 C 95 % 8.64 C
3188 10-05-2019 01:35:00 9.4 C 95 % 8.64 C
3189 10-05-2019 01:40:00 9.3 C 95 % 8.54 C
3190 10-05-2019 01:45:00 9.3 C 95 % 8.54 C
3191 10-05-2019 01:50:00 9.2 C 95 % 8.44 C
3192 10-05-2019 01:55:00 9.1 C 95 % 8.34 C
3193 10-05-2019 02:00:00 9 C 95 % 8.24 C
3194 10-05-2019 02:05:00 8.9 C 95 % 8.14 C
3195 10-05-2019 02:10:00 8.9 C 95 % 8.14 C
3196 10-05-2019 02:15:00 8.9 C 95 % 8.14 C
3197 10-05-2019 02:20:00 8.9 C 95 % 8.14 C
3198 10-05-2019 02:25:00 8.9 C 96 % 8.3 C
3199 10-05-2019 02:30:00 8.9 C 96 % 8.3 C
3200 10-05-2019 02:35:00 8.8 C 96 % 8.2 C
Sensor: Nr:Datum:Temp:Feuchte:Taupunkt:
Aussen-T/F 3201 10-05-2019 02:40:00 8.8 C 96 % 8.2 C
3202 10-05-2019 02:45:00 8.8 C 96 % 8.2 C
3203 10-05-2019 02:50:00 8.8 C 96 % 8.2 C
3204 10-05-2019 02:55:00 8.7 C 95 % 7.94 C
3205 10-05-2019 03:00:00 8.7 C 95 % 7.94 C
3206 10-05-2019 03:05:00 8.5 C 95 % 7.75 C
3207 10-05-2019 03:10:00 8.4 C 95 % 7.65 C
3208 10-05-2019 03:15:00 8.3 C 95 % 7.55 C
3209 10-05-2019 03:20:00 8.1 C 95 % 7.35 C
3210 10-05-2019 03:25:00 8 C 95 % 7.25 C
3211 10-05-2019 03:30:00 7.9 C 95 % 7.15 C
3212 10-05-2019 03:35:00 7.9 C 95 % 7.15 C
3213 10-05-2019 03:40:00 7.9 C 96 % 7.3 C
3214 10-05-2019 03:45:00 8 C 96 % 7.4 C
3215 10-05-2019 03:50:00 8.1 C 96 % 7.5 C
3216 10-05-2019 03:55:00 8.2 C 96 % 7.6 C
3217 10-05-2019 04:00:00 8.2 C 96 % 7.6 C
3218 10-05-2019 04:05:00 8.3 C 96 % 7.7 C
3219 10-05-2019 04:10:00 8.4 C 96 % 7.8 C
3220 10-05-2019 04:15:00 8.4 C 96 % 7.8 C
3221 10-05-2019 04:20:00 8.6 C 96 % 8 C
3222 10-05-2019 04:25:00 8.6 C 96 % 8 C
3223 10-05-2019 04:30:00 8.7 C 97 % 8.25 C
3224 10-05-2019 04:35:00 8.7 C 97 % 8.25 C
3225 10-05-2019 04:40:00 8.8 C 97 % 8.35 C
Sensor: Nr:Datum:Temp:Feuchte:Taupunkt:
Aussen-T/F 3226 10-05-2019 04:45:00 8.8 C 96 % 8.2 C
3227 10-05-2019 04:50:00 8.7 C 96 % 8.1 C
3228 10-05-2019 04:55:00 8.6 C 96 % 8 C
3229 10-05-2019 05:00:00 8.5 C 96 % 7.9 C
3230 10-05-2019 05:05:00 8.4 C 96 % 7.8 C
3231 10-05-2019 05:10:00 8.3 C 96 % 7.7 C
3232 10-05-2019 05:15:00 8.2 C 96 % 7.6 C
3233 10-05-2019 05:20:00 8.2 C 96 % 7.6 C
3234 10-05-2019 05:25:00 8.2 C 96 % 7.6 C
3235 10-05-2019 05:30:00 8.2 C 96 % 7.6 C
3236 10-05-2019 05:35:00 8.2 C 96 % 7.6 C
3237 10-05-2019 05:40:00 8.2 C 96 % 7.6 C
3238 10-05-2019 05:45:00 8.3 C 96 % 7.7 C
3239 10-05-2019 05:50:00 8.3 C 96 % 7.7 C
3240 10-05-2019 05:55:00 8.4 C 96 % 7.8 C
3241 10-05-2019 06:00:00 8.4 C 96 % 7.8 C
3242 10-05-2019 06:05:00 8.4 C 96 % 7.8 C
3243 10-05-2019 06:10:00 8.4 C 96 % 7.8 C
3244 10-05-2019 06:15:00 8.4 C 96 % 7.8 C
3245 10-05-2019 06:20:00 8.4 C 96 % 7.8 C
3246 10-05-2019 06:25:00 8.4 C 96 % 7.8 C
3247 10-05-2019 06:30:00 8.4 C 96 % 7.8 C
3248 10-05-2019 06:35:00 8.4 C 96 % 7.8 C
3249 10-05-2019 06:40:00 8.4 C 96 % 7.8 C
3250 10-05-2019 06:45:00 8.4 C 96 % 7.8 C
Sensor: Nr:Datum:Temp:Feuchte:Taupunkt:
Aussen-T/F 3251 10-05-2019 06:50:00 8.4 C 96 % 7.8 C
3252 10-05-2019 06:55:00 8.5 C 96 % 7.9 C
3253 10-05-2019 07:00:00 8.5 C 96 % 7.9 C
3254 10-05-2019 07:05:00 8.6 C 96 % 8 C
3255 10-05-2019 07:10:00 8.7 C 96 % 8.1 C
3256 10-05-2019 07:15:00 8.8 C 96 % 8.2 C
3257 10-05-2019 07:20:00 8.8 C 96 % 8.2 C
3258 10-05-2019 07:25:00 8.8 C 96 % 8.2 C
3259 10-05-2019 07:30:00 8.8 C 96 % 8.2 C
3260 10-05-2019 07:35:00 8.8 C 95 % 8.04 C
3261 10-05-2019 07:40:00 8.8 C 95 % 8.04 C
3262 10-05-2019 07:45:00 8.8 C 95 % 8.04 C
3263 10-05-2019 07:50:00 8.8 C 95 % 8.04 C
3264 10-05-2019 07:55:00 8.8 C 95 % 8.04 C
3265 10-05-2019 08:00:00 8.9 C 95 % 8.14 C
3266 10-05-2019 08:05:00 8.9 C 95 % 8.14 C
3267 10-05-2019 08:10:00 9 C 95 % 8.24 C
3268 10-05-2019 08:15:00 9 C 95 % 8.24 C
3269 10-05-2019 08:20:00 9 C 95 % 8.24 C
3270 10-05-2019 08:25:00 9 C 94 % 8.09 C
3271 10-05-2019 08:30:00 9.1 C 94 % 8.19 C
3272 10-05-2019 08:35:00 9.1 C 94 % 8.19 C
3273 10-05-2019 08:40:00 9.2 C 93 % 8.13 C
3274 10-05-2019 08:45:00 9.4 C 93 % 8.33 C
3275 10-05-2019 08:50:00 9.6 C 93 % 8.53 C
Sensor: Nr:Datum:Temp:Feuchte:Taupunkt:
Aussen-T/F 3276 10-05-2019 08:55:00 9.9 C 93 % 8.82 C
3277 10-05-2019 09:00:00 10.2 C 92 % 8.96 C
3278 10-05-2019 09:05:00 10.3 C 89 % 8.57 C
3279 10-05-2019 09:10:00 10.4 C 89 % 8.67 C
3280 10-05-2019 09:15:00 10.6 C 88 % 8.7 C
3281 10-05-2019 09:20:00 10.6 C 88 % 8.7 C
3282 10-05-2019 09:25:00 10.7 C 87 % 8.63 C
3283 10-05-2019 09:30:00 10.7 C 87 % 8.63 C
3284 10-05-2019 09:35:00 10.8 C 88 % 8.89 C
3285 10-05-2019 09:40:00 10.9 C 87 % 8.82 C
3286 10-05-2019 09:45:00 10.9 C 85 % 8.48 C
3287 10-05-2019 09:50:00 11.1 C 85 % 8.68 C
3288 10-05-2019 09:55:00 11.2 C 85 % 8.77 C
3289 10-05-2019 10:00:00 11.3 C 85 % 8.87 C
3290 10-05-2019 10:05:00 11.6 C 83 % 8.81 C
3291 10-05-2019 10:10:00 11.7 C 83 % 8.91 C
3292 10-05-2019 10:15:00 11.8 C 82 % 8.83 C
3293 10-05-2019 10:20:00 11.9 C 82 % 8.93 C
3294 10-05-2019 10:25:00 12.1 C 81 % 8.94 C
3295 10-05-2019 10:30:00 12.2 C 82 % 9.22 C
3296 10-05-2019 10:35:00 12.3 C 81 % 9.14 C
3297 10-05-2019 10:40:00 12.4 C 80 % 9.05 C
3298 10-05-2019 10:45:00 12.6 C 79 % 9.06 C
3299 10-05-2019 10:50:00 12.6 C 79 % 9.06 C
3300 10-05-2019 10:55:00 12.7 C 80 % 9.34 C
Sensor: Nr:Datum:Temp:Feuchte:Taupunkt:
Aussen-T/F 3301 10-05-2019 11:00:00 12.7 C 79 % 9.16 C
3302 10-05-2019 11:05:00 12.7 C 78 % 8.97 C
3303 10-05-2019 11:10:00 12.7 C 79 % 9.16 C
3304 10-05-2019 11:15:00 12.8 C 78 % 9.06 C
3305 10-05-2019 11:20:00 13 C 77 % 9.07 C
3306 10-05-2019 11:25:00 13.3 C 77 % 9.36 C
3307 10-05-2019 11:30:00 13.4 C 75 % 9.06 C
3308 10-05-2019 11:35:00 13.5 C 74 % 8.96 C
3309 10-05-2019 11:40:00 13.6 C 73 % 8.86 C
3310 10-05-2019 11:45:00 13.6 C 72 % 8.65 C
3311 10-05-2019 11:50:00 13.7 C 75 % 9.35 C
3312 10-05-2019 11:55:00 13.8 C 72 % 8.85 C
3313 10-05-2019 12:00:00 14.1 C 70 % 8.72 C
3314 10-05-2019 12:05:00 14.2 C 71 % 9.02 C
3315 10-05-2019 12:10:00 14.2 C 70 % 8.81 C
3316 10-05-2019 12:15:00 14.1 C 69 % 8.5 C
3317 10-05-2019 12:20:00 14 C 69 % 8.41 C
3318 10-05-2019 12:25:00 14 C 69 % 8.41 C
3319 10-05-2019 12:30:00 14.2 C 67 % 8.17 C
3320 10-05-2019 12:35:00 14.3 C 64 % 7.59 C
3321 10-05-2019 12:40:00 14.6 C 65 % 8.1 C
3322 10-05-2019 12:45:00 14.8 C 66 % 8.52 C
3323 10-05-2019 12:50:00 14.8 C 64 % 8.06 C
3324 10-05-2019 12:55:00 14.9 C 65 % 8.39 C
3325 10-05-2019 13:00:00 14.9 C 64 % 8.16 C
Sensor: Nr:Datum:Temp:Feuchte:Taupunkt:
Aussen-T/F 3326 10-05-2019 13:05:00 14.9 C 63 % 7.93 C
3327 10-05-2019 13:10:00 15.1 C 63 % 8.12 C
3328 10-05-2019 13:15:00 15.2 C 61 % 7.74 C
3329 10-05-2019 13:20:00 15.3 C 56 % 6.58 C
3330 10-05-2019 13:25:00 15.4 C 59 % 7.44 C
3331 10-05-2019 13:30:00 15.5 C 60 % 7.78 C
3332 10-05-2019 13:35:00 15.5 C 62 % 8.26 C
3333 10-05-2019 13:40:00 15.6 C 60 % 7.87 C
3334 10-05-2019 13:45:00 15.8 C 58 % 7.56 C
3335 10-05-2019 13:50:00 16 C 57 % 7.49 C
3336 10-05-2019 13:55:00 16.1 C 57 % 7.59 C
3337 10-05-2019 14:00:00 16.1 C 59 % 8.09 C
3338 10-05-2019 14:05:00 16.4 C 57 % 7.87 C
3339 10-05-2019 14:10:00 16.6 C 57 % 8.06 C
3340 10-05-2019 14:15:00 16.7 C 56 % 7.89 C
3341 10-05-2019 14:20:00 16.7 C 58 % 8.4 C
3342 10-05-2019 14:25:00 16.7 C 55 % 7.62 C
3343 10-05-2019 14:30:00 16.7 C 52 % 6.81 C
3344 10-05-2019 14:35:00 16.8 C 52 % 6.9 C
3345 10-05-2019 14:40:00 17 C 50 % 6.51 C
3346 10-05-2019 14:45:00 17.2 C 52 % 7.27 C
3347 10-05-2019 14:50:00 17.2 C 52 % 7.27 C
3348 10-05-2019 14:55:00 16.9 C 53 % 7.27 C
3349 10-05-2019 15:00:00 16.7 C 52 % 6.81 C
3350 10-05-2019 15:05:00 16.7 C 54 % 7.36 C
Sensor: Nr:Datum:Temp:Feuchte:Taupunkt:
Aussen-T/F 3351 10-05-2019 15:10:00 16.7 C 53 % 7.08 C
3352 10-05-2019 15:15:00 17 C 52 % 7.08 C
3353 10-05-2019 15:20:00 17.2 C 52 % 7.27 C
3354 10-05-2019 15:25:00 17.3 C 53 % 7.64 C
3355 10-05-2019 15:30:00 17.3 C 54 % 7.91 C
3356 10-05-2019 15:35:00 17.2 C 50 % 6.7 C
3357 10-05-2019 15:40:00 17.1 C 52 % 7.18 C
3358 10-05-2019 15:45:00 17.2 C 54 % 7.82 C
3359 10-05-2019 15:50:00 17.8 C 55 % 8.65 C
3360 10-05-2019 15:55:00 18.4 C 49 % 7.5 C
3361 10-05-2019 16:00:00 18.4 C 52 % 8.38 C
3362 10-05-2019 16:05:00 18.5 C 47 % 6.99 C
3363 10-05-2019 16:10:00 18.2 C 50 % 7.62 C
3364 10-05-2019 16:15:00 18.1 C 48 % 6.93 C
3365 10-05-2019 16:20:00 18.1 C 47 % 6.62 C
3366 10-05-2019 16:25:00 18.1 C 48 % 6.93 C
3367 10-05-2019 16:30:00 18 C 48 % 6.84 C
3368 10-05-2019 16:35:00 17.9 C 48 % 6.75 C
3369 10-05-2019 16:40:00 17.7 C 47 % 6.26 C
3370 10-05-2019 16:45:00 17.5 C 53 % 7.82 C
3371 10-05-2019 16:50:00 17.3 C 51 % 7.08 C
3372 10-05-2019 16:55:00 17.4 C 53 % 7.73 C
3373 10-05-2019 17:00:00 17.6 C 52 % 7.64 C
3374 10-05-2019 17:05:00 17.6 C 50 % 7.06 C
3375 10-05-2019 17:10:00 17.5 C 52 % 7.54 C
Sensor: Nr:Datum:Temp:Feuchte:Taupunkt:
Aussen-T/F 3376 10-05-2019 17:15:00 17.4 C 47 % 5.98 C
3377 10-05-2019 17:20:00 17.5 C 51 % 7.26 C
3378 10-05-2019 17:25:00 17.4 C 48 % 6.29 C
3379 10-05-2019 17:30:00 17.3 C 48 % 6.2 C
3380 10-05-2019 17:35:00 17.3 C 50 % 6.79 C
3381 10-05-2019 17:40:00 17.6 C 48 % 6.47 C
3382 10-05-2019 17:45:00 17.8 C 47 % 6.35 C
3383 10-05-2019 17:50:00 18 C 48 % 6.84 C
3384 10-05-2019 17:55:00 18.2 C 45 % 6.08 C
3385 10-05-2019 18:00:00 17.9 C 46 % 6.13 C
3386 10-05-2019 18:05:00 17.4 C 48 % 6.29 C
3387 10-05-2019 18:10:00 17.1 C 51 % 6.89 C
3388 10-05-2019 18:15:00 16.9 C 52 % 6.99 C
3389 10-05-2019 18:20:00 16.9 C 53 % 7.27 C
3390 10-05-2019 18:25:00 17.1 C 52 % 7.18 C
3391 10-05-2019 18:30:00 17.2 C 50 % 6.7 C
3392 10-05-2019 18:35:00 17.2 C 54 % 7.82 C
3393 10-05-2019 18:40:00 17.2 C 50 % 6.7 C
3394 10-05-2019 18:45:00 17.3 C 50 % 6.79 C
3395 10-05-2019 18:50:00 17.4 C 50 % 6.88 C
3396 10-05-2019 18:55:00 17.4 C 51 % 7.17 C
3397 10-05-2019 19:00:00 17.4 C 53 % 7.73 C
3398 10-05-2019 19:05:00 17.6 C 61 % 10 C
3399 10-05-2019 19:10:00 17.8 C 48 % 6.65 C
3400 10-05-2019 19:15:00 17.8 C 61 % 10.18 C
Sensor: Nr:Datum:Temp:Feuchte:Taupunkt:
Aussen-T/F 3401 10-05-2019 19:20:00 17.7 C 61 % 10.09 C
3402 10-05-2019 19:25:00 17.4 C 63 % 10.29 C
3403 10-05-2019 19:30:00 17.2 C 65 % 10.57 C
3404 10-05-2019 19:35:00 17 C 66 % 10.61 C
3405 10-05-2019 19:40:00 16.9 C 67 % 10.74 C
3406 10-05-2019 19:45:00 16.8 C 67 % 10.64 C
3407 10-05-2019 19:50:00 16.5 C 66 % 10.13 C
3408 10-05-2019 19:55:00 16.1 C 66 % 9.75 C
3409 10-05-2019 20:00:00 15.7 C 67 % 9.6 C
3410 10-05-2019 20:05:00 15.3 C 68 % 9.43 C
3411 10-05-2019 20:10:00 14.9 C 69 % 9.27 C
3412 10-05-2019 20:15:00 14.6 C 70 % 9.2 C
3413 10-05-2019 20:20:00 14.4 C 72 % 9.42 C
3414 10-05-2019 20:25:00 14.2 C 73 % 9.43 C
3415 10-05-2019 20:30:00 14 C 73 % 9.24 C
3416 10-05-2019 20:35:00 13.8 C 73 % 9.05 C
3417 10-05-2019 20:40:00 13.6 C 73 % 8.86 C
3418 10-05-2019 20:45:00 13.4 C 73 % 8.66 C
3419 10-05-2019 20:50:00 13.2 C 73 % 8.47 C
3420 10-05-2019 20:55:00 13 C 74 % 8.48 C
3421 10-05-2019 21:00:00 12.8 C 74 % 8.29 C
3422 10-05-2019 21:05:00 12.7 C 75 % 8.39 C
3423 10-05-2019 21:10:00 12.7 C 76 % 8.58 C
3424 10-05-2019 21:15:00 12.6 C 76 % 8.49 C
3425 10-05-2019 21:20:00 12.4 C 76 % 8.29 C
Sensor: Nr:Datum:Temp:Feuchte:Taupunkt:
Aussen-T/F 3426 10-05-2019 21:25:00 12.4 C 77 % 8.49 C
3427 10-05-2019 21:30:00 12.3 C 79 % 8.77 C
3428 10-05-2019 21:35:00 12.2 C 79 % 8.67 C
3429 10-05-2019 21:40:00 12.1 C 79 % 8.57 C
3430 10-05-2019 21:45:00 12.1 C 79 % 8.57 C
3431 10-05-2019 21:50:00 12 C 79 % 8.48 C
3432 10-05-2019 21:55:00 11.9 C 80 % 8.56 C
3433 10-05-2019 22:00:00 11.8 C 79 % 8.28 C
3434 10-05-2019 22:05:00 11.8 C 80 % 8.47 C
3435 10-05-2019 22:10:00 11.8 C 81 % 8.65 C
3436 10-05-2019 22:15:00 11.8 C 80 % 8.47 C
3437 10-05-2019 22:20:00 11.8 C 82 % 8.83 C
3438 10-05-2019 22:25:00 11.8 C 81 % 8.65 C
3439 10-05-2019 22:30:00 11.8 C 82 % 8.83 C
3440 10-05-2019 22:35:00 11.7 C 82 % 8.73 C
3441 10-05-2019 22:40:00 11.8 C 82 % 8.83 C
3442 10-05-2019 22:45:00 11.7 C 82 % 8.73 C
3443 10-05-2019 22:50:00 11.7 C 82 % 8.73 C
3444 10-05-2019 22:55:00 11.7 C 83 % 8.91 C
3445 10-05-2019 23:00:00 11.7 C 83 % 8.91 C
3446 10-05-2019 23:05:00 11.7 C 83 % 8.91 C
3447 10-05-2019 23:10:00 11.7 C 83 % 8.91 C
3448 10-05-2019 23:15:00 11.6 C 83 % 8.81 C
3449 10-05-2019 23:20:00 11.6 C 82 % 8.64 C
3450 10-05-2019 23:25:00 11.6 C 83 % 8.81 C
Sensor: Nr:Datum:Temp:Feuchte:Taupunkt:
Aussen-T/F 3451 10-05-2019 23:30:00 11.6 C 84 % 8.99 C
3452 10-05-2019 23:35:00 11.6 C 84 % 8.99 C
3453 10-05-2019 23:40:00 11.4 C 83 % 8.62 C
3454 10-05-2019 23:45:00 11.4 C 84 % 8.8 C
3455 10-05-2019 23:50:00 11.3 C 83 % 8.52 C
3456 10-05-2019 23:55:00 11.2 C 84 % 8.6 C
3457 11-05-2019 00:00:00 11.2 C 84 % 8.6 C
3458 11-05-2019 00:05:00 11.2 C 84 % 8.6 C
3459 11-05-2019 00:10:00 11.2 C 85 % 8.77 C
3460 11-05-2019 00:15:00 11.2 C 85 % 8.77 C
3461 11-05-2019 00:20:00 11.2 C 86 % 8.95 C
3462 11-05-2019 00:25:00 11.1 C 87 % 9.02 C
3463 11-05-2019 00:30:00 11.1 C 87 % 9.02 C
3464 11-05-2019 00:35:00 11 C 87 % 8.92 C
3465 11-05-2019 00:40:00 10.9 C 88 % 8.99 C
3466 11-05-2019 00:45:00 10.9 C 88 % 8.99 C
3467 11-05-2019 00:50:00 10.8 C 89 % 9.06 C
3468 11-05-2019 00:55:00 10.7 C 89 % 8.96 C
3469 11-05-2019 01:00:00 10.7 C 90 % 9.13 C
3470 11-05-2019 01:05:00 10.6 C 90 % 9.03 C
3471 11-05-2019 01:10:00 10.6 C 90 % 9.03 C
3472 11-05-2019 01:15:00 10.5 C 91 % 9.09 C
3473 11-05-2019 01:20:00 10.4 C 91 % 9 C
3474 11-05-2019 01:25:00 10.3 C 91 % 8.9 C
3475 11-05-2019 01:30:00 10.3 C 91 % 8.9 C
Sensor: Nr:Datum:Temp:Feuchte:Taupunkt:
Aussen-T/F 3476 11-05-2019 01:35:00 10.3 C 92 % 9.06 C
3477 11-05-2019 01:40:00 10.2 C 92 % 8.96 C
3478 11-05-2019 01:45:00 10.2 C 92 % 8.96 C
3479 11-05-2019 01:50:00 10.2 C 92 % 8.96 C
3480 11-05-2019 01:55:00 10.1 C 92 % 8.86 C
3481 11-05-2019 02:00:00 10.1 C 92 % 8.86 C
3482 11-05-2019 02:05:00 10.1 C 93 % 9.02 C
3483 11-05-2019 02:10:00 10.1 C 93 % 9.02 C
3484 11-05-2019 02:15:00 10.1 C 93 % 9.02 C
3485 11-05-2019 02:20:00 10.1 C 93 % 9.02 C
3486 11-05-2019 02:25:00 10.1 C 93 % 9.02 C
3487 11-05-2019 02:30:00 10.1 C 93 % 9.02 C
3488 11-05-2019 02:35:00 10.1 C 94 % 9.18 C
3489 11-05-2019 02:40:00 10.1 C 94 % 9.18 C
3490 11-05-2019 02:45:00 10.1 C 94 % 9.18 C
3491 11-05-2019 02:50:00 10.1 C 94 % 9.18 C
3492 11-05-2019 02:55:00 10.1 C 94 % 9.18 C
3493 11-05-2019 03:00:00 10.1 C 94 % 9.18 C
3494 11-05-2019 03:05:00 10.1 C 94 % 9.18 C
3495 11-05-2019 03:10:00 10.1 C 94 % 9.18 C
3496 11-05-2019 03:15:00 10.1 C 94 % 9.18 C
3497 11-05-2019 03:20:00 10 C 94 % 9.08 C
3498 11-05-2019 03:25:00 9.9 C 94 % 8.98 C
3499 11-05-2019 03:30:00 9.9 C 94 % 8.98 C
3500 11-05-2019 03:35:00 9.8 C 94 % 8.88 C
Sensor: Nr:Datum:Temp:Feuchte:Taupunkt:
Aussen-T/F 3501 11-05-2019 03:40:00 9.8 C 94 % 8.88 C
3502 11-05-2019 03:45:00 9.8 C 94 % 8.88 C
3503 11-05-2019 03:50:00 9.8 C 95 % 9.04 C
3504 11-05-2019 03:55:00 9.7 C 95 % 8.94 C
3505 11-05-2019 04:00:00 9.7 C 95 % 8.94 C
3506 11-05-2019 04:05:00 9.7 C 95 % 8.94 C
3507 11-05-2019 04:10:00 9.7 C 95 % 8.94 C
3508 11-05-2019 04:15:00 9.7 C 95 % 8.94 C
3509 11-05-2019 04:20:00 9.7 C 95 % 8.94 C
3510 11-05-2019 04:25:00 9.7 C 95 % 8.94 C
3511 11-05-2019 04:30:00 9.7 C 95 % 8.94 C
3512 11-05-2019 04:35:00 9.7 C 95 % 8.94 C
3513 11-05-2019 04:40:00 9.7 C 95 % 8.94 C
3514 11-05-2019 04:45:00 9.7 C 95 % 8.94 C
3515 11-05-2019 04:50:00 9.7 C 95 % 8.94 C
3516 11-05-2019 04:55:00 9.7 C 95 % 8.94 C
3517 11-05-2019 05:00:00 9.7 C 96 % 9.09 C
3518 11-05-2019 05:05:00 9.8 C 95 % 9.04 C
3519 11-05-2019 05:10:00 9.8 C 95 % 9.04 C
3520 11-05-2019 05:15:00 9.8 C 95 % 9.04 C
3521 11-05-2019 05:20:00 9.8 C 96 % 9.19 C
3522 11-05-2019 05:25:00 9.8 C 96 % 9.19 C
3523 11-05-2019 05:30:00 9.8 C 96 % 9.19 C
3524 11-05-2019 05:35:00 9.8 C 96 % 9.19 C
3525 11-05-2019 05:40:00 9.8 C 96 % 9.19 C
Sensor: Nr:Datum:Temp:Feuchte:Taupunkt:
Aussen-T/F 3526 11-05-2019 05:45:00 9.8 C 96 % 9.19 C
3527 11-05-2019 05:50:00 9.7 C 96 % 9.09 C
3528 11-05-2019 05:55:00 9.7 C 96 % 9.09 C
3529 11-05-2019 06:00:00 9.7 C 96 % 9.09 C
3530 11-05-2019 06:05:00 9.7 C 96 % 9.09 C
3531 11-05-2019 06:10:00 9.7 C 96 % 9.09 C
3532 11-05-2019 06:15:00 9.7 C 96 % 9.09 C
3533 11-05-2019 06:20:00 9.7 C 96 % 9.09 C
3534 11-05-2019 06:25:00 9.7 C 96 % 9.09 C
3535 11-05-2019 06:30:00 9.7 C 96 % 9.09 C
3536 11-05-2019 06:35:00 9.7 C 96 % 9.09 C
3537 11-05-2019 06:40:00 9.7 C 96 % 9.09 C
3538 11-05-2019 06:45:00 9.7 C 96 % 9.09 C
3539 11-05-2019 06:50:00 9.7 C 96 % 9.09 C
3540 11-05-2019 06:55:00 9.7 C 96 % 9.09 C
3541 11-05-2019 07:00:00 9.7 C 96 % 9.09 C
3542 11-05-2019 07:05:00 9.7 C 96 % 9.09 C
3543 11-05-2019 07:10:00 9.7 C 96 % 9.09 C
3544 11-05-2019 07:15:00 9.7 C 96 % 9.09 C
3545 11-05-2019 07:20:00 9.7 C 96 % 9.09 C
3546 11-05-2019 07:25:00 9.7 C 96 % 9.09 C
3547 11-05-2019 07:30:00 9.7 C 96 % 9.09 C
3548 11-05-2019 07:35:00 9.7 C 96 % 9.09 C
3549 11-05-2019 07:40:00 9.7 C 96 % 9.09 C
3550 11-05-2019 07:45:00 9.7 C 96 % 9.09 C
Sensor: Nr:Datum:Temp:Feuchte:Taupunkt:
Aussen-T/F 3551 11-05-2019 07:50:00 9.7 C 96 % 9.09 C
3552 11-05-2019 07:55:00 9.7 C 96 % 9.09 C
3553 11-05-2019 08:00:00 9.7 C 96 % 9.09 C
3554 11-05-2019 08:05:00 9.7 C 96 % 9.09 C
3555 11-05-2019 08:10:00 9.7 C 96 % 9.09 C
3556 11-05-2019 08:15:00 9.7 C 96 % 9.09 C
3557 11-05-2019 08:20:00 9.7 C 96 % 9.09 C
3558 11-05-2019 08:25:00 9.7 C 96 % 9.09 C
3559 11-05-2019 08:30:00 9.7 C 96 % 9.09 C
3560 11-05-2019 08:35:00 9.6 C 96 % 8.99 C
3561 11-05-2019 08:40:00 9.6 C 96 % 8.99 C
3562 11-05-2019 08:45:00 9.6 C 96 % 8.99 C
3563 11-05-2019 08:50:00 9.6 C 96 % 8.99 C
3564 11-05-2019 08:55:00 9.6 C 96 % 8.99 C
3565 11-05-2019 09:00:00 9.6 C 96 % 8.99 C
3566 11-05-2019 09:05:00 9.6 C 96 % 8.99 C
3567 11-05-2019 09:10:00 9.6 C 96 % 8.99 C
3568 11-05-2019 09:15:00 9.7 C 96 % 9.09 C
3569 11-05-2019 09:20:00 9.7 C 96 % 9.09 C
3570 11-05-2019 09:25:00 9.7 C 96 % 9.09 C
3571 11-05-2019 09:30:00 9.7 C 96 % 9.09 C
3572 11-05-2019 09:35:00 9.7 C 96 % 9.09 C
3573 11-05-2019 09:40:00 9.8 C 96 % 9.19 C
3574 11-05-2019 09:45:00 9.8 C 96 % 9.19 C
3575 11-05-2019 09:50:00 9.8 C 96 % 9.19 C
Sensor: Nr:Datum:Temp:Feuchte:Taupunkt:
Aussen-T/F 3576 11-05-2019 09:55:00 9.8 C 96 % 9.19 C
3577 11-05-2019 10:00:00 9.8 C 96 % 9.19 C
3578 11-05-2019 10:05:00 9.7 C 96 % 9.09 C
3579 11-05-2019 10:10:00 9.8 C 96 % 9.19 C
3580 11-05-2019 10:15:00 9.8 C 96 % 9.19 C
3581 11-05-2019 10:20:00 9.8 C 96 % 9.19 C
3582 11-05-2019 10:25:00 9.9 C 96 % 9.29 C
3583 11-05-2019 10:30:00 9.9 C 96 % 9.29 C
3584 11-05-2019 10:35:00 9.8 C 96 % 9.19 C
3585 11-05-2019 10:40:00 9.9 C 96 % 9.29 C
3586 11-05-2019 10:45:00 9.9 C 96 % 9.29 C
3587 11-05-2019 10:50:00 10 C 96 % 9.39 C
3588 11-05-2019 10:55:00 10 C 96 % 9.39 C
3589 11-05-2019 11:00:00 10.1 C 96 % 9.49 C
3590 11-05-2019 11:05:00 10.1 C 96 % 9.49 C
3591 11-05-2019 11:10:00 10.1 C 96 % 9.49 C
3592 11-05-2019 11:15:00 10.1 C 96 % 9.49 C
3593 11-05-2019 11:20:00 10.1 C 96 % 9.49 C
3594 11-05-2019 11:25:00 10.1 C 96 % 9.49 C
3595 11-05-2019 11:30:00 10.1 C 96 % 9.49 C
3596 11-05-2019 11:35:00 10.1 C 96 % 9.49 C
3597 11-05-2019 11:40:00 10.2 C 96 % 9.59 C
3598 11-05-2019 11:45:00 10.2 C 96 % 9.59 C
3599 11-05-2019 11:50:00 10.2 C 96 % 9.59 C
3600 11-05-2019 11:55:00 10.2 C 96 % 9.59 C
Sensor: Nr:Datum:Temp:Feuchte:Taupunkt:
Aussen-T/F 3601 11-05-2019 12:00:00 10.2 C 95 % 9.44 C
3602 11-05-2019 12:05:00 10.3 C 95 % 9.54 C
3603 11-05-2019 12:10:00 10.3 C 95 % 9.54 C
3604 11-05-2019 12:15:00 10.4 C 95 % 9.63 C
3605 11-05-2019 12:20:00 10.5 C 95 % 9.73 C
3606 11-05-2019 12:25:00 10.5 C 95 % 9.73 C
3607 11-05-2019 12:30:00 10.6 C 95 % 9.83 C
3608 11-05-2019 12:35:00 10.4 C 94 % 9.48 C
3609 11-05-2019 12:40:00 10.4 C 94 % 9.48 C
3610 11-05-2019 12:45:00 10.3 C 94 % 9.38 C
3611 11-05-2019 12:50:00 10.3 C 94 % 9.38 C
3612 11-05-2019 12:55:00 10.2 C 94 % 9.28 C
3613 11-05-2019 13:00:00 10.1 C 94 % 9.18 C
3614 11-05-2019 13:05:00 10.1 C 94 % 9.18 C
3615 11-05-2019 13:10:00 10 C 94 % 9.08 C
3616 11-05-2019 13:15:00 9.9 C 94 % 8.98 C
3617 11-05-2019 13:20:00 9.8 C 94 % 8.88 C
3618 11-05-2019 13:25:00 9.8 C 94 % 8.88 C
3619 11-05-2019 13:30:00 9.7 C 94 % 8.78 C
3620 11-05-2019 13:35:00 9.6 C 94 % 8.68 C
3621 11-05-2019 13:40:00 9.7 C 94 % 8.78 C
3622 11-05-2019 13:45:00 9.6 C 94 % 8.68 C
3623 11-05-2019 13:50:00 9.6 C 94 % 8.68 C
3624 11-05-2019 13:55:00 9.6 C 94 % 8.68 C
3625 11-05-2019 14:00:00 9.7 C 94 % 8.78 C
Sensor: Nr:Datum:Temp:Feuchte:Taupunkt:
Aussen-T/F 3626 11-05-2019 14:05:00 9.7 C 95 % 8.94 C
3627 11-05-2019 14:10:00 9.8 C 95 % 9.04 C
3628 11-05-2019 14:15:00 9.8 C 95 % 9.04 C
3629 11-05-2019 14:20:00 9.8 C 95 % 9.04 C
3630 11-05-2019 14:25:00 9.8 C 95 % 9.04 C
3631 11-05-2019 14:30:00 9.8 C 95 % 9.04 C
3632 11-05-2019 14:35:00 9.8 C 95 % 9.04 C
3633 11-05-2019 14:40:00 9.7 C 95 % 8.94 C
3634 11-05-2019 14:45:00 9.7 C 95 % 8.94 C
3635 11-05-2019 14:50:00 9.8 C 95 % 9.04 C
3636 11-05-2019 14:55:00 9.8 C 95 % 9.04 C
3637 11-05-2019 15:00:00 9.8 C 95 % 9.04 C
3638 11-05-2019 15:05:00 9.8 C 95 % 9.04 C
3639 11-05-2019 15:10:00 9.8 C 95 % 9.04 C
3640 11-05-2019 15:15:00 9.8 C 95 % 9.04 C
3641 11-05-2019 15:20:00 9.8 C 95 % 9.04 C
3642 11-05-2019 15:25:00 9.9 C 95 % 9.14 C
3643 11-05-2019 15:30:00 9.9 C 95 % 9.14 C
3644 11-05-2019 15:35:00 9.9 C 95 % 9.14 C
3645 11-05-2019 15:40:00 10 C 95 % 9.24 C
3646 11-05-2019 15:45:00 10 C 95 % 9.24 C
3647 11-05-2019 15:50:00 10.1 C 95 % 9.34 C
3648 11-05-2019 15:55:00 10.2 C 95 % 9.44 C
3649 11-05-2019 16:00:00 10.2 C 96 % 9.59 C
3650 11-05-2019 16:05:00 10.3 C 96 % 9.69 C
Sensor: Nr:Datum:Temp:Feuchte:Taupunkt:
Aussen-T/F 3651 11-05-2019 16:10:00 10.3 C 96 % 9.69 C
3652 11-05-2019 16:15:00 10.3 C 96 % 9.69 C
3653 11-05-2019 16:20:00 10.3 C 96 % 9.69 C
3654 11-05-2019 16:25:00 10.3 C 95 % 9.54 C
3655 11-05-2019 16:30:00 10.3 C 96 % 9.69 C
3656 11-05-2019 16:35:00 10.3 C 96 % 9.69 C
3657 11-05-2019 16:40:00 10.3 C 96 % 9.69 C
3658 11-05-2019 16:45:00 10.4 C 96 % 9.79 C
3659 11-05-2019 16:50:00 10.4 C 96 % 9.79 C
3660 11-05-2019 16:55:00 10.4 C 96 % 9.79 C
3661 11-05-2019 17:00:00 10.6 C 96 % 9.99 C
3662 11-05-2019 17:05:00 10.5 C 96 % 9.89 C
3663 11-05-2019 17:10:00 10.7 C 96 % 10.09 C
3664 11-05-2019 17:15:00 10.8 C 96 % 10.19 C
3665 11-05-2019 17:20:00 10.9 C 96 % 10.29 C
3666 11-05-2019 17:25:00 11 C 96 % 10.39 C
3667 11-05-2019 17:30:00 11.2 C 96 % 10.59 C
3668 11-05-2019 17:35:00 11.1 C 96 % 10.49 C
3669 11-05-2019 17:40:00 11.1 C 95 % 10.33 C
3670 11-05-2019 17:45:00 11.1 C 94 % 10.17 C
3671 11-05-2019 17:50:00 11.2 C 94 % 10.27 C
3672 11-05-2019 17:55:00 11.3 C 94 % 10.37 C
3673 11-05-2019 18:00:00 11.4 C 93 % 10.31 C
3674 11-05-2019 18:05:00 11.4 C 91 % 9.98 C
3675 11-05-2019 18:10:00 11.4 C 91 % 9.98 C
Sensor: Nr:Datum:Temp:Feuchte:Taupunkt:
Aussen-T/F 3676 11-05-2019 18:15:00 11.4 C 91 % 9.98 C
3677 11-05-2019 18:20:00 11.4 C 89 % 9.65 C
3678 11-05-2019 18:25:00 11.5 C 89 % 9.75 C
3679 11-05-2019 18:30:00 11.7 C 90 % 10.12 C
3680 11-05-2019 18:35:00 11.9 C 89 % 10.15 C
3681 11-05-2019 18:40:00 12 C 88 % 10.08 C
3682 11-05-2019 18:45:00 12.2 C 85 % 9.76 C
3683 11-05-2019 18:50:00 12.5 C 85 % 10.05 C
3684 11-05-2019 18:55:00 12.7 C 83 % 9.89 C
3685 11-05-2019 19:00:00 12.6 C 82 % 9.61 C
3686 11-05-2019 19:05:00 12.3 C 82 % 9.32 C
3687 11-05-2019 19:10:00 12 C 82 % 9.03 C
3688 11-05-2019 19:15:00 11.8 C 83 % 9.01 C
3689 11-05-2019 19:20:00 11.9 C 83 % 9.11 C
3690 11-05-2019 19:25:00 12.1 C 83 % 9.3 C
3691 11-05-2019 19:30:00 12.2 C 82 % 9.22 C
3692 11-05-2019 19:35:00 12.2 C 81 % 9.04 C
3693 11-05-2019 19:40:00 12.1 C 79 % 8.57 C
3694 11-05-2019 19:45:00 12.1 C 80 % 8.76 C
3695 11-05-2019 19:50:00 12 C 81 % 8.84 C
3696 11-05-2019 19:55:00 11.9 C 81 % 8.75 C
3697 11-05-2019 20:00:00 11.8 C 80 % 8.47 C
3698 11-05-2019 20:05:00 11.8 C 79 % 8.28 C
3699 11-05-2019 20:10:00 11.8 C 80 % 8.47 C
3700 11-05-2019 20:15:00 11.7 C 82 % 8.73 C
Sensor: Nr:Datum:Temp:Feuchte:Taupunkt:
Aussen-T/F 3701 11-05-2019 20:20:00 11.6 C 82 % 8.64 C
3702 11-05-2019 20:25:00 11.5 C 85 % 9.07 C
3703 11-05-2019 20:30:00 11.3 C 84 % 8.7 C
3704 11-05-2019 20:35:00 11.2 C 86 % 8.95 C
3705 11-05-2019 20:40:00 11 C 87 % 8.92 C
3706 11-05-2019 20:45:00 10.8 C 88 % 8.89 C
3707 11-05-2019 20:50:00 10.7 C 88 % 8.8 C
3708 11-05-2019 20:55:00 10.4 C 89 % 8.67 C
3709 11-05-2019 21:00:00 10.2 C 89 % 8.47 C
3710 11-05-2019 21:05:00 9.9 C 90 % 8.34 C
3711 11-05-2019 21:10:00 9.8 C 90 % 8.24 C
3712 11-05-2019 21:15:00 9.7 C 91 % 8.3 C
3713 11-05-2019 21:20:00 9.6 C 91 % 8.21 C
3714 11-05-2019 21:25:00 9.5 C 92 % 8.27 C
3715 11-05-2019 21:30:00 9.4 C 92 % 8.17 C
3716 11-05-2019 21:35:00 9.3 C 92 % 8.07 C
3717 11-05-2019 21:40:00 9.2 C 92 % 7.97 C
3718 11-05-2019 21:45:00 9 C 92 % 7.77 C
3719 11-05-2019 21:50:00 8.9 C 92 % 7.67 C
3720 11-05-2019 21:55:00 8.8 C 92 % 7.57 C
3721 11-05-2019 22:00:00 8.7 C 92 % 7.47 C
3722 11-05-2019 22:05:00 8.6 C 92 % 7.38 C
3723 11-05-2019 22:10:00 8.5 C 93 % 7.43 C
3724 11-05-2019 22:15:00 8.4 C 93 % 7.34 C
3725 11-05-2019 22:20:00 8.4 C 93 % 7.34 C
Sensor: Nr:Datum:Temp:Feuchte:Taupunkt:
Aussen-T/F 3726 11-05-2019 22:25:00 8.3 C 93 % 7.24 C
3727 11-05-2019 22:30:00 8.3 C 93 % 7.24 C
3728 11-05-2019 22:35:00 8.3 C 93 % 7.24 C
3729 11-05-2019 22:40:00 8.3 C 93 % 7.24 C
3730 11-05-2019 22:45:00 8.2 C 93 % 7.14 C
3731 11-05-2019 22:50:00 8.1 C 93 % 7.04 C
3732 11-05-2019 22:55:00 7.9 C 93 % 6.84 C
3733 11-05-2019 23:00:00 7.8 C 93 % 6.74 C
3734 11-05-2019 23:05:00 7.8 C 94 % 6.9 C
3735 11-05-2019 23:10:00 7.7 C 94 % 6.8 C
3736 11-05-2019 23:15:00 7.7 C 94 % 6.8 C
3737 11-05-2019 23:20:00 7.6 C 94 % 6.7 C
3738 11-05-2019 23:25:00 7.6 C 94 % 6.7 C
3739 11-05-2019 23:30:00 7.6 C 94 % 6.7 C
3740 11-05-2019 23:35:00 7.6 C 95 % 6.85 C
3741 11-05-2019 23:40:00 7.6 C 95 % 6.85 C
3742 11-05-2019 23:45:00 7.6 C 95 % 6.85 C
3743 11-05-2019 23:50:00 7.6 C 95 % 6.85 C
3744 11-05-2019 23:55:00 7.6 C 95 % 6.85 C
3745 12-05-2019 00:00:00 7.6 C 95 % 6.85 C
3746 12-05-2019 00:05:00 7.6 C 95 % 6.85 C
3747 12-05-2019 00:10:00 7.5 C 95 % 6.75 C
3748 12-05-2019 00:15:00 7.5 C 95 % 6.75 C
3749 12-05-2019 00:20:00 7.4 C 95 % 6.65 C
3750 12-05-2019 00:25:00 7.3 C 95 % 6.55 C
Sensor: Nr:Datum:Temp:Feuchte:Taupunkt:
Aussen-T/F 3751 12-05-2019 00:30:00 7.4 C 95 % 6.65 C
3752 12-05-2019 00:35:00 7.4 C 95 % 6.65 C
3753 12-05-2019 00:40:00 7.4 C 95 % 6.65 C
3754 12-05-2019 00:45:00 7.4 C 95 % 6.65 C
3755 12-05-2019 00:50:00 7.3 C 95 % 6.55 C
3756 12-05-2019 00:55:00 7.2 C 95 % 6.45 C
3757 12-05-2019 01:00:00 7.1 C 95 % 6.35 C
3758 12-05-2019 01:05:00 6.9 C 95 % 6.16 C
3759 12-05-2019 01:10:00 6.9 C 95 % 6.16 C
3760 12-05-2019 01:15:00 6.8 C 95 % 6.06 C
3761 12-05-2019 01:20:00 6.8 C 95 % 6.06 C
3762 12-05-2019 01:25:00 6.8 C 95 % 6.06 C
3763 12-05-2019 01:30:00 6.7 C 95 % 5.96 C
3764 12-05-2019 01:35:00 6.6 C 95 % 5.86 C
3765 12-05-2019 01:40:00 6.6 C 95 % 5.86 C
3766 12-05-2019 01:45:00 6.6 C 95 % 5.86 C
3767 12-05-2019 01:50:00 6.6 C 95 % 5.86 C
3768 12-05-2019 01:55:00 6.6 C 95 % 5.86 C
3769 12-05-2019 02:00:00 6.6 C 95 % 5.86 C
3770 12-05-2019 02:05:00 6.7 C 95 % 5.96 C
3771 12-05-2019 02:10:00 6.7 C 94 % 5.8 C
3772 12-05-2019 02:15:00 6.6 C 94 % 5.71 C
3773 12-05-2019 02:20:00 6.6 C 94 % 5.71 C
3774 12-05-2019 02:25:00 6.4 C 94 % 5.51 C
3775 12-05-2019 02:30:00 6.5 C 94 % 5.61 C
Sensor: Nr:Datum:Temp:Feuchte:Taupunkt:
Aussen-T/F 3776 12-05-2019 02:35:00 6.4 C 93 % 5.35 C
3777 12-05-2019 02:40:00 6.3 C 93 % 5.25 C
3778 12-05-2019 02:45:00 6.2 C 93 % 5.15 C
3779 12-05-2019 02:50:00 6.1 C 93 % 5.06 C
3780 12-05-2019 02:55:00 6.1 C 93 % 5.06 C
3781 12-05-2019 03:00:00 6.1 C 93 % 5.06 C
3782 12-05-2019 03:05:00 6.1 C 93 % 5.06 C
3783 12-05-2019 03:10:00 5.9 C 93 % 4.86 C
3784 12-05-2019 03:15:00 5.9 C 93 % 4.86 C
3785 12-05-2019 03:20:00 5.8 C 93 % 4.76 C
3786 12-05-2019 03:25:00 5.8 C 93 % 4.76 C
3787 12-05-2019 03:30:00 5.7 C 93 % 4.66 C
3788 12-05-2019 03:35:00 5.5 C 93 % 4.46 C
3789 12-05-2019 03:40:00 5.4 C 93 % 4.36 C
3790 12-05-2019 03:45:00 5.3 C 93 % 4.26 C
3791 12-05-2019 03:50:00 5.3 C 93 % 4.26 C
3792 12-05-2019 03:55:00 5.2 C 93 % 4.16 C
3793 12-05-2019 04:00:00 5.1 C 93 % 4.06 C
3794 12-05-2019 04:05:00 4.9 C 93 % 3.87 C
3795 12-05-2019 04:10:00 4.9 C 93 % 3.87 C
3796 12-05-2019 04:15:00 4.8 C 94 % 3.92 C
3797 12-05-2019 04:20:00 4.8 C 94 % 3.92 C
3798 12-05-2019 04:25:00 4.7 C 94 % 3.82 C
3799 12-05-2019 04:30:00 4.7 C 94 % 3.82 C
3800 12-05-2019 04:35:00 4.7 C 94 % 3.82 C
Sensor: Nr:Datum:Temp:Feuchte:Taupunkt:
Aussen-T/F 3801 12-05-2019 04:40:00 4.6 C 94 % 3.72 C
3802 12-05-2019 04:45:00 4.5 C 94 % 3.62 C
3803 12-05-2019 04:50:00 4.4 C 94 % 3.52 C
3804 12-05-2019 04:55:00 4.4 C 94 % 3.52 C
3805 12-05-2019 05:00:00 4.3 C 94 % 3.42 C
3806 12-05-2019 05:05:00 4.3 C 94 % 3.42 C
3807 12-05-2019 05:10:00 4.3 C 94 % 3.42 C
3808 12-05-2019 05:15:00 4.3 C 94 % 3.42 C
3809 12-05-2019 05:20:00 4.3 C 95 % 3.57 C
3810 12-05-2019 05:25:00 4.2 C 95 % 3.47 C
3811 12-05-2019 05:30:00 4.2 C 95 % 3.47 C
3812 12-05-2019 05:35:00 4.2 C 95 % 3.47 C
3813 12-05-2019 05:40:00 4.2 C 95 % 3.47 C
3814 12-05-2019 05:45:00 4.2 C 95 % 3.47 C
3815 12-05-2019 05:50:00 4.1 C 95 % 3.37 C
3816 12-05-2019 05:55:00 4.1 C 95 % 3.37 C
3817 12-05-2019 06:00:00 4.1 C 95 % 3.37 C
3818 12-05-2019 06:05:00 4.1 C 95 % 3.37 C
3819 12-05-2019 06:10:00 4.1 C 95 % 3.37 C
3820 12-05-2019 06:15:00 4.2 C 95 % 3.47 C
3821 12-05-2019 06:20:00 4.2 C 95 % 3.47 C
3822 12-05-2019 06:25:00 4.3 C 95 % 3.57 C
3823 12-05-2019 06:30:00 4.4 C 95 % 3.67 C
3824 12-05-2019 06:35:00 4.6 C 95 % 3.87 C
3825 12-05-2019 06:40:00 4.7 C 95 % 3.97 C
Sensor: Nr:Datum:Temp:Feuchte:Taupunkt:
Aussen-T/F 3826 12-05-2019 06:45:00 4.8 C 95 % 4.07 C
3827 12-05-2019 06:50:00 4.9 C 95 % 4.17 C
3828 12-05-2019 06:55:00 5.1 C 95 % 4.37 C
3829 12-05-2019 07:00:00 5.2 C 94 % 4.32 C
3830 12-05-2019 07:05:00 5.2 C 94 % 4.32 C
3831 12-05-2019 07:10:00 5.3 C 93 % 4.26 C
3832 12-05-2019 07:15:00 5.3 C 93 % 4.26 C
3833 12-05-2019 07:20:00 5.4 C 93 % 4.36 C
3834 12-05-2019 07:25:00 5.6 C 92 % 4.41 C
3835 12-05-2019 07:30:00 5.7 C 92 % 4.5 C
3836 12-05-2019 07:35:00 5.9 C 91 % 4.55 C
3837 12-05-2019 07:40:00 6 C 91 % 4.65 C
3838 12-05-2019 07:45:00 6.1 C 90 % 4.59 C
3839 12-05-2019 07:50:00 6.2 C 90 % 4.69 C
3840 12-05-2019 07:55:00 6.3 C 89 % 4.62 C
3841 12-05-2019 08:00:00 6.4 C 89 % 4.72 C
3842 12-05-2019 08:05:00 6.6 C 88 % 4.76 C
3843 12-05-2019 08:10:00 6.6 C 88 % 4.76 C
3844 12-05-2019 08:15:00 6.7 C 87 % 4.69 C
3845 12-05-2019 08:20:00 6.8 C 87 % 4.79 C
3846 12-05-2019 08:25:00 6.8 C 87 % 4.79 C
3847 12-05-2019 08:30:00 6.9 C 86 % 4.72 C
3848 12-05-2019 08:35:00 7.1 C 85 % 4.75 C
3849 12-05-2019 08:40:00 7.2 C 84 % 4.68 C
3850 12-05-2019 08:45:00 7.4 C 82 % 4.53 C
Sensor: Nr:Datum:Temp:Feuchte:Taupunkt:
Aussen-T/F 3851 12-05-2019 08:50:00 7.6 C 83 % 4.9 C
3852 12-05-2019 08:55:00 7.7 C 80 % 4.47 C
3853 12-05-2019 09:00:00 7.8 C 79 % 4.39 C
3854 12-05-2019 09:05:00 7.8 C 79 % 4.39 C
3855 12-05-2019 09:10:00 7.9 C 80 % 4.67 C
3856 12-05-2019 09:15:00 7.9 C 80 % 4.67 C
3857 12-05-2019 09:20:00 8.1 C 80 % 4.86 C
3858 12-05-2019 09:25:00 8.1 C 78 % 4.5 C
3859 12-05-2019 09:30:00 8.2 C 80 % 4.96 C
3860 12-05-2019 09:35:00 8.2 C 77 % 4.42 C
3861 12-05-2019 09:40:00 8.3 C 79 % 4.88 C
3862 12-05-2019 09:45:00 8.3 C 78 % 4.7 C
3863 12-05-2019 09:50:00 8.4 C 77 % 4.61 C
3864 12-05-2019 09:55:00 8.5 C 77 % 4.71 C
3865 12-05-2019 10:00:00 8.6 C 75 % 4.43 C
3866 12-05-2019 10:05:00 8.6 C 74 % 4.24 C
3867 12-05-2019 10:10:00 8.5 C 75 % 4.33 C
3868 12-05-2019 10:15:00 8.6 C 75 % 4.43 C
3869 12-05-2019 10:20:00 8.7 C 76 % 4.71 C
3870 12-05-2019 10:25:00 8.7 C 75 % 4.52 C
3871 12-05-2019 10:30:00 8.8 C 73 % 4.24 C
3872 12-05-2019 10:35:00 8.8 C 73 % 4.24 C
3873 12-05-2019 10:40:00 8.9 C 75 % 4.72 C
3874 12-05-2019 10:45:00 9.2 C 76 % 5.2 C
3875 12-05-2019 10:50:00 9.3 C 71 % 4.32 C
Sensor: Nr:Datum:Temp:Feuchte:Taupunkt:
Aussen-T/F 3876 12-05-2019 10:55:00 9.3 C 74 % 4.91 C
3877 12-05-2019 11:00:00 9.2 C 70 % 4.02 C
3878 12-05-2019 11:05:00 9.1 C 71 % 4.13 C
3879 12-05-2019 11:10:00 9.1 C 71 % 4.13 C
3880 12-05-2019 11:15:00 9.2 C 70 % 4.02 C
3881 12-05-2019 11:20:00 9.4 C 71 % 4.42 C
3882 12-05-2019 11:25:00 9.7 C 70 % 4.5 C
3883 12-05-2019 11:30:00 9.7 C 67 % 3.88 C
3884 12-05-2019 11:35:00 9.7 C 69 % 4.3 C
3885 12-05-2019 11:40:00 9.7 C 69 % 4.3 C
3886 12-05-2019 11:45:00 9.9 C 70 % 4.69 C
3887 12-05-2019 11:50:00 10.1 C 68 % 4.47 C
3888 12-05-2019 11:55:00 10.2 C 67 % 4.36 C
3889 12-05-2019 12:00:00 10.3 C 66 % 4.24 C
3890 12-05-2019 12:05:00 10.4 C 66 % 4.33 C
3891 12-05-2019 12:10:00 10.3 C 65 % 4.02 C
3892 12-05-2019 12:15:00 10.3 C 65 % 4.02 C
3893 12-05-2019 12:20:00 10.6 C 66 % 4.52 C
3894 12-05-2019 12:25:00 10.8 C 66 % 4.71 C
3895 12-05-2019 12:30:00 10.7 C 63 % 3.95 C
3896 12-05-2019 12:35:00 10.5 C 64 % 3.99 C
3897 12-05-2019 12:40:00 10.5 C 65 % 4.21 C
3898 12-05-2019 12:45:00 10.6 C 64 % 4.08 C